GFSMA_925_thetae_000.txt.gz
Theta_e
324 322 320 318 318 318 318 318 318 318 318 315 312 310 310 311 311 310 312 313 312 309 306 310 313 314 319 320 321 323 324 325 326 328 322 326 327 326 326 325 327 327 326
322 321 319 320 319 318 318 317 318 319 319 318 315 312 311 311 311 311 312 313 312 310 306 305 312 314 314 316 318 320 321 323 324 325 327 328 327 326 326 326 326 327 326
321 321 321 320 320 319 318 318 319 318 318 319 317 315 313 311 311 311 311 312 311 309 308 303 305 315 314 308 312 316 318 320 322 323 324 325 326 326 326 326 327 327 326
320 319 319 319 319 319 319 319 319 319 319 318 318 317 316 313 312 311 311 311 311 310 308 306 302 304 305 304 305 306 310 314 317 320 322 323 325 326 326 326 326 326 326
317 317 317 317 317 317 318 319 319 319 320 319 319 318 316 316 314 312 312 311 310 310 309 309 306 303 303 303 303 304 304 306 309 315 318 319 321 323 325 326 326 326 326
316 315 315 315 315 316 316 316 317 316 315 316 318 318 318 317 316 315 313 312 311 310 309 309 308 304 302 302 303 303 305 304 305 307 312 319 319 319 322 323 325 325 325
313 312 312 312 311 312 312 312 311 312 312 314 316 317 316 316 318 318 316 314 312 311 310 309 309 308 304 302 302 302 305 307 308 310 310 313 317 317 318 320 322 322 322
310 310 309 309 310 309 309 310 311 310 309 309 313 314 313 312 314 314 315 316 314 313 311 309 309 309 308 308 305 303 303 304 302 302 301 305 312 315 314 314 317 321 322
311 308 307 307 307 307 307 307 308 308 310 308 309 310 310 310 311 311 312 312 313 313 314 312 309 309 309 308 305 304 303 302 301 300 300 300 304 309 312 311 310 312 317
308 306 306 306 305 306 305 307 306 306 307 308 308 308 306 304 307 308 309 309 309 311 312 312 311 310 309 307 305 304 303 302 300 300 300 301 301 304 312 311 309 308 310
305 304 304 303 304 303 304 305 305 304 306 305 304 303 302 301 301 301 304 301 302 303 305 308 307 308 305 304 303 303 303 303 302 300 299 304 305 303 305 311 311 309 307
303 303 302 302 303 303 303 304 304 304 302 302 301 301 300 300 299 298 299 298 299 299 302 301 305 304 304 304 303 303 303 301 301 299 300 303 304 306 304 308 309 311 312
302 301 302 301 302 301 301 300 299 302 301 300 299 299 298 298 297 297 296 296 297 297 297 299 300 301 302 302 302 302 302 302 301 300 299 301 302 303 303 307 309 310 310
301 300 301 300 300 299 298 298 298 299 298 298 298 297 296 296 296 296 296 295 295 295 297 299 299 299 300 302 301 301 300 298 298 298 298 297 298 300 302 305 307 309 310
301 300 299 299 298 298 298 297 297 296 296 296 296 296 296 295 295 295 296 296 296 296 295 295 297 297 298 298 300 300 300 299 298 298 296 296 297 298 297 298 301 303 305
298 299 299 298 298 297 296 295 295 295 295 295 295 295 294 295 295 294 294 294 295 295 295 295 295 295 294 296 297 299 299 299 298 297 296 296 296 296 296 295 294 294 295
297 297 296 295 295 295 295 293 292 292 293 292 293 293 293 293 293 293 293 293 293 293 293 293 294 294 294 294 296 295 296 296 296 296 295 295 294 294 294 293 294 294 293
296 295 295 294 294 294 293 293 293 293 293 293 292 292 292 292 292 291 291 291 291 292 292 291 292 292 292 292 292 293 294 296 296 296 296 295 294 294 293 293 292 292 291
294 293 292 291 290 290 290 290 290 290 289 288 288 289 290 290 290 290 290 290 290 290 289 290 290 290 290 291 291 291 292 293 294 294 294 294 293 293 293 292 292 292 292
291 291 290 290 290 289 289 289 288 288 287 286 286 286 286 288 289 289 289 289 288 288 287 287 288 288 289 290 290 290 291 291 291 292 293 293 293 293 292 292 292 292 292
290 289 289 289 289 289 288 286 285 285 285 285 284 284 285 286 287 287 288 287 287 286 286 286 286 287 288 289 290 290 291 291 291 292 292 292 292 292 292 292 292 291 291
289 289 289 289 289 288 287 285 285 284 283 283 283 283 284 285 286 287 286 286 285 284 284 284 284 285 285 286 287 287 288 289 288 290 290 290 290 291 291 292 293 293 292
289 289 289 289 288 288 286 285 284 282 281 281 282 282 283 284 284 285 285 284 284 285 285 284 284 284 284 284 284 285 286 287 287 288 288 288 289 289 289 290 291 290 290
289 289 290 288 288 287 286 285 283 282 281 281 281 281 282 282 283 283 283 282 283 283 283 283 284 284 284 284 284 285 286 286 286 286 287 287 288 288 288 288 289 289 289
289 290 289 288 287 286 285 285 283 281 281 280 280 281 282 282 282 282 282 282 282 282 283 283 283 284 284 284 284 284 284 284 285 286 287 287 287 287 287 287 288 288 287
289 289 288 287 286 285 285 284 282 281 280 280 280 280 280 281 281 281 281 282 282 283 283 282 282 282 282 282 283 284 285 284 283 284 284 286 286 287 287 287 287 287 287

GFSMA_925_thetae_003.txt.gz
Theta_e
322 321 320 319 319 319 318 318 317 317 318 318 318 316 311 311 310 309 309 310 312 313 312 310 307 312 319 321 322 322 323 324 325 326 325 328 328 327 327 326 326 327 325
322 321 320 319 319 320 320 319 318 318 319 319 319 318 316 313 312 311 310 310 312 313 312 311 308 308 317 320 319 319 320 322 323 324 325 327 326 327 327 326 325 327 326
321 321 320 320 318 318 319 318 318 318 319 318 319 319 318 317 314 312 311 310 310 312 311 310 309 307 306 318 320 315 316 319 320 323 324 325 327 328 327 326 325 325 327
318 317 316 314 317 317 317 317 316 318 319 319 319 319 319 318 316 315 312 311 310 310 311 310 309 308 305 305 316 317 310 312 317 319 321 323 324 326 327 326 325 326 326
315 314 313 313 313 314 313 314 315 313 312 311 311 313 316 317 318 318 317 314 312 310 310 310 309 308 307 303 305 314 314 313 309 313 318 320 321 323 325 326 326 326 326
313 313 311 312 312 311 311 311 310 311 311 311 311 310 315 314 317 315 317 317 316 314 311 310 309 309 308 305 303 311 313 313 314 312 311 315 318 319 321 323 325 326 325
312 312 311 311 310 310 308 308 308 306 307 308 308 310 310 309 311 311 313 315 316 315 313 311 310 309 308 307 304 303 310 311 312 313 314 312 313 316 318 319 322 323 324
312 310 309 308 307 307 306 306 305 308 307 307 308 309 308 310 310 311 311 311 309 310 311 313 310 309 309 308 306 304 303 309 310 311 312 309 308 315 315 316 317 319 321
308 307 306 305 305 307 306 304 305 305 306 306 308 308 306 306 305 308 307 306 305 304 303 306 310 309 309 308 307 305 304 304 306 309 310 308 305 307 311 312 312 312 314
305 304 304 303 303 304 304 304 303 305 306 306 306 306 303 302 302 301 302 300 301 299 299 300 302 306 307 308 307 307 307 303 304 304 301 306 308 311 311 312 310 309 309
301 302 302 302 302 303 303 302 302 302 303 303 302 302 302 301 300 300 299 298 298 298 298 298 298 300 305 304 305 304 305 303 303 301 301 300 305 308 309 313 312 308 307
301 301 301 302 301 301 301 301 299 301 301 301 300 299 299 299 298 298 296 297 297 297 296 295 297 299 300 304 303 302 302 302 302 301 301 299 299 302 307 309 311 311 312
300 300 301 300 299 298 298 298 298 299 299 298 298 298 298 297 296 296 297 296 296 295 295 295 295 297 299 301 303 301 300 301 302 301 300 301 299 299 301 306 309 309 310
302 300 300 300 299 298 298 297 297 296 296 296 296 296 296 296 296 295 296 296 295 295 295 295 294 295 295 298 301 302 301 300 301 300 298 298 298 298 299 302 306 310 311
300 300 299 298 297 295 295 295 295 294 294 294 294 294 295 295 295 294 294 295 295 295 294 294 294 293 293 295 297 299 300 300 299 299 299 297 297 297 298 300 303 307 310
297 296 296 295 294 294 294 293 293 291 291 292 292 292 293 293 293 292 292 292 292 293 293 293 293 293 293 294 294 296 296 298 299 299 297 296 296 296 297 297 297 297 300
295 295 295 293 292 291 290 290 290 290 290 291 291 291 290 290 291 292 292 291 291 291 291 291 291 292 292 292 292 293 294 296 296 297 297 297 295 295 294 294 294 295 294
294 294 292 291 290 289 289 289 289 290 289 288 287 287 286 286 287 288 290 291 290 290 290 289 289 289 289 290 290 291 292 293 295 296 296 295 295 295 294 293 293 292 292
292 291 290 289 289 289 289 289 288 287 286 286 285 285 285 285 285 286 287 288 289 289 287 287 287 287 287 288 288 289 290 291 292 293 295 295 294 294 293 293 293 292 292
291 290 289 289 289 289 289 288 287 286 286 285 284 284 283 283 284 285 286 287 288 288 287 286 285 285 285 286 287 289 289 289 290 291 292 292 293 293 293 293 292 292 292
290 289 289 289 289 289 288 287 286 285 285 283 282 281 281 283 284 285 286 287 287 286 286 285 284 284 284 285 285 286 286 286 288 289 289 289 290 291 292 292 292 292 292
289 289 289 289 289 288 288 286 285 284 283 282 281 280 281 282 283 283 284 285 285 284 284 284 283 283 283 284 284 284 284 285 285 287 287 288 288 288 289 290 291 292 292
289 289 289 289 288 287 287 286 285 284 283 282 281 280 280 281 281 282 282 282 282 283 283 284 284 284 283 283 283 283 283 284 285 285 286 286 287 287 288 288 289 290 290
290 289 289 288 288 287 286 285 285 284 282 281 281 280 280 281 281 282 282 282 282 282 282 281 282 283 283 283 283 283 283 284 284 284 285 285 285 286 286 287 287 288 288
289 289 288 288 286 285 285 285 284 283 281 280 280 279 280 280 280 281 281 281 282 282 282 282 282 283 283 284 284 284 284 283 283 283 283 284 285 286 286 286 286 286 286
289 288 287 286 285 285 284 283 282 281 279 279 279 279 279 280 281 280 280 280 279 279 279 280 281 281 281 281 281 281 283 284 283 283 283 283 283 284 285 286 286 286 286

GFSMA_925_thetae_006.txt.gz
Theta_e
321 320 320 320 319 320 320 319 318 318 318 318 319 319 319 318 316 315 312 310 309 309 309 309 312 311 308 310 317 321 322 322 322 323 324 325 327 328 329 327 326 327 326
322 321 320 320 317 318 318 318 318 317 316 318 319 319 319 319 318 315 313 311 310 310 310 309 310 310 310 309 312 318 319 320 321 322 323 325 325 326 328 328 327 325 326
321 320 316 313 313 314 315 315 315 317 316 313 311 311 312 313 316 317 315 313 311 310 310 310 310 310 309 308 308 310 318 318 319 319 321 323 324 326 327 328 327 326 324
316 315 314 313 312 312 312 313 312 312 311 310 310 310 309 311 314 314 314 317 316 311 310 310 310 310 310 309 308 310 319 320 320 318 318 320 323 324 326 327 328 327 325
313 313 312 312 312 312 311 310 310 308 307 307 307 306 306 306 306 307 310 312 314 313 312 311 310 310 310 309 308 307 307 317 317 318 319 318 319 321 323 326 327 326 326
311 311 311 310 311 311 309 308 307 307 306 306 305 305 304 304 306 310 310 310 310 312 311 310 310 310 310 309 308 307 309 314 315 316 317 319 318 318 320 321 324 325 325
312 311 309 309 308 307 306 305 306 306 305 304 304 305 305 304 305 305 308 307 304 305 306 307 309 309 308 310 308 308 308 313 314 315 315 315 316 315 317 318 320 322 325
307 307 305 304 304 305 305 304 304 304 305 305 306 306 303 304 304 305 305 304 301 300 298 298 301 305 308 308 310 308 306 309 313 313 313 313 313 313 315 317 318 319 320
305 303 303 302 302 302 303 303 302 302 304 305 306 306 303 303 302 304 302 302 300 299 297 297 297 298 299 305 308 307 308 307 306 309 311 312 311 309 312 313 314 314 315
302 301 301 301 301 302 301 301 301 301 301 302 303 303 302 301 301 301 300 299 299 297 296 296 295 296 299 302 303 306 305 306 306 308 309 311 309 309 311 313 312 311 311
301 300 300 301 301 300 300 299 300 301 300 301 300 300 300 299 299 298 297 296 296 296 295 295 295 297 298 302 304 306 306 305 307 307 306 305 303 308 309 310 314 313 309
300 300 300 300 299 299 298 298 297 297 297 296 297 297 297 298 297 297 296 295 295 295 295 295 295 294 296 297 301 303 305 305 303 303 301 302 303 300 305 308 310 312 313
300 300 300 299 299 298 297 297 296 295 293 293 294 295 295 295 295 295 295 295 295 294 294 294 294 293 292 293 295 300 302 302 302 301 301 300 300 300 300 300 304 309 310
300 299 298 297 296 294 293 293 293 292 291 290 291 292 292 293 294 294 294 293 294 294 294 294 294 293 292 292 294 296 299 301 301 301 301 300 299 299 298 298 299 303 308
299 296 294 294 294 294 292 291 290 289 290 290 290 291 292 291 291 292 292 290 290 292 293 293 292 292 292 292 293 294 297 298 300 300 300 300 299 297 299 298 298 300 305
296 295 293 293 293 291 290 289 289 289 289 290 290 291 289 287 286 286 288 291 291 290 291 290 291 291 290 290 291 291 293 294 297 298 299 299 297 297 296 297 297 298 298
295 294 293 292 291 290 289 289 289 289 289 289 287 287 286 286 285 285 285 285 289 291 291 290 290 289 289 289 289 290 292 293 294 295 295 298 297 296 295 294 294 295 296
294 293 291 290 289 289 289 289 288 288 288 287 286 285 285 285 284 284 284 284 286 287 289 289 288 287 288 287 287 288 290 291 292 293 294 295 296 294 295 294 293 293 293
293 294 290 289 289 288 288 288 288 287 286 285 285 284 283 282 281 282 283 284 285 285 287 287 287 286 286 286 286 286 287 288 289 291 292 292 295 296 295 294 294 293 292
293 294 289 288 288 289 288 288 287 286 285 284 284 283 281 280 281 282 284 285 285 286 286 286 285 285 284 284 284 285 285 286 286 288 291 291 291 293 295 294 293 292 292
293 292 288 289 289 289 288 287 286 286 285 284 284 282 280 280 281 282 283 284 284 284 284 284 284 283 283 283 283 284 283 283 284 287 287 288 289 289 291 292 292 292 292
290 290 290 289 289 288 287 286 286 285 284 284 282 281 280 280 280 281 282 282 283 283 283 283 283 282 283 283 283 283 283 283 283 284 285 285 286 287 287 288 290 291 292
292 290 288 289 288 287 286 285 285 284 284 282 281 280 280 280 280 280 280 281 281 282 282 282 282 282 283 283 283 283 282 282 283 285 285 285 285 285 285 286 288 289 289
291 289 288 288 286 285 285 285 284 283 282 281 280 279 279 279 279 280 280 281 281 281 281 282 282 281 282 282 282 283 283 283 283 284 284 284 284 285 285 285 286 287 287
288 288 287 286 285 284 284 283 282 280 279 278 278 278 279 279 279 281 280 280 280 280 280 280 282 282 282 283 283 283 283 283 283 282 282 283 283 283 283 284 285 286 286
288 287 285 284 283 282 281 281 280 279 278 278 277 277 278 278 279 280 281 280 280 279 279 278 279 279 279 280 280 281 282 283 283 282 283 282 283 283 283 284 284 284 286

GFSMA_925_thetae_009.txt.gz
Theta_e
320 319 320 320 319 317 317 317 317 317 316 315 316 315 315 316 317 318 318 316 314 313 312 311 310 313 317 315 312 310 309 314 319 321 322 323 323 323 325 327 327 327 327
323 321 320 316 313 312 312 312 313 314 315 313 313 312 311 311 313 315 316 316 315 313 311 311 311 310 310 311 313 314 311 308 310 314 317 320 322 324 324 327 327 327 327
321 319 315 314 313 312 312 312 312 312 311 310 309 309 308 308 307 306 308 309 312 314 314 312 310 310 310 310 310 310 313 312 308 308 309 314 318 322 324 324 325 327 327
315 315 313 311 311 311 311 311 310 309 308 307 306 306 305 304 304 304 309 310 310 311 312 313 312 310 310 312 311 310 314 318 319 311 307 308 314 318 322 324 323 326 326
312 311 311 311 310 311 310 307 306 306 306 306 305 304 303 302 302 303 306 307 308 309 308 308 308 311 311 310 310 315 316 316 318 319 316 308 311 314 318 321 323 324 325
311 311 310 309 308 307 306 305 305 304 304 304 303 302 302 301 301 305 305 306 305 304 303 302 302 302 306 309 310 311 315 316 316 317 317 317 310 311 313 316 319 321 324
308 307 306 305 304 303 303 302 302 302 302 303 303 304 302 302 302 304 304 304 302 300 300 300 299 299 299 299 305 308 313 315 316 316 316 316 315 311 308 310 314 317 320
305 305 304 302 301 301 300 301 301 301 301 301 304 304 301 302 303 302 302 301 299 299 299 298 297 297 297 298 299 301 308 311 316 316 315 314 314 313 310 309 312 316 316
303 302 301 300 301 301 300 300 300 301 301 301 301 302 301 300 299 301 299 300 297 297 296 295 295 295 295 296 297 300 303 307 308 310 314 314 313 313 311 309 312 313 314
300 300 300 300 300 299 299 298 298 299 299 299 299 299 299 300 297 297 298 296 297 295 294 295 295 294 296 296 298 303 304 304 305 307 308 312 312 312 311 310 312 314 315
300 300 301 301 300 299 298 298 297 297 297 296 295 295 296 296 298 296 296 295 295 295 294 294 294 294 293 296 295 298 303 303 304 306 307 308 309 309 308 310 311 312 314
304 304 303 299 299 298 297 297 296 294 292 292 292 293 294 295 295 295 295 294 294 294 294 294 294 294 293 292 292 294 300 302 303 304 306 305 304 305 306 309 310 311 312
303 302 300 299 296 295 294 293 292 291 290 289 289 290 291 291 293 293 293 293 293 292 293 293 294 294 294 292 292 294 296 300 301 301 303 303 301 300 301 302 301 304 309
302 300 298 294 293 293 293 291 290 289 289 289 289 289 290 291 290 290 291 290 290 290 291 291 292 292 291 291 292 293 294 298 298 299 301 301 302 302 298 298 298 300 301
300 297 295 294 293 292 291 290 289 289 289 289 289 289 290 289 287 286 286 287 290 289 288 290 291 290 289 289 290 291 292 293 295 295 300 299 300 300 299 300 299 299 299
297 296 296 294 292 291 289 289 289 288 288 288 289 289 287 286 286 286 285 285 285 289 289 289 290 290 289 289 288 289 293 295 294 294 297 296 297 299 301 300 299 298 298
296 295 294 292 292 290 289 289 288 288 288 289 287 286 285 285 284 284 283 283 283 284 287 287 288 290 290 288 289 288 289 292 293 293 294 295 294 297 297 297 297 296 298
294 293 293 293 291 289 288 288 288 288 288 287 285 285 284 283 282 281 281 281 282 283 285 285 288 288 287 286 286 288 287 287 290 291 292 292 292 293 296 295 295 294 294
293 294 294 294 290 288 288 288 288 288 286 285 285 284 283 282 281 280 280 282 282 283 284 284 285 287 288 286 286 286 286 285 286 289 290 291 292 291 294 295 294 293 293
295 294 293 292 288 288 288 288 287 286 285 286 284 283 282 281 280 281 281 282 283 283 283 283 284 285 285 284 284 284 284 284 284 285 287 287 291 290 293 295 295 293 292
294 293 290 289 290 288 288 287 286 286 285 284 283 283 282 281 281 281 281 281 282 282 283 283 283 283 283 283 283 283 283 283 283 283 285 286 286 289 288 290 292 293 292
294 292 293 290 288 288 287 286 285 285 284 283 283 281 281 280 279 280 280 281 281 282 282 282 282 283 283 283 283 283 283 282 281 283 284 284 285 286 286 286 289 291 292
292 291 290 288 287 286 285 285 285 284 283 282 281 280 279 279 279 279 279 280 280 281 282 282 282 282 282 282 282 283 282 282 282 282 284 284 284 284 285 285 286 289 289
292 291 288 287 286 285 284 284 283 281 280 279 278 277 278 278 278 279 280 280 280 280 280 280 281 281 281 281 281 282 282 282 282 283 283 283 283 283 283 284 285 285 287
290 287 286 286 284 283 282 281 280 279 278 277 277 277 278 278 278 279 280 280 281 280 280 280 280 280 281 282 282 282 282 282 282 282 283 282 283 283 283 283 283 285 285
287 287 286 284 282 281 280 280 279 278 277 277 277 277 277 278 279 279 279 279 279 279 279 279 279 279 279 279 280 281 281 282 283 282 283 282 282 283 283 284 284 283 284

GFSMA_925_thetae_012.txt.gz
Theta_e
322 319 320 319 318 315 314 314 313 313 313 313 313 312 310 309 309 310 312 313 314 315 315 315 314 313 316 319 320 316 313 312 310 309 310 315 320 321 322 323 325 326 326
323 320 320 316 312 312 312 311 311 311 311 310 310 308 307 305 304 304 306 307 309 310 313 315 315 314 313 311 312 319 319 314 312 310 309 309 311 317 321 323 324 326 327
321 318 313 311 311 311 311 311 310 309 307 306 306 305 305 304 303 302 303 306 308 309 309 310 312 313 314 312 311 313 318 319 317 313 314 312 311 311 316 321 324 324 325
313 312 311 311 310 310 310 308 306 306 306 304 304 303 303 302 302 301 305 305 305 306 307 307 307 309 311 312 312 312 315 317 318 317 316 314 312 310 311 316 321 323 323
311 311 311 310 309 308 306 305 303 303 302 302 301 301 301 300 300 304 304 304 304 303 303 302 302 302 302 304 305 309 312 315 317 317 318 318 314 311 309 310 314 320 322
311 310 307 306 305 304 303 302 301 300 300 300 299 299 297 300 302 303 303 302 302 301 301 300 299 299 299 300 300 302 307 313 316 318 317 317 317 314 311 310 309 312 318
307 306 304 303 301 301 300 300 299 299 299 300 300 298 298 302 300 300 298 301 300 299 298 297 296 295 296 297 297 298 300 305 310 315 318 316 316 316 313 311 309 308 309
303 302 301 300 300 300 299 298 297 297 298 300 301 301 299 299 301 297 299 297 298 296 296 295 294 294 295 295 296 296 297 298 300 307 310 316 316 316 315 313 311 310 309
301 300 301 303 301 299 299 298 297 297 298 298 300 299 298 297 298 298 297 297 296 295 295 294 293 294 294 294 295 296 296 298 299 301 305 308 312 315 315 313 311 310 310
302 302 303 304 302 300 298 298 297 297 297 297 297 298 296 297 297 296 296 296 295 295 294 293 294 294 293 294 293 294 295 297 301 303 304 304 309 311 314 313 310 308 313
303 302 302 302 300 298 297 297 296 295 294 292 293 293 293 294 295 296 294 293 293 293 293 292 292 294 294 294 293 292 294 296 299 302 304 304 307 310 311 310 310 310 311
303 302 302 300 298 296 295 293 292 291 290 289 289 290 291 292 292 292 292 291 292 291 290 291 292 292 293 293 292 291 293 295 298 301 302 303 306 307 308 309 310 310 311
302 301 300 298 295 293 292 292 290 289 289 289 288 288 289 290 291 291 291 290 290 288 290 288 288 289 291 290 290 292 293 295 296 300 301 301 301 301 303 303 305 306 309
301 300 299 295 293 296 293 290 290 289 288 288 288 288 289 289 289 288 288 289 287 287 287 287 287 286 289 289 290 288 291 295 297 297 299 300 300 301 301 300 299 299 300
301 299 296 294 296 292 291 290 290 289 288 288 288 288 289 289 288 286 286 285 286 286 285 286 287 287 286 289 290 289 289 294 294 293 294 296 299 300 300 300 299 299 298
298 297 295 296 293 292 292 290 289 288 288 288 288 288 288 286 285 285 284 283 282 283 284 285 285 286 285 286 289 289 288 291 294 293 294 294 295 297 299 300 299 300 300
297 296 295 295 293 293 291 290 289 288 288 288 288 287 286 285 284 283 282 281 281 281 282 282 283 284 284 286 289 288 289 288 290 293 292 292 292 294 297 298 298 298 300
296 296 294 293 293 294 291 289 288 288 288 288 287 285 285 284 283 282 281 280 280 281 281 282 283 284 284 288 287 287 287 289 287 289 291 291 291 292 294 297 296 296 297
294 293 293 294 293 291 288 288 288 288 287 286 285 285 284 283 282 281 280 280 280 281 282 283 283 283 284 285 287 287 287 285 287 286 288 288 290 291 292 296 296 295 295
294 293 294 293 290 288 289 288 288 287 286 286 285 283 283 282 281 281 281 280 280 281 281 282 283 283 283 285 285 284 284 285 284 284 285 286 288 289 291 293 293 295 294
294 294 293 291 290 289 289 287 286 286 285 284 284 283 282 281 282 281 280 280 280 280 281 282 282 282 283 283 282 283 283 283 283 283 283 284 286 287 288 291 291 294 293
293 292 291 290 289 288 287 286 285 285 284 283 281 280 279 279 279 279 279 279 280 280 280 281 281 282 282 282 282 282 282 282 282 282 283 283 284 285 286 287 290 292 292
292 292 292 289 287 286 285 284 284 283 282 280 278 278 277 278 278 278 278 279 280 280 280 281 281 281 282 282 282 281 282 282 282 282 282 282 283 283 284 285 288 289 290
292 291 289 286 286 285 283 282 281 280 279 278 277 277 277 277 278 278 279 280 279 280 280 280 280 280 280 281 281 281 281 281 282 282 282 283 283 283 283 283 284 287 288
289 287 286 286 285 283 281 280 280 279 278 277 277 277 277 277 278 279 279 279 279 279 279 280 280 280 280 280 280 282 281 281 281 281 281 282 282 282 283 283 283 284 285
287 287 286 285 283 282 281 279 279 278 277 277 277 277 276 277 278 279 279 278 278 279 279 279 279 279 279 279 279 279 280 281 282 281 282 282 282 282 282 283 283 283 283

GFSMA_925_thetae_018.txt.gz
Theta_e
328 324 324 322 320 318 317 317 317 315 314 313 313 312 311 311 311 311 311 310 305 304 304 306 308 309 312 313 314 316 317 318 321 322 314 312 312 311 311 318 322 323 324
323 325 322 319 318 317 316 315 314 312 312 311 311 311 310 309 309 310 310 310 307 304 303 303 303 304 305 308 309 311 313 316 318 320 322 316 314 313 311 310 314 321 323
321 319 318 317 316 315 314 313 312 311 311 310 310 309 309 309 308 308 309 308 307 306 304 303 303 303 303 303 305 307 309 311 313 316 319 320 318 314 312 310 310 313 319
315 314 316 315 313 312 311 311 310 309 309 308 307 307 307 306 305 307 308 307 306 306 305 303 301 300 300 300 303 303 305 307 309 311 314 318 319 319 314 313 310 309 314
313 314 313 311 310 309 309 308 308 307 307 306 306 305 305 305 305 306 307 306 305 304 303 302 300 299 298 299 300 301 302 303 305 308 310 311 315 320 319 315 314 309 309
310 310 310 309 308 307 307 307 307 307 306 306 305 304 304 303 303 304 306 304 302 302 301 300 299 299 298 297 298 299 301 301 303 305 307 308 310 313 319 319 316 313 310
308 308 307 307 307 307 307 306 306 305 304 304 303 302 301 301 303 303 302 301 302 301 299 299 299 298 297 297 297 298 298 299 300 300 302 305 307 309 311 318 318 316 313
306 306 307 307 306 306 305 306 304 303 302 303 302 302 303 301 300 301 300 299 299 299 299 298 297 296 296 296 296 297 297 298 298 298 299 300 304 307 309 311 317 317 315
306 306 306 305 304 303 302 304 303 302 302 301 299 299 302 301 298 297 298 297 297 297 296 295 295 294 294 295 295 296 296 295 295 296 297 299 301 304 307 309 312 316 316
306 305 304 303 303 302 302 302 300 299 298 298 297 297 297 297 298 298 296 296 294 294 293 293 293 292 293 292 292 294 294 293 292 294 295 297 300 303 305 308 309 314 315
305 304 303 302 302 302 302 301 299 297 297 297 297 295 294 294 293 294 295 294 293 292 291 291 291 291 291 291 290 292 292 291 292 290 292 296 299 302 304 307 309 311 313
300 300 301 302 302 302 301 299 297 297 297 295 293 292 292 292 292 292 293 292 292 291 291 291 290 290 290 290 289 289 291 291 290 291 291 296 299 301 303 305 309 311 311
297 297 298 299 301 301 299 297 297 297 294 293 292 292 291 291 291 291 291 291 292 291 290 290 290 290 289 289 289 289 289 288 290 291 293 295 296 299 301 302 304 308 311
296 296 297 299 300 299 298 296 297 296 294 293 292 292 291 291 290 290 290 291 292 291 290 289 289 289 288 288 287 287 287 288 290 291 291 295 296 297 298 300 301 302 304
295 296 298 299 299 299 298 297 296 295 294 293 292 292 291 291 290 290 290 289 290 291 291 288 288 287 287 286 286 286 286 288 288 290 290 294 293 293 295 296 299 300 299
295 295 296 298 298 298 298 296 295 295 293 292 291 291 291 290 290 289 289 289 288 288 291 287 287 286 286 286 286 286 287 287 287 289 289 292 292 292 291 293 295 298 299
294 294 295 296 297 297 296 295 295 295 293 291 291 290 291 289 289 288 288 288 287 287 287 286 285 285 285 285 286 286 287 287 288 290 289 288 288 290 291 291 292 294 298
294 294 294 294 295 295 294 295 295 293 291 291 290 290 290 288 288 288 287 287 286 286 285 285 285 284 284 284 285 285 286 287 288 290 290 289 289 288 289 290 291 292 295
294 294 294 294 294 294 294 294 292 291 291 290 290 289 288 288 287 287 286 285 285 284 284 284 284 283 283 284 284 285 285 287 288 289 288 287 287 287 287 288 290 292 295
293 293 294 294 294 292 291 291 290 290 290 289 289 288 287 286 285 284 283 283 283 283 283 283 283 283 284 284 284 284 286 286 288 288 288 286 286 286 286 288 290 291 294
293 293 293 293 293 292 291 290 290 289 289 288 287 286 284 283 281 280 280 281 281 281 282 282 283 283 284 284 284 284 284 285 286 288 288 287 287 288 289 289 291 290 292
292 293 293 293 293 292 288 286 286 288 287 286 285 284 283 282 282 280 280 280 280 280 281 282 283 283 283 283 283 283 284 285 286 286 287 287 287 287 287 288 288 288 290
292 292 292 293 292 290 286 285 284 286 286 284 283 283 282 282 281 281 280 280 281 281 281 281 281 282 282 283 283 283 283 284 284 284 285 286 286 286 287 287 286 287 290
292 292 291 291 290 288 284 283 283 285 284 283 282 282 282 281 281 279 280 280 281 281 280 280 280 281 281 282 282 282 282 282 283 283 284 285 285 286 286 287 286 285 288
291 291 290 290 290 288 284 283 283 284 283 283 282 281 280 280 279 278 279 279 280 280 280 280 279 279 280 280 280 281 281 282 283 284 284 284 284 285 285 286 287 286 285
290 289 289 289 288 287 283 282 282 283 283 282 282 281 279 279 278 278 278 278 279 279 279 279 279 280 280 281 281 281 281 282 283 284 284 284 284 285 286 286 286 287 286

GFSMA_925_thetae_021.txt.gz
Theta_e
330 324 325 324 323 322 321 320 319 318 315 315 314 314 313 312 312 311 312 311 310 309 304 306 310 311 311 310 309 311 313 315 317 318 320 323 320 316 313 310 311 319 323
320 320 319 324 322 321 319 318 316 315 315 314 313 312 312 311 311 311 310 311 310 308 306 304 303 304 307 308 308 308 309 311 312 314 316 318 320 321 318 314 311 309 316
322 324 322 321 319 317 316 315 314 313 312 312 311 310 309 309 309 308 308 309 310 308 306 305 303 302 302 303 304 305 306 307 308 310 312 314 315 318 320 320 315 312 309
320 319 319 318 316 314 313 313 312 311 310 310 309 309 308 307 307 307 306 307 309 309 306 305 302 300 301 301 301 302 303 305 305 306 308 310 312 313 316 320 320 316 313
317 317 316 315 313 312 312 311 311 310 310 310 308 307 306 305 306 305 305 306 309 307 305 303 302 300 300 300 300 301 301 303 303 304 306 307 308 310 311 314 319 320 317
314 314 313 312 311 311 311 311 310 310 309 307 305 305 304 304 303 303 305 307 305 303 304 302 301 301 299 299 298 299 300 301 302 302 302 302 303 305 308 310 312 318 320
311 311 311 311 311 310 310 309 309 308 304 303 304 304 303 303 303 303 302 303 303 302 302 301 301 300 299 297 298 298 298 300 301 300 300 300 300 301 303 306 309 312 317
311 310 310 310 309 308 307 305 305 305 303 302 303 303 302 301 301 301 300 300 300 300 299 299 298 297 297 296 296 296 297 298 297 297 297 298 298 300 301 303 306 309 311
310 309 308 308 306 305 303 303 304 304 302 301 301 301 301 301 300 299 298 298 298 298 298 296 296 295 295 294 294 294 293 294 294 294 295 296 297 298 300 302 304 307 309
309 308 306 305 304 303 303 303 302 302 300 300 300 299 299 299 299 298 296 295 296 295 295 294 294 293 293 293 293 292 292 290 290 292 293 294 296 297 298 300 303 304 307
303 302 301 302 304 303 303 302 302 301 299 300 299 298 297 296 295 295 295 294 294 294 293 293 293 293 292 292 292 292 291 290 290 290 290 293 295 297 298 300 302 304 307
299 299 299 299 300 301 302 302 301 300 300 299 296 296 295 294 294 294 294 294 294 293 293 292 292 292 292 291 291 291 290 290 289 289 289 292 293 297 298 299 301 304 305
298 298 298 299 299 300 301 300 300 299 299 297 295 295 294 293 293 293 293 293 293 292 292 292 291 291 291 290 290 289 288 288 287 288 290 291 292 295 297 298 300 302 304
297 297 297 298 300 300 300 300 298 299 298 296 295 294 294 293 293 292 292 292 293 292 291 291 291 290 290 289 288 288 288 288 287 287 289 289 291 293 294 295 296 298 301
296 296 297 297 298 299 299 300 299 299 297 296 296 295 294 293 292 292 291 291 291 293 292 290 290 289 289 288 288 288 287 288 288 288 287 288 290 290 293 292 292 293 297
296 296 296 296 296 297 298 298 298 297 296 296 295 294 293 293 292 291 290 290 290 290 292 289 289 288 287 287 287 287 287 288 287 288 288 287 289 290 292 291 291 291 292
296 295 295 295 296 296 296 296 296 296 296 295 295 293 293 292 292 291 290 289 289 289 290 289 288 287 287 286 286 286 286 286 287 288 288 289 289 289 288 288 290 290 292
295 295 295 295 295 295 295 295 295 295 295 294 293 292 292 291 290 289 289 288 288 288 288 288 286 286 286 285 285 285 286 286 287 287 288 290 289 289 289 288 288 288 290
295 294 295 295 295 295 295 294 293 293 293 292 292 291 291 290 289 288 287 287 286 286 286 285 285 285 285 285 285 285 285 286 286 287 288 289 288 288 288 288 287 288 289
295 294 294 294 294 294 294 293 293 292 292 291 291 290 290 288 286 285 284 284 284 284 284 283 284 284 284 284 285 285 285 285 286 287 287 289 288 288 287 286 286 289 290
295 294 294 294 294 294 293 293 292 292 291 290 290 289 287 285 283 282 282 282 282 282 282 282 283 283 284 284 285 284 285 285 285 286 287 288 289 288 288 289 289 290 290
294 294 294 293 294 294 291 290 287 289 289 289 288 287 286 285 284 282 282 281 281 281 282 282 283 282 282 283 284 284 284 284 285 285 286 287 287 289 288 288 289 288 287
294 294 293 293 293 292 290 287 286 286 288 287 286 285 285 284 284 283 282 281 281 281 282 282 282 282 283 282 282 283 283 284 284 284 285 286 286 287 287 288 287 286 286
294 293 293 292 292 291 289 286 284 285 287 286 285 285 284 284 282 281 280 280 281 281 281 281 281 281 281 280 280 281 281 282 283 283 284 285 285 285 286 287 287 287 286
294 293 292 292 291 290 289 286 284 286 286 285 285 284 283 282 281 279 279 279 280 280 281 280 280 280 280 280 280 281 281 282 283 283 284 285 285 285 286 286 287 287 287
293 292 291 291 290 290 288 286 284 285 285 285 284 284 283 280 279 278 278 278 279 280 278 278 279 280 281 282 282 281 282 283 283 283 284 285 286 285 286 286 286 287 287

GFSMA_925_thetae_024.txt.gz
Theta_e
328 323 321 319 323 322 321 319 318 316 315 315 314 313 312 312 311 311 311 311 311 310 307 306 306 308 309 309 309 309 309 310 311 313 315 316 318 320 320 319 316 313 310
321 319 321 323 321 321 318 316 315 314 313 312 312 311 310 310 309 309 309 309 309 309 306 305 306 306 305 305 304 305 306 307 308 309 310 311 314 315 317 319 320 318 315
322 323 323 320 319 318 315 314 313 312 311 311 310 310 309 309 307 307 308 307 308 309 307 306 303 302 303 302 303 303 304 304 306 306 307 309 310 311 313 314 318 320 319
323 320 320 318 317 314 313 313 312 311 311 311 311 309 309 307 306 305 306 304 306 309 308 306 303 301 301 301 301 302 302 303 303 305 305 306 306 306 308 310 312 315 319
318 317 316 315 312 312 312 312 312 311 311 310 308 306 306 305 305 304 303 303 304 308 306 305 303 302 301 301 300 300 301 302 303 303 303 303 303 303 304 305 307 310 313
315 315 314 312 312 312 311 310 310 309 309 306 304 303 305 304 303 302 304 304 304 303 302 302 301 301 300 299 299 299 300 300 301 302 301 300 300 301 301 302 303 305 309
312 311 312 311 311 310 309 307 306 306 306 304 303 304 303 302 301 300 300 299 299 300 300 300 299 298 297 297 297 297 297 299 299 298 298 297 297 298 299 300 301 303 305
311 311 310 310 309 308 306 304 303 304 305 303 302 301 301 301 301 300 299 299 298 297 299 298 298 296 295 295 294 295 295 294 295 295 295 295 295 296 298 299 300 301 304
311 310 309 307 306 305 304 304 303 303 303 301 301 301 300 299 300 299 298 297 296 296 295 296 295 295 294 293 293 293 293 292 292 292 292 293 293 294 296 298 299 300 302
309 306 304 303 304 305 305 304 303 303 302 301 300 300 299 298 296 296 296 295 294 294 294 294 293 293 293 293 292 293 292 292 290 291 291 291 292 292 294 296 299 299 301
301 300 300 299 299 299 301 303 303 302 301 300 300 299 297 297 296 295 293 294 293 293 293 293 293 292 292 292 292 292 291 290 290 290 290 290 291 291 293 295 297 299 300
299 299 299 299 299 300 300 302 302 301 300 300 300 297 296 296 295 294 292 293 293 293 293 292 292 292 292 291 291 290 290 289 288 289 289 289 289 291 292 293 297 298 300
299 298 298 298 298 300 300 301 301 301 300 299 298 297 295 295 294 294 294 293 293 293 292 292 291 291 291 290 290 289 289 288 288 288 288 289 289 289 291 292 295 296 297
298 297 297 297 297 298 299 300 300 299 299 299 298 296 296 295 294 294 293 292 291 291 291 291 291 290 290 289 289 288 288 288 288 288 288 288 289 289 289 291 292 294 295
297 297 297 296 296 296 297 299 298 299 299 298 297 296 296 295 294 293 293 292 292 290 290 290 290 290 289 289 288 287 287 287 287 287 287 287 288 289 289 290 292 293 293
297 297 296 296 296 296 296 296 298 297 296 297 296 296 295 294 293 293 292 291 290 290 289 290 289 289 288 287 287 286 286 286 286 286 286 287 287 288 289 290 290 290 290
297 296 296 295 295 296 296 296 296 296 296 295 295 295 294 293 292 291 291 290 289 289 288 288 287 287 286 286 285 285 285 285 286 286 287 287 287 288 290 289 289 288 288
296 296 295 295 295 295 295 295 295 294 294 294 293 293 292 292 291 290 289 288 287 286 286 286 286 285 285 285 285 285 285 285 286 286 286 287 288 289 289 289 289 289 289
296 296 295 295 295 295 295 295 294 293 293 292 292 292 291 290 289 288 286 285 284 284 284 284 283 284 284 284 284 284 285 285 285 286 286 286 287 287 289 288 288 288 286
296 296 295 294 294 294 294 294 293 293 292 292 292 291 290 289 287 285 284 283 283 282 282 282 282 283 283 283 283 284 284 284 284 285 285 286 286 287 288 287 288 287 287
296 295 295 294 294 294 294 293 292 291 291 291 290 289 288 286 285 284 283 282 282 282 281 281 282 282 283 283 282 283 284 283 284 284 285 285 286 286 288 288 288 287 289
295 295 294 294 294 294 293 292 289 288 288 289 288 287 286 285 284 284 283 283 281 281 281 281 282 282 282 283 282 282 282 282 283 283 284 284 284 286 286 288 288 289 287
295 295 295 294 293 293 292 291 288 288 287 288 287 286 285 285 284 283 282 282 280 281 281 281 282 282 282 281 281 280 280 280 281 282 283 283 283 284 285 286 287 288 287
294 294 294 293 293 292 291 290 288 287 287 287 286 285 285 284 283 282 281 279 280 280 280 281 280 279 280 280 280 280 280 280 281 281 282 283 284 284 284 285 286 287 287
293 294 293 293 292 291 290 290 287 285 286 286 286 285 285 283 282 281 280 278 278 279 279 279 278 279 280 280 281 281 281 281 281 282 282 283 283 285 285 285 285 285 287
294 293 293 291 291 290 290 289 287 285 285 285 285 284 284 282 281 280 278 278 278 278 278 277 278 280 280 281 282 283 283 282 282 282 283 283 284 284 285 286 286 287 287

GFSMA_925_thetae_027.txt.gz
Theta_e
327 323 320 319 321 320 320 318 315 314 314 312 311 310 310 309 309 307 309 309 309 308 309 311 310 309 307 306 305 305 306 307 308 309 309 310 312 313 314 315 317 320 320
324 319 320 323 320 320 317 315 313 312 311 311 310 310 310 309 308 307 305 307 307 308 308 307 306 306 305 305 304 304 305 305 305 306 307 308 308 308 309 310 312 314 317
322 322 321 319 319 315 313 313 312 311 311 311 310 310 308 308 307 306 305 303 303 307 308 305 304 305 303 303 303 303 303 303 304 305 305 305 305 305 306 306 307 309 312
323 320 320 318 316 313 312 312 311 311 311 310 309 307 305 304 304 304 304 302 303 305 308 304 302 302 302 302 302 302 302 303 303 303 304 304 303 302 303 303 304 305 307
317 317 316 316 311 311 312 311 311 309 308 308 305 303 302 304 303 303 301 302 302 302 306 304 301 301 301 301 301 301 301 301 301 303 303 301 300 300 300 301 302 303 304
315 314 313 311 312 311 310 309 307 306 305 305 304 303 303 302 301 301 300 299 298 298 300 300 299 299 299 298 298 298 299 299 300 300 300 299 298 298 298 299 300 301 302
312 311 311 311 310 309 308 306 304 303 303 304 303 300 300 300 300 300 299 298 297 296 296 296 296 296 296 296 295 296 296 298 296 296 296 296 295 295 295 296 298 299 301
311 310 310 310 309 308 305 304 304 303 303 303 301 300 298 299 299 299 298 298 296 294 294 294 294 295 294 294 293 293 293 293 294 293 293 294 294 294 294 295 296 297 299
311 310 308 307 306 305 305 304 303 304 302 302 301 300 297 297 296 297 296 296 294 293 293 293 293 293 293 292 292 292 293 292 293 293 293 293 293 293 293 293 294 296 298
308 303 301 300 300 300 300 302 303 302 302 301 300 299 299 297 294 293 295 294 293 293 292 292 292 292 292 292 292 292 291 291 290 291 291 291 291 292 292 292 293 294 296
302 301 300 299 299 298 299 299 301 302 302 300 300 300 299 296 296 293 290 292 293 293 293 293 292 291 291 291 291 290 289 290 289 289 290 290 290 291 291 291 292 293 294
299 299 298 298 297 298 299 300 301 301 301 300 300 298 297 295 294 293 290 291 292 293 292 292 292 291 291 291 290 289 289 289 288 289 289 289 290 290 290 290 291 293 293
298 298 297 297 297 297 298 299 300 300 299 299 299 298 297 296 295 294 293 292 291 292 291 291 290 290 291 290 289 289 288 288 288 288 288 288 289 289 289 289 290 291 292
298 297 296 296 296 296 296 296 298 297 298 299 298 298 296 296 296 294 293 292 288 290 290 290 290 290 290 289 289 288 287 287 287 287 288 287 287 288 288 289 290 290 291
297 297 296 296 296 296 296 295 296 298 299 298 297 297 296 296 295 294 293 293 291 287 288 289 289 289 288 287 287 287 286 285 285 286 285 286 287 287 288 289 289 290 290
297 296 296 296 295 295 295 296 296 296 296 295 295 295 296 295 294 293 292 291 290 289 286 287 286 286 286 286 285 285 284 285 284 284 285 286 286 286 288 288 289 290 290
297 296 296 295 295 295 295 295 295 295 294 294 294 294 294 293 292 291 290 289 287 285 284 284 284 284 284 283 283 284 284 284 285 285 285 285 286 286 287 288 288 290 290
297 296 296 295 295 295 295 295 295 295 293 293 293 292 292 291 290 289 288 287 285 284 283 282 282 282 282 283 283 282 283 284 283 284 285 284 286 286 286 286 287 288 289
297 296 296 295 294 294 294 295 294 294 293 292 292 292 291 290 289 288 286 285 284 283 282 282 281 281 281 281 282 282 283 283 283 283 283 284 284 285 286 287 287 289 289
297 296 296 295 294 294 294 294 294 293 292 292 291 290 289 288 286 285 285 284 283 282 282 281 281 280 281 281 282 282 282 282 282 281 282 284 284 284 284 285 287 288 288
296 296 295 295 294 294 294 294 294 292 290 289 289 288 287 286 285 285 283 283 282 282 281 281 280 281 281 281 281 282 281 281 280 280 281 283 282 283 283 285 287 288 288
295 295 295 294 294 293 293 293 293 289 288 288 288 287 286 285 284 284 283 282 282 281 281 281 281 281 281 281 281 280 280 279 279 280 280 280 281 282 283 284 285 286 287
294 295 294 294 294 293 293 292 291 288 287 287 287 286 285 285 284 283 283 282 281 278 280 280 280 279 278 279 279 279 280 280 280 280 280 281 281 282 282 283 284 284 287
293 293 293 294 293 293 292 292 290 288 286 287 286 286 285 284 284 283 282 281 279 277 278 279 279 278 278 279 280 281 281 281 281 281 281 281 282 282 283 283 285 284 285
293 293 293 293 293 292 291 290 289 287 286 286 286 285 284 284 283 282 281 280 278 277 278 278 278 279 279 280 281 282 282 282 281 281 281 281 282 283 283 285 285 285 285
293 293 293 292 292 291 290 290 289 288 286 285 285 284 284 283 282 282 281 279 277 278 278 278 278 278 279 280 280 280 281 281 282 282 283 283 283 283 283 285 284 285 286

GFSMA_925_thetae_030.txt.gz
Theta_e
324 321 320 320 320 320 319 317 315 314 313 312 311 310 309 309 308 307 305 306 309 309 311 312 312 310 308 306 305 305 305 306 306 307 307 307 307 307 307 307 308 309 312
325 320 321 320 319 318 316 314 313 312 311 311 310 310 309 307 307 306 304 303 303 306 308 311 308 308 306 306 305 305 305 305 306 306 306 306 305 305 304 305 305 306 308
321 321 321 320 317 314 313 312 312 311 311 310 309 309 306 304 303 304 304 303 302 305 308 308 305 306 305 305 304 304 304 305 304 303 305 304 303 302 302 302 303 304 305
323 322 319 317 313 312 312 311 311 311 310 308 307 306 305 303 302 301 301 300 301 307 306 303 304 304 303 303 303 303 304 303 302 304 304 302 301 300 300 300 301 302 303
320 319 317 312 311 311 311 310 310 308 306 305 304 303 302 302 301 300 299 298 297 299 305 304 301 300 301 301 301 301 301 301 301 302 301 300 300 299 298 298 298 299 301
316 314 311 311 311 311 310 310 307 304 303 303 303 302 301 301 299 299 299 298 296 297 297 296 296 297 296 297 298 298 298 298 299 298 297 297 297 296 296 296 297 297 298
313 312 311 311 311 310 308 305 303 303 302 303 303 302 301 300 299 298 298 297 296 294 294 294 293 295 294 294 294 295 295 295 296 295 295 295 295 295 295 295 295 296 297
311 311 310 310 308 306 304 304 304 303 303 302 301 299 296 298 298 298 297 296 294 294 293 293 293 293 293 292 292 293 294 294 294 294 294 294 293 294 294 294 294 294 295
311 310 309 307 306 305 304 304 304 303 303 302 301 300 296 295 295 297 296 294 294 294 293 292 292 292 292 292 292 292 291 292 292 293 293 293 293 293 293 293 293 293 294
309 308 306 303 301 299 298 299 300 301 302 302 300 299 299 297 293 292 294 294 293 293 293 292 292 292 291 291 291 291 290 289 290 290 291 291 292 292 292 292 292 292 292
305 302 300 299 298 297 297 298 299 300 302 301 300 299 299 298 296 293 290 292 293 293 293 292 292 291 291 290 290 290 289 289 289 290 290 290 291 291 291 291 291 291 292
299 298 298 298 297 296 297 298 299 300 300 300 299 299 298 296 294 293 289 290 291 292 292 292 291 290 290 289 290 289 289 289 288 289 289 289 289 289 289 289 290 291 291
298 298 297 296 296 296 296 296 298 299 298 298 298 298 298 297 295 294 293 291 290 291 291 291 291 290 289 289 289 289 288 287 287 287 288 288 288 288 288 288 289 289 290
297 297 296 296 296 295 295 295 295 295 297 299 298 298 297 297 296 295 294 292 291 289 290 290 290 289 288 288 287 287 286 286 286 286 286 286 286 286 287 288 289 289 290
297 297 296 296 295 295 295 295 295 296 297 296 295 295 295 296 296 295 294 293 291 288 287 289 288 287 286 285 286 285 285 284 285 285 285 286 286 287 287 287 288 289 289
297 297 296 296 295 295 295 295 295 295 295 294 294 294 294 295 295 294 292 291 289 288 287 286 285 284 283 283 282 283 283 283 282 283 285 285 286 286 287 287 288 288 289
299 298 296 296 295 295 294 295 295 295 295 294 293 293 294 293 293 291 291 289 287 286 284 284 283 282 281 281 281 281 281 282 283 283 283 285 285 284 286 286 286 287 287
299 297 296 296 295 295 294 294 294 295 294 293 292 292 292 292 291 290 289 287 286 284 283 282 282 282 281 281 281 281 282 282 282 282 283 283 283 284 285 285 285 286 287
297 297 296 296 296 295 294 294 294 294 293 292 292 291 291 290 289 288 286 285 284 283 282 282 281 281 280 281 281 281 282 281 282 281 281 281 281 284 285 285 285 286 286
297 297 296 296 295 295 294 294 294 293 292 292 291 290 289 288 287 286 285 283 283 282 282 281 281 280 280 280 281 281 281 281 280 279 279 280 281 282 281 282 283 285 286
297 296 295 295 295 294 294 294 294 293 292 290 289 288 287 286 285 285 283 283 283 282 281 280 280 280 280 280 280 280 280 280 279 279 280 280 280 280 280 281 282 284 285
294 294 294 295 295 294 294 293 293 293 291 288 288 287 286 286 285 284 284 283 281 280 279 279 280 279 279 278 278 278 279 279 279 280 280 280 281 281 281 281 282 283 284
294 294 294 294 294 294 293 293 292 292 289 287 287 287 286 285 284 284 283 282 281 281 278 277 278 279 278 278 279 279 279 280 280 281 280 280 281 281 282 282 282 283 284
293 293 293 292 293 293 293 292 291 290 288 287 287 286 286 285 284 283 282 282 282 281 277 278 278 278 278 279 280 280 281 281 281 281 281 280 281 281 282 282 284 285 285
292 292 293 293 293 293 292 292 291 290 288 287 286 286 285 284 284 283 281 282 281 279 278 278 278 278 278 279 280 280 280 280 280 281 281 281 281 282 283 282 284 284 284
292 292 292 292 291 291 292 291 290 289 288 287 286 285 285 284 283 282 282 281 279 279 279 279 279 279 278 278 278 279 279 280 280 280 282 282 282 282 282 283 283 284 284

GFSMA_925_thetae_033.txt.gz
Theta_e
326 323 322 322 320 319 317 315 313 312 311 310 310 309 308 307 306 305 305 304 305 306 312 314 313 310 309 308 307 307 307 307 308 307 307 307 306 305 304 302 304 305 306
323 321 320 319 319 317 315 313 312 311 310 310 309 308 306 304 303 303 303 303 303 304 309 312 310 309 307 306 306 305 305 306 305 305 306 305 303 303 303 302 301 303 304
324 321 320 319 316 313 312 312 311 310 310 309 308 306 305 302 301 301 301 301 302 305 310 309 306 306 305 305 304 304 305 304 304 306 305 303 302 301 301 300 300 301 301
321 320 318 315 313 312 311 311 310 309 308 306 304 304 302 301 300 299 299 299 300 307 307 304 304 304 304 304 303 303 303 303 302 303 303 302 301 300 299 299 299 299 300
322 319 317 314 312 311 310 310 308 307 303 302 303 302 302 301 300 299 298 298 298 304 304 300 301 299 299 300 300 300 300 300 300 302 300 299 298 298 298 298 297 298 298
320 317 313 312 311 311 310 308 306 303 302 302 302 302 302 300 299 299 298 297 296 296 297 296 295 296 297 298 297 297 297 298 298 298 297 297 296 296 296 296 296 296 297
315 314 312 311 310 309 307 304 303 303 302 302 302 301 301 299 298 298 297 296 295 294 294 294 293 294 294 293 293 295 295 295 296 296 296 295 295 294 294 295 295 295 295
313 312 311 310 308 306 304 304 303 303 302 302 301 299 295 298 299 298 297 296 295 293 293 293 292 292 292 292 292 292 292 294 294 295 294 294 294 294 294 294 294 294 294
310 310 309 307 306 304 302 300 300 302 302 301 301 301 296 295 295 298 296 296 293 293 294 293 292 292 291 291 291 291 291 290 291 292 292 293 293 293 293 294 293 293 293
310 309 307 304 300 299 298 298 298 299 301 301 300 299 299 297 293 293 296 294 293 293 293 293 292 292 291 291 290 290 290 289 290 291 291 291 292 292 292 292 292 292 292
308 304 300 298 297 297 296 296 297 299 300 301 300 299 299 298 296 293 290 292 293 293 293 293 292 292 290 290 289 289 290 289 290 291 290 291 291 291 291 291 291 291 291
300 298 298 297 296 296 295 295 297 299 300 299 299 298 298 297 295 293 290 290 290 293 293 292 292 291 290 289 289 289 289 289 289 288 289 289 290 290 290 289 289 289 290
298 297 297 296 297 295 295 295 295 296 297 298 298 298 298 297 297 296 293 291 290 291 291 292 291 290 289 288 288 288 287 287 286 286 287 288 288 288 288 287 288 289 290
298 297 297 299 295 295 295 294 295 295 295 297 298 298 296 296 297 296 293 293 294 291 291 291 290 289 288 286 286 285 285 285 284 285 286 286 286 286 287 287 288 289 289
297 298 299 295 295 295 294 294 295 295 296 296 295 295 295 294 295 295 294 294 293 291 287 288 288 287 285 284 283 282 282 282 283 284 283 284 285 285 286 287 287 288 288
298 298 296 297 296 295 295 294 295 295 295 294 294 294 293 293 294 295 294 292 291 289 286 287 286 285 283 282 281 281 281 282 281 282 284 284 284 285 285 285 286 287 287
298 298 299 298 296 296 295 294 294 294 294 294 294 293 293 293 293 293 291 291 289 287 286 285 283 283 282 281 280 281 281 281 282 282 283 283 283 283 283 284 285 286 286
299 300 298 296 296 296 295 294 294 294 294 294 293 292 292 292 292 291 290 289 287 285 283 282 282 282 282 280 280 280 280 281 281 281 282 281 281 281 282 283 286 286 286
299 298 297 297 296 296 295 294 294 294 294 294 293 292 292 291 290 289 288 287 285 283 282 282 281 281 280 279 280 280 280 280 280 280 280 280 280 281 281 282 284 284 284
298 297 297 296 296 295 295 294 294 294 294 293 292 292 291 290 289 287 286 285 283 283 282 282 281 280 279 279 280 280 279 279 279 279 280 280 280 281 281 281 281 282 283
296 297 296 295 294 295 295 294 294 294 293 292 291 290 289 288 287 286 285 284 283 283 282 280 279 279 279 279 278 278 278 278 279 280 280 281 281 281 281 281 281 281 281
295 297 297 295 294 295 294 294 294 293 293 291 290 288 287 286 286 285 284 284 283 281 280 279 278 278 278 278 277 278 278 278 279 280 280 280 280 281 281 282 282 282 283
297 295 294 293 293 293 293 294 293 293 292 291 289 287 287 286 285 285 284 283 282 281 280 278 277 277 278 278 279 278 279 279 280 280 280 280 280 281 282 282 282 283 284
294 294 293 292 292 292 293 293 293 292 291 290 288 287 287 286 285 284 283 282 282 281 280 278 278 278 278 279 279 279 280 280 280 279 280 280 281 281 282 282 282 283 284
293 292 292 292 292 292 292 292 292 291 290 289 287 287 286 286 285 284 283 282 281 281 279 278 278 279 279 278 278 278 278 279 279 279 279 280 281 281 282 283 282 283 283
292 292 292 291 290 290 291 291 291 291 290 288 287 287 286 285 284 284 282 282 281 280 279 279 279 279 279 279 278 277 278 278 278 279 280 280 281 282 282 282 282 282 283

GFSMA_925_thetae_036.txt.gz
Theta_e
322 322 324 322 320 317 316 314 312 311 311 310 309 308 307 306 305 304 304 304 304 305 311 314 313 311 309 308 307 307 307 308 306 307 307 305 304 304 303 302 302 302 302
324 323 322 320 318 316 314 313 312 311 310 309 308 306 304 303 302 302 302 302 302 304 308 312 311 309 308 307 305 305 306 305 304 307 306 304 303 303 301 301 300 301 301
323 320 319 318 317 315 314 312 311 310 310 308 306 303 302 301 300 300 300 301 301 306 310 308 308 306 306 306 304 304 305 304 303 305 304 303 302 300 300 299 299 300 300
321 320 319 318 315 313 312 311 310 309 307 304 302 301 301 300 299 299 299 299 301 307 307 305 305 305 304 304 303 303 303 303 302 301 303 301 300 299 298 298 298 298 298
321 320 319 316 313 312 310 309 308 306 303 301 301 302 301 300 298 298 298 298 299 305 304 302 303 301 299 300 300 300 300 300 300 300 300 299 298 297 297 296 296 297 298
321 318 315 313 311 310 309 308 304 302 301 301 301 302 301 299 298 297 297 297 296 296 296 297 296 295 297 297 297 297 297 297 298 298 298 297 297 296 295 295 295 295 296
320 316 313 310 309 309 306 303 303 302 301 301 301 300 299 298 298 297 296 296 295 294 294 294 293 293 295 293 293 294 296 295 295 296 296 296 296 295 295 295 295 295 295
316 312 311 309 308 305 304 303 302 302 301 301 300 298 295 297 298 298 297 296 296 295 293 293 293 292 292 292 292 292 292 293 293 293 293 294 294 294 294 294 294 295 295
311 310 309 308 305 303 299 298 298 299 300 300 300 300 296 296 295 297 298 296 296 293 293 293 292 292 292 291 291 291 290 290 291 291 292 292 293 293 293 293 294 294 294
310 309 308 304 300 298 296 296 296 297 298 300 300 300 299 297 295 294 296 296 295 293 293 292 292 292 291 291 290 290 290 290 290 291 291 292 292 292 292 292 293 293 293
308 306 302 299 297 296 296 295 295 295 297 299 300 299 299 298 297 293 292 292 294 294 294 293 293 292 290 290 289 289 289 289 289 290 290 291 291 291 291 291 291 291 292
303 300 298 297 299 297 295 294 294 295 298 299 298 298 298 297 296 294 289 290 291 293 294 294 293 291 290 290 289 288 288 288 288 288 288 289 290 290 289 290 290 290 290
300 298 298 298 301 300 296 294 293 294 295 296 297 298 298 297 297 296 294 292 290 292 292 293 292 292 290 289 287 286 286 286 285 285 286 287 287 288 288 288 288 288 289
300 298 297 301 305 294 295 294 294 294 295 295 296 298 297 295 296 296 294 292 293 294 292 291 290 291 290 288 285 284 283 282 282 282 284 285 285 285 286 287 287 288 288
299 297 300 302 295 297 295 294 294 294 294 295 295 295 294 294 294 294 294 293 294 292 291 289 290 289 288 286 284 282 281 281 281 283 283 283 284 285 285 285 287 287 287
298 298 302 297 298 296 295 295 294 294 295 295 294 294 294 293 293 293 294 294 292 291 290 289 288 287 285 283 282 281 280 280 281 281 282 283 283 283 284 284 284 285 285
298 301 298 299 297 297 296 295 294 294 294 294 294 294 293 292 293 293 293 292 291 290 288 288 286 284 283 282 281 279 280 280 280 280 282 282 283 282 282 282 283 283 284
300 300 299 298 297 296 295 295 295 294 293 293 293 293 293 292 292 292 291 290 290 288 286 283 283 282 282 281 279 279 279 280 279 279 280 281 281 281 281 282 282 282 283
300 298 298 297 297 296 295 295 295 294 294 293 293 293 292 292 291 291 290 289 288 286 284 282 281 281 281 280 278 278 279 279 278 279 279 280 281 281 281 282 282 282 282
299 298 297 296 295 295 295 295 295 294 294 293 293 293 292 292 291 290 289 287 286 284 283 282 281 281 280 279 278 279 278 278 278 279 280 280 280 280 281 281 282 282 282
297 295 295 295 298 295 295 295 294 294 294 293 293 292 292 291 290 288 287 286 284 283 282 282 280 279 278 278 278 278 277 278 278 279 280 280 280 280 281 282 282 282 282
295 296 297 297 297 296 293 294 294 293 293 293 293 292 291 289 287 286 286 285 284 283 282 280 280 278 277 277 278 278 277 278 279 280 280 279 279 280 281 281 282 282 282
297 297 297 296 295 293 292 292 293 293 293 293 292 291 289 288 286 286 285 284 283 282 281 280 280 278 277 278 278 278 278 278 279 279 279 279 279 280 281 281 282 282 282
296 296 295 294 292 292 292 292 292 292 292 292 292 291 288 287 287 286 285 284 283 282 281 281 279 278 278 279 279 278 278 278 278 278 278 279 279 280 281 281 282 282 282
296 294 293 292 292 291 290 290 291 291 291 291 291 290 288 287 287 286 284 284 283 282 281 280 279 279 279 279 279 278 277 278 277 278 278 278 280 280 280 282 282 282 283
295 292 292 291 291 290 289 289 289 290 290 290 290 289 288 287 287 285 284 284 282 282 281 279 279 279 279 279 279 278 277 277 277 277 279 279 279 280 282 282 282 282 282

GFSMA_925_thetae_039.txt.gz
Theta_e
316 318 322 321 318 317 315 314 312 311 311 310 308 307 307 305 302 302 303 303 303 304 307 314 314 311 310 309 307 307 308 306 306 308 306 305 304 303 302 301 301 302 302
321 322 323 320 318 315 314 314 313 312 310 309 308 306 303 300 300 300 301 302 301 302 305 311 313 311 309 307 306 306 306 304 306 306 305 304 303 301 301 300 300 300 301
323 323 321 318 316 315 314 313 311 310 309 307 304 301 300 300 301 301 301 301 305 303 309 311 310 308 308 307 305 304 305 304 303 303 303 303 302 300 299 299 298 299 299
323 321 318 317 316 314 313 311 310 308 306 304 302 301 301 301 300 299 299 301 303 305 307 307 307 305 305 304 303 303 303 302 302 302 302 302 300 299 298 298 297 297 298
321 319 318 317 314 312 311 310 308 306 303 303 302 301 301 300 298 298 298 298 302 304 303 303 304 304 302 299 300 300 300 300 300 300 300 300 299 298 298 297 296 296 296
321 320 317 315 313 311 309 308 305 301 301 301 301 301 300 299 298 297 297 297 296 296 296 296 296 297 296 297 297 298 297 297 298 298 298 298 298 298 297 296 296 296 296
322 318 315 313 310 309 308 303 302 301 301 299 302 302 301 299 298 297 296 296 295 296 295 294 295 295 295 293 293 293 294 295 295 295 295 296 296 295 295 295 296 296 296
320 316 314 311 309 308 304 303 300 301 302 300 301 301 302 300 299 298 297 296 296 296 294 293 293 294 293 293 293 292 293 293 293 293 293 294 294 294 295 295 295 295 295
316 313 311 310 308 305 302 299 297 298 301 300 300 301 301 301 300 299 298 296 296 296 294 293 293 293 292 292 292 292 290 290 292 292 293 293 293 294 294 294 294 294 294
312 311 310 308 306 301 298 295 296 298 299 301 300 300 300 300 300 300 298 297 297 295 295 294 293 293 292 292 291 290 289 289 289 292 292 292 292 292 293 293 293 293 293
310 310 308 306 302 298 297 296 296 297 297 296 299 300 300 299 298 298 298 297 295 295 295 294 294 293 291 290 290 291 290 289 289 289 290 291 291 291 291 291 291 292 292
309 307 305 302 299 299 296 297 301 296 296 298 299 299 298 298 298 297 297 296 296 295 294 293 293 293 291 290 289 288 288 287 286 285 287 288 288 289 289 290 290 290 290
306 304 301 298 299 299 301 303 294 294 295 298 298 298 298 298 297 297 296 296 295 295 294 293 293 292 291 290 289 290 287 285 284 283 283 285 286 286 287 287 287 288 289
306 302 298 298 302 304 300 297 294 294 294 294 295 296 298 298 297 296 295 295 296 295 294 292 292 291 290 290 288 287 285 284 282 281 283 284 284 285 285 286 287 287 287
307 301 298 300 304 300 297 294 294 294 294 294 295 295 297 296 295 295 295 295 295 295 294 292 291 290 289 288 286 285 284 283 281 281 282 282 283 284 285 285 285 286 286
305 300 298 301 299 298 295 295 295 294 293 293 294 294 295 295 295 294 294 294 294 294 293 291 290 289 288 286 284 283 283 281 281 281 281 282 283 283 284 284 284 284 285
304 300 298 299 299 296 295 295 295 295 294 294 294 294 295 295 294 294 294 294 293 292 291 290 289 287 286 285 284 283 281 281 281 281 281 281 282 282 283 282 282 283 283
302 299 300 300 299 296 296 296 295 297 294 294 294 294 294 294 294 294 293 293 292 291 290 289 288 286 284 284 283 282 281 281 281 281 280 281 281 281 282 282 282 283 283
300 298 301 298 299 296 295 295 297 296 294 294 294 294 294 294 293 293 292 291 290 289 288 287 286 285 284 283 282 281 281 281 280 280 280 280 281 281 282 282 282 283 283
300 299 297 297 296 295 295 296 297 295 294 294 293 293 293 293 293 292 291 290 289 288 287 285 285 284 284 283 281 280 281 281 280 280 281 281 280 281 281 282 282 282 283
298 297 296 295 296 297 297 297 296 295 294 294 293 293 293 293 292 291 290 289 288 286 286 285 285 284 283 283 281 280 280 280 280 281 281 282 281 282 282 282 283 283 282
296 295 297 297 297 296 296 297 295 292 293 293 293 293 293 292 292 291 289 287 286 286 285 285 284 284 283 282 280 280 280 280 281 281 281 281 281 282 282 282 282 282 282
297 296 296 296 296 295 296 294 292 292 292 293 292 292 292 291 291 289 287 286 286 285 284 284 283 283 283 280 280 280 280 280 280 280 280 280 281 282 282 282 283 282 283
297 296 296 296 295 296 293 291 291 290 291 291 292 292 291 290 289 288 286 286 286 285 284 283 282 282 281 280 280 280 280 280 280 280 280 280 281 282 282 282 283 282 282
297 296 296 295 294 292 291 291 289 289 290 290 291 290 290 290 290 288 286 286 285 284 283 282 282 281 279 279 280 280 280 280 280 280 280 280 281 281 282 283 284 283 283
296 295 293 292 291 291 291 290 289 289 289 289 289 290 290 289 289 289 286 286 285 285 283 282 281 280 280 280 280 280 280 280 280 280 280 279 280 280 281 282 283 284 284

GFSMA_925_thetae_042.txt.gz
Theta_e
322 323 323 323 321 320 318 317 316 315 314 313 312 311 310 307 305 304 305 303 302 304 307 313 315 312 311 309 308 309 307 306 308 307 305 304 304 303 302 301 301 301 301
323 325 324 322 320 319 318 317 316 316 314 312 311 309 306 304 304 304 304 307 302 301 303 310 315 312 310 308 307 307 306 305 306 305 304 304 303 302 301 300 299 299 300
325 325 323 321 319 318 317 317 315 314 312 310 309 306 304 304 303 304 304 305 305 304 308 312 312 310 310 308 306 305 306 305 304 303 304 304 302 301 300 299 298 298 298
326 324 322 320 318 318 317 317 315 313 312 309 306 305 304 303 303 303 304 304 304 305 306 309 308 307 306 305 305 304 305 303 302 302 302 302 302 300 300 299 298 298 298
324 323 321 320 318 318 317 315 313 312 309 307 305 304 304 303 302 301 302 303 303 303 303 303 305 305 305 303 301 301 301 300 300 300 300 300 300 300 299 299 297 297 297
322 322 321 319 318 316 315 313 311 308 307 305 302 303 304 303 302 302 301 300 300 299 299 299 299 299 297 295 295 296 297 297 298 298 299 298 298 298 298 297 297 297 297
323 322 321 318 316 315 314 312 309 308 307 304 305 307 306 304 303 302 301 300 300 299 299 298 298 298 298 296 295 294 295 296 296 296 295 296 296 296 296 296 296 296 297
322 321 319 317 315 314 312 310 308 307 305 304 307 307 311 306 303 302 301 301 300 299 298 297 297 297 297 297 296 294 293 293 294 294 294 294 295 295 295 296 296 296 296
321 319 317 316 314 312 311 309 307 304 307 306 304 305 307 308 304 303 302 301 299 299 298 297 297 297 296 296 295 295 293 292 291 293 294 294 294 294 295 295 295 295 295
319 317 316 314 313 311 309 307 304 305 304 305 303 303 302 302 304 305 302 301 300 299 298 298 297 297 296 295 295 294 292 290 289 290 292 292 293 293 293 293 294 294 294
317 315 314 312 311 309 307 304 304 304 303 302 303 303 303 302 302 302 302 301 299 299 298 297 297 296 296 295 294 294 292 290 289 288 289 289 290 291 291 292 292 292 292
314 312 311 310 309 306 305 304 305 304 305 300 301 301 301 302 301 300 301 300 299 298 297 296 296 296 295 294 293 291 290 289 289 287 286 287 287 287 288 288 289 290 290
312 310 308 307 306 304 304 304 305 301 297 302 301 301 301 300 299 299 299 299 298 298 297 297 295 295 294 293 293 291 289 287 286 285 284 285 285 286 286 287 287 288 288
311 308 306 305 304 303 303 305 300 295 300 300 300 300 299 300 299 298 297 297 299 297 296 296 295 294 293 292 292 290 288 287 286 285 284 284 284 284 285 286 286 287 287
310 307 305 303 302 302 304 300 297 298 298 300 300 299 299 298 297 297 297 296 296 298 298 295 294 293 292 291 291 289 287 287 285 284 283 283 283 284 284 285 285 285 286
309 306 304 303 302 302 300 297 296 298 299 300 299 298 298 297 297 297 296 295 295 295 297 294 293 292 292 291 289 287 286 286 284 283 283 283 283 283 283 283 284 284 284
310 305 303 303 302 299 297 297 298 298 299 299 298 297 297 297 296 296 295 295 294 294 294 294 292 291 291 289 288 287 286 285 284 283 283 283 282 282 282 282 283 283 283
308 304 304 303 300 299 298 297 297 297 299 299 297 297 297 296 296 296 295 295 294 294 293 293 292 291 290 289 287 286 285 284 284 284 283 282 281 281 282 282 283 283 283
306 304 302 300 299 299 297 297 297 296 299 298 297 297 297 296 296 295 295 294 293 293 292 291 291 290 289 288 287 286 285 284 284 283 282 282 282 282 282 282 282 283 283
304 302 300 299 298 297 297 296 295 296 297 298 297 296 296 296 296 295 294 294 293 292 292 291 290 289 288 287 286 286 285 284 284 283 283 283 283 283 283 283 283 283 284
301 300 298 297 297 297 295 297 297 296 296 297 296 296 296 296 295 294 293 293 293 292 291 290 290 288 288 287 287 286 284 284 284 284 284 284 284 283 284 284 284 284 284
297 297 298 297 296 296 297 296 296 296 296 295 295 295 295 295 294 293 293 292 291 291 291 290 289 288 287 287 286 285 284 284 285 284 283 283 283 283 284 284 284 283 283
297 297 297 297 297 297 298 296 296 295 293 294 294 294 294 294 294 293 293 292 290 288 287 288 288 287 287 286 285 283 283 284 284 283 282 283 283 283 284 284 284 284 284
297 297 298 297 299 298 296 296 294 291 292 292 292 292 293 293 293 293 292 292 291 290 288 286 286 286 286 285 284 283 283 283 283 283 283 283 283 283 284 284 284 284 284
299 300 298 297 296 296 296 293 291 291 291 292 292 291 292 292 292 292 292 291 291 290 289 287 286 285 284 283 282 281 282 283 283 283 283 283 283 283 283 283 285 285 284
297 296 296 295 294 294 293 292 291 291 291 291 291 291 291 290 290 291 290 290 291 290 289 288 285 283 283 283 281 281 282 283 283 283 283 282 282 282 283 282 284 284 285

GFSMA_925_thetae_045.txt.gz
Theta_e
323 324 325 326 325 324 323 321 320 319 318 317 315 313 311 308 307 306 309 307 300 303 307 315 316 314 312 310 309 310 307 306 308 307 305 305 304 303 302 301 301 300 301
324 324 325 325 324 323 322 321 320 319 318 315 314 311 308 306 307 306 306 309 307 301 301 306 317 314 312 309 308 308 306 306 306 305 305 305 304 302 302 301 300 299 299
324 326 326 325 324 323 322 321 320 319 316 314 312 309 307 306 306 306 306 307 308 307 300 308 314 314 312 310 307 306 306 306 305 304 304 304 304 303 302 300 300 299 299
326 327 326 325 324 323 322 321 320 319 315 313 310 309 308 307 306 305 306 306 306 307 308 305 310 309 307 307 307 306 306 305 304 303 302 302 302 302 302 300 300 299 298
329 328 326 325 323 322 322 321 319 317 314 311 310 308 308 308 306 304 305 305 305 304 305 305 303 305 306 305 303 303 303 302 301 301 301 301 301 301 300 300 300 299 298
328 327 326 325 323 322 321 320 318 315 312 310 308 307 309 309 307 306 305 304 303 302 302 302 301 302 300 298 298 296 297 298 298 299 299 299 298 298 298 298 298 298 298
327 326 325 325 323 322 321 318 316 313 311 309 309 312 312 310 307 306 305 304 303 302 301 301 300 300 300 298 298 296 296 297 298 298 297 297 297 296 296 296 297 297 298
328 326 326 324 323 321 319 317 314 312 311 309 312 313 315 311 308 307 305 304 304 303 301 301 300 299 299 299 298 296 295 294 294 296 296 296 296 296 296 297 297 297 297
328 326 326 323 322 320 318 316 314 312 310 310 310 310 311 313 308 308 306 305 304 303 302 301 300 299 299 298 297 297 295 294 293 293 294 295 295 295 295 295 296 296 296
328 326 324 322 320 319 317 315 313 311 310 311 309 307 307 307 308 308 307 305 304 303 302 300 300 299 299 298 298 297 295 294 293 291 292 293 293 293 293 294 294 294 294
326 324 322 321 319 318 316 314 310 309 309 309 309 309 307 307 306 306 307 305 304 302 301 300 299 299 298 298 297 296 294 293 292 291 290 291 291 290 291 291 291 291 292
324 322 320 319 317 315 313 312 308 308 307 307 305 305 306 305 306 305 305 304 303 302 301 300 299 298 297 297 296 294 293 292 291 289 287 288 288 288 288 288 289 289 289
322 321 319 316 315 312 310 309 306 308 306 303 302 305 303 304 303 303 302 302 301 300 300 299 299 298 297 296 295 294 293 292 289 288 287 287 287 286 286 287 287 287 288
320 318 316 313 311 309 307 305 306 305 300 301 303 302 303 302 302 302 301 300 301 300 299 298 298 297 296 295 294 293 292 291 289 288 286 286 285 285 285 285 286 286 287
319 316 313 310 308 306 305 306 304 300 301 300 301 302 302 302 301 300 299 299 298 299 299 297 297 296 295 295 294 293 292 291 289 287 286 284 284 284 285 285 285 285 286
316 311 310 309 306 305 305 303 300 299 298 299 301 300 302 301 300 299 299 298 297 297 299 296 296 295 294 294 293 292 291 289 288 287 286 284 284 284 284 284 284 284 284
313 309 309 306 305 305 303 300 298 298 300 300 300 301 300 299 299 298 298 297 297 296 297 296 295 295 294 293 293 292 291 289 288 287 285 284 284 283 282 283 283 283 283
314 311 307 305 305 304 301 298 299 299 300 300 298 300 299 299 299 298 298 297 296 296 295 296 295 294 293 292 292 291 290 289 288 287 285 285 284 283 283 283 283 283 283
312 306 305 305 304 301 299 299 299 298 297 297 298 300 300 299 299 298 298 297 296 295 295 295 294 293 293 292 291 290 289 288 287 286 285 285 284 284 284 283 283 283 284
307 306 305 303 301 299 300 298 298 297 297 298 298 299 299 298 298 298 298 297 296 296 295 294 294 293 292 291 290 289 289 288 287 286 286 285 285 285 285 285 284 284 284
305 303 301 300 299 299 298 297 298 298 298 298 297 298 298 297 298 297 297 297 296 295 295 294 294 293 292 291 290 289 289 288 286 286 286 286 286 285 285 285 285 286 285
304 301 300 299 298 298 298 297 298 299 298 296 297 297 297 296 296 296 296 295 295 294 294 294 293 293 292 291 290 289 288 287 286 285 286 285 285 285 285 285 285 285 284
300 299 298 298 299 300 298 297 297 297 296 296 296 295 295 294 294 294 294 295 294 294 293 292 292 292 291 290 289 289 288 286 285 285 285 285 285 285 285 285 285 284 284
300 300 300 300 300 299 298 298 297 296 295 294 294 294 294 293 293 293 294 294 294 294 293 291 289 289 290 290 289 288 287 285 284 285 285 286 285 285 285 284 284 284 284
301 300 300 299 298 298 297 296 294 293 293 293 293 293 293 293 293 292 292 292 293 293 293 292 291 290 289 288 287 286 285 284 285 285 285 285 285 284 284 284 284 284 285
299 299 298 297 296 295 295 294 292 292 292 292 292 292 292 292 292 292 291 291 291 292 292 292 291 289 288 287 286 284 284 284 285 285 285 285 284 283 284 283 284 283 284

GFSMA_925_thetae_048.txt.gz
Theta_e
324 323 323 324 323 322 321 322 321 320 319 317 314 313 310 307 307 308 309 307 306 302 310 318 316 315 313 311 311 310 307 308 308 306 305 305 304 303 302 301 301 300 300
323 324 326 326 325 325 324 322 320 320 319 316 314 311 308 307 307 306 308 309 307 305 300 308 316 315 313 311 309 309 306 306 306 305 305 304 304 303 303 302 301 300 300
323 325 325 326 325 324 323 322 321 320 318 315 313 309 308 307 307 306 306 308 308 306 302 301 313 315 314 311 308 307 307 306 306 305 304 304 303 303 303 302 301 300 300
324 324 326 326 324 323 322 322 321 320 318 314 312 309 308 308 307 306 306 306 308 308 307 303 307 312 311 310 310 307 307 306 305 304 303 302 302 302 302 302 301 301 300
327 325 327 326 324 323 323 322 321 320 317 314 311 310 308 309 308 307 305 306 305 304 307 305 302 304 306 307 307 306 304 304 303 301 301 301 301 301 300 300 300 299 299
327 328 327 326 324 323 323 322 321 319 316 314 311 308 308 309 309 307 306 305 304 303 303 303 302 302 302 300 300 298 299 299 299 299 300 300 299 298 298 298 298 298 298
328 329 327 326 324 324 323 322 319 317 313 311 309 309 311 310 310 308 306 305 304 303 302 302 301 301 301 299 298 299 298 298 298 299 298 298 298 298 297 297 297 298 298
328 328 327 326 325 324 323 321 319 315 313 311 310 313 313 311 310 309 307 305 304 304 303 302 301 300 300 299 299 298 297 296 296 296 297 297 297 297 297 297 296 297 297
328 328 327 327 325 324 322 320 318 315 313 310 310 312 311 311 308 309 307 306 305 304 304 302 302 300 300 299 299 298 297 295 295 295 294 294 294 295 295 295 295 295 295
328 328 327 326 324 323 322 319 317 314 313 312 311 311 309 308 306 305 308 306 306 305 303 303 301 300 300 299 299 298 297 295 294 293 293 293 293 293 293 293 293 293 293
327 327 327 325 324 322 320 319 316 314 312 311 310 309 309 309 308 307 304 306 306 305 303 303 301 300 299 299 298 298 297 296 294 292 291 291 291 291 291 290 290 290 291
327 327 326 324 322 321 319 318 315 311 310 310 309 308 306 306 306 307 306 305 304 303 302 302 301 300 299 298 298 297 295 294 293 292 291 289 289 289 289 289 289 289 289
325 325 324 323 321 320 319 315 313 309 309 307 307 303 305 304 304 304 303 303 302 302 301 300 300 300 299 298 297 296 295 294 293 291 289 288 288 288 288 287 287 288 288
320 324 323 321 320 318 315 311 310 308 308 307 300 304 303 303 303 303 302 302 299 300 300 300 299 298 299 298 296 295 294 293 292 291 290 289 287 288 286 286 286 286 287
321 323 321 320 317 316 313 309 307 306 306 301 303 301 302 302 302 302 301 301 300 298 298 298 298 297 296 295 295 295 294 293 292 291 290 288 288 287 286 285 285 285 285
323 322 320 318 316 313 309 306 306 306 301 301 301 302 301 301 302 302 300 299 299 299 296 297 297 296 296 295 294 294 293 292 291 290 289 288 287 285 284 285 285 284 285
322 320 318 315 312 309 306 305 305 302 299 300 300 300 301 300 301 300 299 299 298 298 297 297 297 296 295 295 294 293 293 292 291 290 289 288 286 286 285 284 283 284 284
320 318 315 310 307 306 305 305 302 300 300 300 300 300 300 300 300 300 300 299 298 298 297 296 296 296 295 294 294 293 292 291 291 289 289 288 287 285 285 284 284 284 284
318 314 310 308 306 305 305 303 299 299 300 300 300 299 299 299 300 300 300 299 298 298 297 297 296 295 295 294 293 293 292 291 290 289 288 287 286 286 285 285 285 284 284
315 312 309 306 305 305 303 300 299 299 299 298 299 298 298 298 299 299 299 298 298 298 298 297 296 296 295 294 293 292 291 290 289 289 287 287 286 286 286 285 285 285 285
309 307 306 305 304 304 301 299 299 299 298 298 298 298 298 297 298 298 298 298 297 297 297 296 295 295 294 294 293 292 291 290 289 288 287 286 286 286 285 285 285 285 285
305 303 302 302 301 299 299 299 298 298 298 299 299 297 297 297 297 296 296 296 295 296 295 295 294 294 294 293 292 291 290 289 287 288 287 285 286 285 284 285 285 285 284
302 301 300 299 299 299 299 298 297 297 297 297 297 296 296 295 295 294 294 294 294 294 294 295 294 293 293 293 292 291 290 289 288 287 286 285 285 285 285 285 285 284 284
300 300 300 300 300 299 298 298 298 297 295 295 295 294 294 293 293 294 293 293 292 292 292 294 294 294 293 292 291 291 290 289 287 286 285 284 285 285 285 285 284 284 283
301 301 300 300 299 299 299 296 295 294 293 293 293 292 292 292 292 291 290 291 291 291 291 291 291 292 292 292 290 289 288 287 285 285 285 284 285 285 284 283 283 283 284
301 300 299 299 297 295 294 293 292 292 291 291 290 289 289 288 289 289 288 287 288 289 290 290 290 291 291 291 290 289 288 286 285 284 284 285 285 284 283 283 283 283 283

GFSMA_925_thetae_051.txt.gz
Theta_e
319 317 317 318 318 319 319 319 321 319 318 315 314 312 308 307 307 308 307 307 307 303 312 319 317 316 314 312 312 309 307 310 307 305 306 305 304 303 303 302 301 301 301
322 320 322 322 321 321 321 321 320 319 318 315 314 311 307 307 306 306 306 308 307 306 302 309 317 316 314 312 311 310 307 307 306 305 305 304 304 304 304 303 301 301 300
323 325 323 324 324 324 323 322 321 320 318 315 314 310 307 307 307 306 306 307 308 307 305 300 307 317 315 312 310 308 308 306 306 305 305 303 303 303 303 303 302 301 301
324 324 325 325 324 324 323 322 320 320 318 315 313 309 308 307 307 307 306 306 308 307 307 304 305 315 314 313 310 308 307 307 307 305 303 302 302 302 302 302 301 301 301
325 323 325 325 324 324 323 322 321 320 319 316 312 310 308 308 308 307 305 306 306 304 307 306 303 305 309 309 309 308 307 306 304 303 302 301 301 301 300 299 299 299 299
322 326 325 326 326 324 323 322 321 320 319 315 312 311 309 308 309 308 306 305 305 304 303 302 302 301 301 301 303 305 303 302 301 300 300 300 300 299 299 298 298 298 298
322 325 326 326 326 324 323 322 322 320 318 314 312 309 308 308 309 309 307 306 305 303 303 302 302 301 301 301 300 301 300 300 299 299 299 299 299 298 298 298 297 298 297
324 326 325 326 326 324 323 323 322 319 317 312 310 310 309 312 311 310 308 306 305 304 303 303 302 301 300 299 299 299 299 298 298 297 296 296 296 296 296 296 296 296 296
325 325 326 326 326 325 324 323 322 320 316 313 311 312 308 308 307 309 309 308 305 304 304 303 302 301 300 300 299 299 298 297 297 296 296 295 295 295 295 294 295 294 294
327 326 326 326 326 325 324 323 321 319 316 312 309 310 311 309 305 304 308 308 306 305 304 304 303 302 301 300 299 299 298 298 297 296 295 295 293 294 293 293 292 292 292
325 325 325 324 326 326 324 322 320 319 316 314 310 310 310 309 308 306 303 305 306 306 306 305 304 302 301 300 299 298 298 298 297 296 294 293 292 292 292 291 291 291 291
326 325 323 325 326 325 323 322 319 318 316 313 311 309 309 307 307 307 305 304 303 303 303 304 303 303 301 300 299 298 298 297 296 294 293 293 292 291 291 291 290 289 290
326 324 321 325 326 324 322 320 319 317 315 311 309 310 308 306 305 305 303 302 302 303 302 301 300 301 300 300 299 298 297 296 295 294 293 292 291 290 290 289 288 288 288
326 323 324 325 325 323 322 320 317 314 311 309 309 308 307 304 303 303 303 302 298 299 300 300 299 299 298 299 298 297 296 295 295 293 292 291 290 289 289 289 287 287 287
326 322 319 320 324 322 320 319 314 312 309 308 308 307 303 302 302 303 303 302 301 296 295 299 299 299 297 296 296 295 295 295 294 293 292 291 289 289 289 288 287 286 286
324 323 319 319 323 321 318 316 314 309 308 307 306 303 302 302 303 303 302 302 300 299 296 298 298 297 297 296 296 295 295 294 293 293 292 290 289 288 287 287 286 286 285
325 325 324 322 321 318 316 314 309 307 306 303 301 301 301 301 302 301 301 300 299 299 296 297 297 297 297 296 296 295 295 293 293 292 292 290 289 288 288 287 286 284 284
325 324 322 320 318 315 312 309 306 305 303 301 301 301 302 301 300 300 300 300 300 299 298 297 297 297 297 296 296 295 294 293 293 292 291 290 289 288 287 286 285 285 285
324 323 319 317 315 311 308 306 305 304 300 300 300 300 301 300 299 299 299 299 299 299 299 298 297 297 297 296 296 295 294 293 292 292 291 289 289 287 286 286 285 286 285
321 317 316 313 310 307 306 304 304 301 300 300 300 299 300 299 299 298 297 298 299 298 298 297 296 296 296 296 295 294 294 293 293 291 290 289 288 287 286 285 286 285 285
316 314 311 308 306 305 305 304 302 300 299 300 298 299 298 298 298 297 297 297 297 297 296 295 294 294 293 294 294 294 293 293 291 291 289 288 287 286 285 286 285 285 284
311 309 308 306 305 304 303 303 300 299 298 298 298 298 298 297 296 295 294 294 294 294 294 293 293 293 293 293 293 293 292 289 289 290 288 288 287 286 285 285 284 285 285
305 304 303 303 302 301 299 299 298 298 298 298 297 297 295 295 294 292 293 292 292 292 292 291 292 292 292 293 293 292 291 291 290 290 289 287 286 286 285 284 285 285 284
302 301 300 299 299 299 299 298 297 297 297 295 294 294 292 292 292 290 290 289 289 289 289 289 290 290 290 290 291 291 291 291 290 288 287 285 286 286 286 284 285 284 284
299 299 300 300 300 299 298 298 297 295 294 293 292 292 291 289 287 287 286 284 282 282 282 285 286 286 286 287 289 289 289 289 288 287 287 285 285 286 285 285 284 284 283
301 300 300 299 299 298 298 295 294 293 292 291 289 287 285 283 282 281 280 281 282 284 283 282 283 285 285 286 287 287 289 288 287 285 287 285 285 284 284 284 284 283 283

GFSMA_925_thetae_054.txt.gz
Theta_e
316 316 317 318 318 317 317 318 320 318 317 314 313 309 307 307 307 308 307 306 305 311 318 318 317 316 314 313 311 309 310 309 307 306 306 305 303 303 304 302 302 301 301
317 317 317 318 318 318 318 319 320 319 317 314 313 310 307 307 306 306 307 307 305 304 303 313 318 317 315 313 312 309 308 308 306 305 305 304 304 304 304 303 301 302 301
318 317 317 318 319 320 320 320 321 319 318 316 313 310 307 306 306 305 306 307 307 307 306 303 307 316 316 313 311 310 308 307 306 306 305 304 303 303 303 303 303 302 302
323 322 322 323 322 321 321 321 320 319 319 316 314 310 307 307 307 307 306 306 307 307 307 307 303 314 316 315 312 310 309 308 308 307 304 303 302 302 302 301 300 300 300
324 324 325 324 325 324 323 322 320 320 319 316 314 310 308 307 307 307 307 306 306 306 305 307 305 305 310 313 312 311 310 308 306 305 304 302 301 301 300 300 299 299 299
323 324 324 325 324 324 323 322 321 320 319 319 315 310 308 308 308 308 307 306 305 305 304 304 303 302 302 301 304 307 307 306 303 302 301 301 300 300 300 299 299 298 298
321 323 324 324 324 324 323 322 321 321 320 319 313 310 309 308 308 308 307 306 305 305 304 303 303 302 302 301 301 305 305 302 301 300 300 299 298 297 297 297 297 296 296
314 316 320 324 324 324 324 323 322 321 320 316 312 309 310 310 309 308 308 307 306 305 304 303 303 302 301 301 300 302 302 301 300 300 298 297 296 296 296 296 295 295 296
319 320 323 323 325 325 325 323 322 322 320 315 311 312 309 310 307 309 309 308 306 305 305 303 303 302 301 301 300 299 299 299 299 299 298 297 296 295 295 295 295 294 294
321 321 323 324 324 324 326 325 323 322 321 316 311 310 311 310 307 307 307 308 308 307 305 304 303 303 302 301 301 300 299 299 298 298 298 297 296 294 294 294 293 293 293
320 322 323 325 325 323 324 325 323 322 321 319 315 309 308 309 309 306 305 306 307 308 306 305 304 303 303 302 301 300 299 298 298 298 297 296 295 294 294 293 293 293 292
321 323 324 325 325 324 324 325 323 322 320 317 314 311 311 309 308 308 304 305 304 305 305 304 304 303 303 302 301 300 300 299 298 297 297 296 294 294 294 293 293 292 291
321 325 325 325 323 321 323 322 324 322 319 317 314 312 311 310 310 308 305 302 301 302 303 303 302 301 300 302 300 300 299 299 298 297 296 295 294 293 293 293 292 291 290
320 322 325 325 323 322 324 324 322 320 318 315 313 313 310 310 309 304 304 302 301 299 300 301 301 300 299 298 298 298 298 298 297 296 295 294 293 292 292 292 291 290 289
322 323 324 325 322 325 324 322 321 319 316 313 312 310 310 308 305 303 303 302 301 300 299 300 299 299 299 299 298 296 296 297 296 296 295 294 293 292 291 290 291 289 288
325 322 324 323 324 322 323 321 319 315 312 310 308 308 306 303 302 302 303 302 302 300 298 298 298 298 298 298 297 297 296 295 295 295 294 294 293 292 290 289 290 289 288
326 325 325 321 319 321 321 319 317 313 311 308 307 306 302 302 302 302 302 301 301 300 297 297 298 298 298 297 297 297 296 296 295 295 294 293 293 291 290 289 288 287 286
326 325 324 322 320 320 318 316 313 312 308 306 304 303 302 301 302 301 300 300 299 299 299 297 298 298 298 298 298 297 297 296 295 295 294 293 292 291 290 289 288 287 286
326 325 324 323 321 318 316 314 312 309 305 305 303 302 301 301 300 299 298 298 298 297 298 298 297 297 297 297 297 297 296 296 296 295 294 292 292 291 290 288 288 286 285
326 324 323 321 319 316 315 312 307 306 304 303 301 301 300 300 300 299 298 297 296 297 297 297 295 295 295 295 295 294 294 294 294 294 294 293 292 292 290 288 286 286 286
324 322 318 315 314 313 310 307 305 304 303 301 300 300 299 299 298 298 296 296 294 294 293 293 293 292 292 292 292 293 292 293 293 293 292 291 291 289 289 286 286 286 285
319 317 314 313 310 308 306 305 304 303 301 300 300 298 299 298 296 295 294 292 291 290 290 290 290 290 290 291 291 291 291 290 290 291 290 290 289 287 288 288 286 285 284
312 310 309 307 306 305 304 303 302 300 299 299 298 298 297 294 294 292 291 291 291 290 287 286 287 287 288 289 289 289 289 289 289 290 290 289 290 289 289 286 285 285 285
309 307 305 305 304 303 301 299 299 298 298 297 296 294 293 292 290 289 288 285 282 281 281 283 283 282 284 285 285 286 285 287 288 289 289 288 288 288 287 285 285 284 285
302 302 301 301 300 299 298 298 297 297 296 294 292 291 290 288 286 283 281 280 282 284 284 284 285 285 285 285 284 284 285 286 286 288 288 288 287 286 286 285 286 285 284
300 299 299 299 299 299 297 297 297 295 293 291 290 288 286 282 280 279 281 283 283 283 283 283 283 283 284 284 284 285 285 285 286 286 288 285 285 285 284 285 285 284 283

GFSMA_925_thetae_057.txt.gz
Theta_e
316 316 316 317 317 317 318 319 318 316 315 312 311 310 308 308 307 307 306 307 313 319 317 316 316 316 315 313 312 311 310 308 306 307 305 305 303 304 304 303 302 302 302
316 317 317 317 317 318 319 319 320 318 317 313 311 308 307 307 306 307 306 307 306 306 316 318 318 317 316 314 311 309 310 309 306 305 305 305 304 304 304 304 303 303 303
316 318 317 317 317 318 318 319 320 318 316 314 312 310 307 307 306 305 306 307 307 306 304 306 317 318 316 314 313 311 308 308 307 306 305 304 303 303 303 302 302 301 301
316 317 317 317 318 318 318 319 320 319 317 316 314 311 308 307 307 307 307 306 307 307 306 306 306 309 317 316 314 311 311 308 308 308 305 303 303 302 302 301 300 300 300
317 316 318 320 319 320 319 319 320 319 319 317 315 313 308 307 307 307 307 307 307 306 306 306 305 304 308 314 315 313 311 310 309 307 305 303 302 301 301 300 300 299 299
324 323 324 324 324 323 322 321 321 319 319 319 316 314 309 307 306 307 307 307 306 306 306 305 304 304 303 304 305 310 310 310 308 306 303 302 301 300 299 299 298 298 298
323 324 324 323 324 324 324 324 322 320 319 318 316 313 311 307 307 307 307 306 307 306 306 305 304 303 303 302 302 304 306 307 306 303 302 301 300 299 296 296 297 296 297
321 322 323 324 324 324 323 323 322 320 319 319 316 309 306 308 307 307 307 306 306 306 305 305 304 303 303 302 302 301 305 306 304 303 302 301 299 297 296 296 296 296 295
316 314 316 319 321 324 323 323 322 320 320 319 316 314 310 311 308 309 308 307 306 305 305 305 304 303 302 302 301 301 300 301 302 302 302 301 300 298 297 296 295 295 295
316 315 319 320 321 323 324 324 324 323 321 319 311 310 311 311 309 310 308 310 308 307 307 305 304 303 303 302 302 301 300 300 300 300 302 302 300 299 297 296 295 294 294
316 316 317 320 321 322 323 324 324 323 321 319 316 311 309 308 309 309 306 307 309 309 307 307 305 303 303 302 301 301 301 301 300 299 300 301 301 300 298 296 295 295 295
318 317 318 319 320 322 324 324 324 324 323 322 318 317 314 311 309 308 306 306 305 306 306 306 305 305 304 303 302 302 301 300 300 299 298 300 300 300 298 297 295 295 294
321 322 321 320 320 323 324 322 322 324 323 323 320 317 314 312 313 310 309 306 303 303 303 303 303 303 302 301 300 300 301 299 299 299 298 298 298 299 298 297 296 295 294
321 322 322 320 321 325 324 323 320 323 323 323 321 315 312 313 312 310 309 304 301 301 300 303 303 303 303 300 299 299 298 298 298 298 298 297 297 297 296 296 295 294 293
320 321 323 321 320 323 324 322 322 323 323 322 317 313 313 312 309 308 305 304 302 300 300 302 302 302 299 299 298 298 298 297 296 296 297 297 297 296 295 294 294 293 293
323 323 323 322 322 324 324 321 323 323 321 318 315 312 310 308 306 304 303 302 302 302 299 300 299 300 299 299 298 297 297 296 296 295 295 295 296 295 294 293 293 292 292
325 324 324 324 323 324 323 324 323 321 318 316 312 309 308 307 305 303 302 302 301 299 297 298 298 299 298 298 298 298 298 297 297 297 296 295 294 294 294 293 292 291 290
325 325 325 324 321 323 323 320 320 318 315 311 310 307 306 304 302 302 301 299 299 299 298 297 297 298 297 297 296 296 296 296 296 295 295 295 296 295 294 294 292 291 290
324 323 325 325 324 322 319 319 318 316 313 310 309 306 305 303 302 301 299 298 297 297 296 296 295 296 295 294 294 293 293 293 293 293 293 294 294 294 294 293 293 292 290
324 322 325 324 323 321 319 316 314 311 310 309 306 306 303 302 301 300 299 298 296 296 295 293 293 292 292 292 291 291 291 291 291 291 291 292 292 293 292 292 293 292 291
324 325 324 323 322 320 317 313 312 309 307 305 304 302 301 300 300 298 298 296 295 293 291 290 290 289 289 290 289 290 290 290 290 290 290 291 291 291 291 291 291 291 290
324 322 322 320 318 316 314 312 310 306 305 303 301 300 299 298 298 297 295 294 292 290 289 287 287 286 286 285 286 287 287 286 287 287 289 289 290 290 290 290 290 289 288
320 319 318 317 314 312 310 308 306 304 303 301 300 299 297 296 295 293 293 291 290 287 284 281 281 282 283 283 283 285 284 284 284 284 284 286 287 288 289 289 288 287 287
317 315 312 311 309 307 306 304 303 302 300 299 298 297 296 293 293 292 290 288 284 281 282 284 284 284 284 284 284 284 284 284 284 284 285 286 286 287 288 289 289 288 286
309 309 308 306 306 304 303 302 300 298 297 296 295 293 291 290 288 286 283 281 281 282 282 282 282 282 282 282 283 283 284 284 284 284 285 285 286 287 287 288 287 286 285
309 306 304 303 302 301 299 298 298 297 295 292 290 288 288 286 282 280 280 282 282 281 280 279 279 280 280 280 281 282 283 283 284 285 285 285 286 286 285 286 287 286 285

GFSMA_925_thetae_060.txt.gz
Theta_e
315 316 316 314 314 315 317 317 314 313 313 312 311 310 309 308 308 309 310 314 317 318 317 318 315 316 315 313 312 311 310 308 308 307 306 305 305 305 304 303 303 303 303
315 316 317 316 314 316 318 319 316 316 314 312 310 309 308 307 307 306 307 311 313 317 318 318 317 317 316 314 312 312 311 308 306 306 306 305 304 304 304 304 303 302 302
315 316 317 317 317 317 319 320 318 317 315 312 309 308 307 306 306 306 306 306 306 306 312 318 318 318 317 315 312 310 309 309 307 306 305 304 303 304 303 302 302 301 301
316 317 317 318 317 316 318 320 319 317 316 314 312 309 307 306 306 306 306 307 307 307 306 305 311 317 317 316 315 313 311 309 308 308 307 304 303 303 302 301 301 300 300
317 317 317 318 317 316 317 319 320 319 317 316 314 312 309 307 307 307 307 307 307 307 307 306 306 305 311 316 315 314 313 312 310 310 307 305 303 302 301 300 300 300 299
316 317 317 317 317 318 318 319 319 319 318 317 315 313 311 309 307 307 307 307 308 307 306 306 305 305 305 306 310 313 312 312 312 309 307 304 303 302 300 298 297 298 298
316 316 317 321 321 320 320 321 321 320 319 318 317 314 313 309 307 307 306 306 307 307 306 306 305 304 303 303 302 303 307 308 309 309 306 303 303 301 300 297 296 296 297
322 321 322 322 323 322 323 323 323 322 320 318 316 310 308 310 310 308 307 306 306 306 306 305 305 305 303 303 303 303 303 306 307 307 305 303 303 302 299 297 296 296 296
321 321 321 322 323 324 323 323 323 323 321 319 317 316 309 310 308 309 307 307 307 306 306 305 305 305 304 303 302 302 302 302 302 305 305 304 303 302 300 299 298 296 296
318 317 316 316 317 319 321 323 323 322 321 319 315 313 313 311 310 310 307 309 307 307 306 307 306 305 304 303 302 302 301 301 301 301 303 304 304 303 301 300 298 297 296
316 316 317 316 317 320 320 322 323 323 321 320 318 312 309 310 311 310 311 309 307 308 309 310 309 306 304 303 302 302 301 301 300 300 300 302 304 304 303 301 300 298 297
316 315 316 317 317 318 320 321 322 323 322 322 320 318 315 312 309 309 308 308 307 308 307 306 307 306 305 304 303 303 303 302 301 300 300 299 301 303 303 302 301 299 298
315 315 315 317 318 319 319 319 321 321 322 322 321 321 320 319 314 311 310 308 307 306 306 305 303 303 303 302 303 301 300 299 299 299 299 299 299 299 301 301 301 300 298
315 315 315 318 321 321 321 320 321 322 323 321 322 322 321 318 314 312 313 307 303 301 302 304 303 303 303 303 301 299 298 298 298 298 297 297 298 298 298 298 298 298 297
314 315 316 318 320 320 322 321 321 323 321 321 322 322 319 315 311 313 310 309 307 303 301 302 303 303 302 302 301 298 298 298 297 297 296 296 296 296 297 297 297 297 296
314 314 315 316 319 322 323 322 322 322 321 321 321 320 317 314 312 310 308 306 305 303 302 302 301 301 300 300 299 299 298 297 297 297 297 297 297 296 295 296 296 296 296
315 315 316 318 321 324 323 322 322 321 320 321 319 317 314 312 310 307 306 305 303 302 299 299 299 299 298 298 298 297 296 296 295 295 295 295 294 295 294 295 295 294 294
317 316 318 319 322 324 324 323 322 321 321 320 318 314 312 310 308 306 304 302 301 300 299 297 297 296 296 297 295 294 294 293 293 293 292 292 292 293 293 293 294 293 294
318 318 319 322 324 324 323 323 321 322 321 319 317 313 310 307 305 303 302 300 298 297 296 295 294 294 294 293 292 292 291 291 291 290 290 291 291 291 291 291 291 292 292
319 319 321 322 323 323 322 321 321 319 317 315 313 310 308 307 305 302 300 298 297 296 295 294 292 291 291 291 290 288 287 285 284 283 283 284 285 286 287 289 290 290 291
321 322 322 321 321 322 322 321 319 316 315 313 309 307 306 305 303 301 299 298 297 295 293 291 290 289 288 287 284 283 284 284 284 283 284 284 286 285 284 285 288 290 290
323 323 323 320 321 321 322 320 319 316 313 309 306 304 302 301 300 299 298 296 295 293 291 288 287 285 282 282 283 284 284 284 284 284 284 284 284 284 284 285 285 287 287
323 322 321 320 319 319 319 317 316 312 308 305 304 302 299 298 298 296 295 293 291 290 287 283 282 282 283 283 283 283 283 283 283 283 284 283 284 284 284 285 285 286 287
319 319 317 317 317 317 314 309 307 306 304 303 301 300 298 295 293 292 291 290 288 284 282 282 283 283 283 283 283 282 283 283 283 283 283 283 284 284 285 285 286 287 287
314 313 312 311 311 308 307 304 304 302 300 298 297 296 295 291 289 290 288 286 282 282 282 281 280 279 281 280 280 281 282 282 282 282 283 284 284 285 285 285 286 287 287
308 307 305 305 305 303 301 302 301 299 296 293 291 289 289 288 286 285 282 281 281 281 280 279 278 278 278 278 278 278 280 280 280 281 283 284 284 284 285 286 286 287 286

GFSMA_925_thetae_063.txt.gz
Theta_e
313 315 315 315 315 316 316 317 317 316 314 313 311 310 308 310 315 318 318 318 318 318 318 318 317 315 314 313 312 311 310 309 308 307 306 305 306 305 304 305 304 304 303
313 314 314 315 315 314 314 315 314 315 314 312 311 310 308 308 309 311 317 318 318 318 318 318 318 317 316 314 313 312 310 308 309 307 307 305 305 305 305 303 303 302 302
315 314 314 314 315 317 316 314 314 313 312 311 310 309 308 307 307 307 308 313 315 316 317 318 318 319 318 315 312 311 312 309 307 306 306 305 305 305 304 303 302 301 301
316 315 314 314 315 318 317 315 314 314 313 311 309 308 307 306 306 306 306 307 307 309 309 316 317 317 316 317 315 313 311 310 309 308 307 305 304 304 303 301 300 300 301
316 316 316 315 316 318 319 317 318 319 316 312 310 309 307 307 306 306 307 307 307 307 306 306 306 313 316 316 317 316 314 312 311 310 309 306 304 304 303 301 299 298 299
315 316 316 316 317 317 318 319 318 317 316 315 311 311 310 308 307 306 307 307 307 307 307 306 306 307 305 312 315 315 314 314 314 313 309 308 305 304 303 301 299 297 294
316 316 316 317 316 317 317 318 318 318 318 317 315 313 312 310 308 307 307 306 306 307 307 306 307 310 310 305 307 311 312 310 310 312 312 308 305 304 303 301 298 297 295
316 317 317 317 317 317 319 318 318 319 319 318 318 315 319 315 313 311 308 307 306 306 306 307 306 306 305 309 309 303 306 307 308 309 309 308 305 305 304 302 300 298 297
316 316 317 317 318 320 321 320 320 321 321 319 318 320 318 322 315 310 310 308 307 306 306 306 307 306 305 305 304 303 302 302 303 306 307 307 306 305 304 303 301 300 298
318 320 318 318 321 320 322 322 320 322 322 321 316 316 316 316 320 321 311 309 308 307 306 306 308 305 305 305 304 303 303 302 301 301 303 306 306 306 305 304 303 301 300
318 316 316 318 319 318 317 319 321 322 322 321 319 316 314 314 314 316 319 313 312 309 308 307 307 307 305 305 304 304 303 302 302 301 301 301 305 305 306 305 304 303 302
315 315 315 317 317 316 318 319 320 321 322 321 320 318 317 314 314 312 314 315 310 312 312 309 308 309 307 306 305 304 304 303 302 301 301 300 300 303 304 304 305 304 304
316 316 316 317 317 317 318 319 319 320 321 322 321 321 321 317 318 315 313 311 311 310 309 308 306 306 305 304 302 303 303 301 299 299 299 298 299 299 300 303 302 302 303
317 316 316 315 315 315 318 320 321 321 321 321 320 321 320 319 317 316 314 311 306 308 305 307 304 303 303 303 303 302 300 298 298 298 298 298 297 296 296 296 298 300 300
315 316 315 315 315 315 317 320 320 321 321 321 321 320 319 318 316 317 316 313 312 311 308 306 306 303 302 302 302 301 298 299 299 298 297 296 296 297 297 297 296 296 297
315 314 314 314 315 316 317 318 320 321 321 321 321 321 319 318 318 319 314 311 310 310 312 306 303 302 302 301 299 299 298 298 298 297 297 297 296 296 296 296 296 296 296
315 316 315 315 315 314 315 318 321 322 320 320 321 320 319 318 317 314 310 308 308 306 306 301 302 301 301 299 298 298 297 296 296 295 294 293 293 293 293 293 293 293 293
316 316 316 317 316 314 315 320 320 321 321 320 320 319 318 316 313 310 309 307 305 304 303 301 300 298 298 298 297 296 294 293 293 292 291 290 290 289 289 289 290 290 291
316 317 317 317 317 315 317 317 319 320 319 320 320 320 317 313 308 308 307 305 303 301 300 298 299 297 295 295 294 293 292 291 289 287 285 285 285 284 284 284 284 284 286
315 316 317 317 317 317 318 319 321 322 319 319 319 319 314 311 309 307 304 303 300 298 297 296 295 294 293 293 291 290 288 287 287 286 286 285 285 285 284 285 285 285 284
316 316 317 318 319 319 320 319 320 320 318 317 316 313 312 310 309 307 304 301 298 297 295 292 291 291 291 291 289 286 286 286 287 286 286 286 286 286 286 286 286 286 285
316 317 318 319 320 320 320 320 321 320 318 314 311 309 307 305 305 304 302 299 298 296 293 293 290 289 289 286 285 286 286 286 287 286 286 286 286 286 286 286 286 285 285
319 319 320 321 321 321 320 319 319 316 314 312 308 305 303 302 301 300 298 297 294 293 293 291 287 285 285 285 285 285 285 285 285 285 284 285 285 285 286 286 286 285 286
321 321 321 321 321 321 320 319 312 311 309 305 304 303 302 299 299 298 296 292 291 290 286 284 283 284 284 284 284 284 283 283 283 284 284 285 285 285 286 286 286 286 286
322 321 320 318 316 315 314 311 307 306 303 300 300 300 299 296 293 293 291 290 286 283 282 282 281 280 280 280 280 281 282 283 283 283 283 283 284 285 285 285 287 286 285
316 313 311 309 310 309 305 303 303 301 297 294 293 292 293 293 291 292 290 286 283 282 281 280 279 278 278 278 277 278 280 281 282 282 284 283 283 283 284 285 286 286 286

GFSMA_925_thetae_066.txt.gz
Theta_e
323 323 324 325 324 324 324 322 321 320 319 318 317 317 318 319 320 319 319 318 318 318 318 317 316 315 314 313 312 311 311 310 308 307 307 307 306 305 306 305 304 304 303
321 321 322 322 322 324 324 322 320 319 318 318 318 316 316 318 319 320 319 318 318 318 319 319 318 316 315 314 313 311 310 311 309 308 307 306 307 306 305 303 302 302 302
320 321 320 320 320 321 321 320 319 318 317 317 317 316 315 316 316 317 318 319 318 318 318 318 319 319 317 316 314 312 311 309 309 308 308 307 306 306 303 302 300 299 300
320 319 319 319 320 319 319 319 319 319 318 317 315 314 313 313 313 314 314 316 317 317 317 318 318 318 318 317 316 314 314 311 309 308 307 307 306 306 305 302 300 299 299
315 317 318 319 321 320 319 318 318 318 317 316 315 313 312 311 311 310 311 311 312 312 314 314 317 317 317 317 317 315 314 313 312 310 310 308 306 306 305 303 301 299 298
318 318 319 320 320 322 321 320 320 320 319 318 315 314 313 312 312 311 310 311 311 311 311 311 310 312 315 316 317 317 316 316 314 313 312 310 308 306 306 304 302 301 299
320 320 320 320 320 322 323 322 322 321 320 319 318 317 315 313 312 312 311 311 311 311 312 312 312 312 311 307 315 316 315 315 314 315 314 312 310 308 306 305 304 302 300
316 317 321 319 320 321 322 323 323 322 322 320 322 322 324 320 316 314 313 312 311 311 311 311 311 312 312 313 312 311 313 313 311 310 311 313 311 308 307 306 305 303 301
316 315 318 320 322 322 322 322 323 323 323 323 322 322 324 324 323 320 317 315 312 311 310 310 310 308 307 311 311 311 307 306 307 308 309 309 309 309 308 307 306 304 302
319 316 319 322 323 320 323 323 324 323 323 323 322 322 323 322 322 322 318 317 315 311 309 307 308 307 308 311 310 308 307 305 303 303 303 305 308 308 308 307 307 306 304
319 317 317 319 318 319 320 322 323 324 324 321 322 322 322 322 322 322 323 321 315 312 309 315 314 308 307 310 309 307 306 304 303 302 302 301 302 307 307 307 308 308 307
318 317 317 318 318 318 319 321 319 320 322 324 322 324 323 323 322 322 321 322 320 312 315 315 312 310 308 307 307 307 306 304 303 303 302 302 301 301 304 305 306 306 307
318 318 319 318 317 317 316 317 319 323 323 323 323 323 324 323 320 319 318 320 319 316 312 313 312 311 310 308 307 306 304 303 303 303 303 301 299 299 299 299 302 304 305
319 319 318 317 317 317 320 321 321 322 323 323 324 324 323 322 321 320 318 318 317 317 312 314 311 310 310 306 304 303 304 304 304 303 299 299 299 298 298 297 297 297 297
319 319 318 316 316 319 321 321 321 322 322 323 325 325 322 320 320 319 319 318 319 319 317 316 313 308 306 305 304 303 304 302 301 299 298 299 299 297 297 297 297 297 297
319 319 320 320 320 319 320 320 321 321 322 323 324 324 324 322 322 320 319 317 316 316 317 315 311 310 307 302 303 302 302 300 299 299 299 298 298 297 297 296 295 295 295
319 319 319 319 319 319 319 320 321 321 322 323 323 321 321 320 320 318 316 315 314 315 315 313 309 305 302 301 301 300 300 300 301 299 297 296 295 294 293 292 292 292 291
320 320 319 319 319 319 319 320 320 320 321 320 320 319 320 320 317 317 316 314 312 311 313 313 306 301 301 302 302 301 300 299 297 296 294 292 290 288 286 285 285 285 285
320 320 320 320 319 319 319 319 320 320 317 319 317 317 318 319 318 314 313 311 309 309 307 305 306 301 301 299 298 297 297 297 295 293 290 287 286 286 286 285 285 285 285
320 319 320 320 320 320 320 320 320 319 317 316 318 318 320 318 316 314 311 308 305 305 304 302 300 298 297 296 295 295 295 294 292 290 289 288 288 287 287 287 286 286 286
319 319 320 320 320 320 321 321 320 320 319 317 317 319 318 318 317 313 311 305 304 301 300 298 296 293 294 294 294 294 292 290 290 290 290 290 289 289 289 289 288 288 287
320 319 319 320 320 320 319 319 319 321 319 317 317 316 316 314 311 310 308 307 305 302 296 294 293 293 293 294 293 291 290 290 290 290 290 289 288 288 289 289 288 287 286
320 319 319 320 320 320 320 320 319 319 319 318 316 313 311 309 308 305 303 302 301 299 299 296 294 293 293 290 290 289 288 289 289 288 287 287 288 288 288 288 287 287 286
321 321 321 321 321 322 321 320 320 320 316 315 313 310 308 306 304 302 299 297 295 293 293 292 289 287 287 287 287 287 287 286 286 286 286 287 287 287 287 287 287 287 286
324 323 322 322 322 321 321 320 318 312 310 307 305 303 302 299 295 296 294 290 287 287 287 287 286 284 284 283 282 283 284 285 286 286 286 285 286 287 286 285 286 287 287
322 320 320 318 317 317 316 314 311 307 301 297 295 294 295 296 294 294 293 289 285 283 283 281 281 280 280 281 279 279 282 283 284 285 286 285 285 284 285 286 286 286 287

GFSMA_925_thetae_069.txt.gz
Theta_e
325 327 327 324 322 323 322 320 322 321 320 319 319 321 321 322 322 321 320 319 318 318 318 317 316 315 314 313 312 311 310 310 309 308 308 307 306 306 306 305 304 304 303
325 326 326 326 323 324 323 322 322 321 319 319 318 319 320 321 321 321 320 319 318 318 319 318 317 316 315 314 313 312 312 310 310 308 308 308 307 306 305 303 301 301 302
325 325 326 325 324 324 323 323 322 320 319 319 318 318 319 320 320 321 320 319 319 318 318 319 319 318 317 316 314 313 312 312 310 310 308 308 308 307 305 303 301 299 299
323 324 324 324 324 325 324 322 321 319 319 319 318 317 316 317 318 319 320 321 319 319 318 318 318 318 318 318 316 314 313 311 311 310 310 309 308 308 306 303 301 299 298
323 322 322 322 323 323 322 321 320 319 320 319 317 316 315 315 315 315 316 318 319 319 318 317 317 318 318 318 318 317 316 314 312 311 310 309 308 308 307 305 303 300 299
323 322 322 322 322 321 321 320 320 321 321 320 318 316 315 315 314 313 313 313 314 314 315 317 316 316 317 317 317 318 316 316 315 314 312 311 310 309 308 307 305 303 302
321 320 320 319 321 321 321 321 322 322 322 320 318 318 318 316 316 315 314 314 314 314 313 314 313 314 314 311 315 317 317 318 318 316 315 314 312 310 309 308 307 305 304
320 318 319 320 320 323 324 323 323 324 323 322 321 321 323 320 318 317 317 315 314 314 314 314 314 313 314 313 310 310 316 317 317 316 315 314 314 313 311 309 308 307 305
322 320 321 322 321 322 325 325 325 325 324 324 323 323 325 325 324 321 318 317 316 315 314 313 313 312 313 314 313 313 312 310 315 314 312 310 311 311 311 311 309 308 307
321 321 323 320 322 322 324 325 325 325 323 322 324 324 324 325 326 324 322 320 319 316 315 314 312 312 311 309 308 312 314 312 309 309 309 308 309 310 310 311 310 309 308
322 320 321 319 318 324 324 324 324 324 324 321 321 324 324 323 323 324 324 321 320 319 317 315 312 310 309 309 309 312 312 310 308 306 304 303 303 302 304 308 309 309 309
322 321 317 316 318 320 323 320 321 321 321 321 321 322 323 323 322 323 325 324 324 320 318 315 311 310 316 312 309 311 311 309 307 306 304 303 302 302 302 304 307 307 308
322 321 320 317 318 318 319 319 319 318 321 320 322 322 322 324 323 323 322 324 322 319 318 316 315 316 315 311 310 310 309 307 307 306 304 303 303 302 301 300 300 302 304
320 320 320 318 317 317 318 319 318 319 318 320 321 322 323 323 323 324 324 321 318 320 320 317 316 317 314 313 313 311 307 306 305 304 304 304 303 301 299 299 298 298 297
320 319 319 319 319 319 320 321 321 320 320 319 321 323 323 324 325 325 323 320 319 321 320 319 318 316 315 315 311 310 306 306 304 304 304 304 302 299 299 299 298 297 297
320 320 320 320 320 320 320 320 319 321 321 322 323 324 324 324 325 324 322 320 321 320 319 320 319 317 313 311 308 306 306 306 305 304 303 301 300 299 299 298 298 297 296
322 321 321 320 320 320 320 321 321 321 322 322 323 323 323 324 324 324 323 322 321 319 318 318 316 315 312 310 307 305 305 304 303 303 301 300 299 298 297 296 295 293 291
323 322 322 322 322 322 321 321 322 322 322 322 323 323 323 323 323 322 321 321 319 318 317 316 315 311 309 307 304 302 303 304 304 303 301 299 297 295 293 291 289 286 286
323 323 322 322 322 322 322 322 323 322 322 322 322 323 323 322 320 319 319 317 317 316 315 315 312 306 305 304 303 304 303 302 301 300 297 295 294 291 288 287 286 286 286
324 323 322 322 322 322 322 322 322 322 322 322 322 322 322 320 318 318 317 316 315 313 312 310 307 304 303 301 301 300 298 298 299 298 294 291 290 289 289 288 288 288 288
324 324 323 323 323 323 323 322 322 322 322 322 322 321 319 318 317 317 317 315 312 310 307 305 303 299 298 297 297 296 296 296 296 294 292 292 292 291 291 290 290 290 290
324 324 323 324 323 323 323 322 322 323 323 322 322 321 319 319 318 317 317 317 314 309 305 303 301 300 296 295 295 296 294 292 294 292 291 292 291 290 290 290 290 290 289
324 324 324 323 323 323 323 322 321 321 322 322 322 321 319 318 317 316 314 310 306 305 304 301 297 295 294 295 294 293 291 291 291 291 291 290 289 289 289 290 290 289 288
325 325 324 324 324 323 323 322 321 320 320 320 320 320 318 317 313 310 307 302 298 296 294 294 294 291 290 290 290 290 289 289 289 288 288 288 289 289 289 289 288 288 287
325 325 324 324 323 323 322 321 321 321 319 318 316 313 311 308 305 303 301 293 292 291 292 292 293 291 290 288 288 287 287 286 288 288 288 288 288 287 288 288 287 286 287
325 325 323 322 323 322 322 322 321 319 311 305 302 300 299 300 295 294 296 293 288 287 288 288 285 283 282 281 281 281 284 285 286 286 287 287 287 287 286 286 286 285 285

GFSMA_925_thetae_072.txt.gz
Theta_e
328 326 321 314 319 317 315 315 321 318 317 317 321 322 322 321 321 319 318 318 318 318 318 317 316 315 314 313 312 311 311 311 311 309 308 307 307 306 305 302 301 300 302
321 323 322 319 323 319 317 320 323 320 319 319 321 321 322 321 321 320 319 318 318 318 318 318 317 316 315 314 313 312 311 311 310 309 309 307 305 306 302 301 300 300 300
321 322 323 320 324 321 321 321 321 321 320 319 319 320 321 322 321 321 318 318 318 318 318 318 318 317 317 316 314 313 312 311 311 310 309 309 308 307 305 303 300 299 298
321 322 323 323 324 322 323 324 321 321 320 319 318 319 320 320 322 321 320 318 318 318 319 318 318 318 318 317 316 315 314 313 312 311 310 309 309 308 307 303 301 300 300
323 324 325 325 325 323 325 322 321 320 320 320 318 318 318 318 319 320 321 320 319 318 317 319 318 318 318 318 318 317 315 314 313 312 312 311 310 309 309 306 304 302 300
323 320 324 324 324 325 323 322 321 319 319 319 318 317 316 316 317 317 317 320 320 319 319 318 315 317 318 318 318 319 318 317 316 314 313 312 311 310 310 309 307 306 304
321 324 323 323 323 323 322 321 320 321 322 321 319 316 315 315 315 314 314 314 315 316 318 318 319 315 314 316 317 318 319 318 319 318 316 314 313 312 311 310 309 308 307
323 323 322 323 322 321 320 321 321 322 322 320 319 318 319 318 316 316 315 313 313 313 313 313 316 314 313 314 312 311 317 318 319 319 318 317 315 314 313 311 310 310 309
322 321 321 321 321 321 320 321 322 323 322 322 320 321 322 322 320 318 316 316 315 314 314 314 313 314 313 314 314 312 310 311 315 317 318 316 314 312 312 313 313 312 310
321 321 320 320 318 321 324 324 323 323 324 322 322 323 323 324 322 323 320 318 318 316 315 315 314 313 313 313 314 314 313 312 312 310 314 315 313 311 312 313 313 312 312
322 321 321 322 320 321 323 324 323 323 323 322 321 320 321 321 322 321 320 321 319 319 317 315 315 314 313 313 312 313 313 312 313 313 310 311 312 310 309 310 311 311 311
322 322 322 323 320 320 322 323 322 322 323 321 320 321 320 321 323 323 321 322 321 320 320 318 317 316 314 314 313 311 309 308 312 312 311 309 306 306 304 304 306 307 308
321 322 321 323 320 323 323 323 323 323 320 320 320 320 320 321 322 322 322 321 321 322 321 320 317 317 317 317 313 313 315 311 312 312 311 308 306 305 303 303 303 305 306
321 321 322 321 320 318 318 320 321 319 319 319 319 318 320 320 320 321 321 322 319 320 320 318 318 318 318 317 316 317 315 311 310 310 310 308 306 304 303 303 302 301 299
320 321 322 321 319 316 317 318 318 318 318 319 318 318 319 320 320 322 323 323 322 321 319 319 320 319 317 316 317 317 314 311 311 309 308 306 304 303 303 302 300 299 298
321 320 321 322 320 319 317 318 318 318 320 320 319 320 319 319 320 322 322 323 323 321 321 320 320 319 319 317 316 315 314 312 311 308 306 304 303 303 302 300 299 299 298
323 322 320 320 320 319 319 320 320 321 321 321 321 321 322 322 323 323 323 323 323 321 321 321 320 320 319 318 315 315 313 310 309 306 305 304 304 302 301 300 299 298 297
323 322 321 320 320 320 320 320 320 320 320 320 320 321 322 322 323 324 324 324 323 322 321 320 319 318 318 318 315 311 309 307 306 306 305 304 302 301 300 298 297 296 293
323 323 322 321 321 321 321 320 320 320 320 320 321 321 321 322 323 323 324 323 321 321 319 319 319 316 316 316 312 310 307 306 305 304 304 303 302 300 297 295 294 291 289
324 323 323 322 322 322 322 322 321 321 321 321 321 322 322 322 322 323 323 321 320 318 318 317 317 310 310 308 308 305 303 304 304 302 301 300 298 295 291 290 290 289 288
325 324 324 324 323 323 323 323 323 322 322 322 322 322 322 322 322 322 322 320 318 317 316 315 314 306 305 303 304 304 303 300 301 300 298 295 292 291 291 291 291 290 290
326 325 325 324 324 323 323 322 322 322 322 322 322 322 322 322 322 322 322 321 319 317 315 314 312 307 306 302 300 299 297 296 292 293 292 293 293 292 291 291 290 290 290
326 326 325 325 325 324 324 323 323 322 322 323 323 323 322 322 322 321 320 319 318 314 314 311 307 303 298 296 296 295 293 292 291 292 290 290 291 291 290 289 289 289 290
326 325 325 325 325 324 324 324 324 323 322 321 321 322 322 322 321 320 318 312 303 298 299 304 302 297 296 295 296 293 292 290 289 290 289 287 289 287 288 289 289 289 289
326 326 325 325 325 324 324 324 324 323 322 321 321 321 320 319 319 317 311 298 292 291 291 293 293 292 292 291 290 289 289 288 287 287 287 288 288 288 287 287 288 288 287
326 326 326 324 322 323 323 324 323 321 317 314 310 308 306 305 302 301 301 293 288 286 288 288 288 288 287 285 285 285 285 285 286 286 285 286 286 285 285 286 286 286 285

GFSMA_925_thetae_075.txt.gz
Theta_e
328 325 320 316 314 312 311 311 313 319 320 321 322 322 321 320 319 317 319 318 318 319 318 317 316 316 315 314 314 313 312 311 310 309 309 308 307 306 304 302 300 300 300
327 317 314 312 313 311 311 315 316 318 318 320 321 322 321 320 318 317 318 318 318 318 318 318 317 316 315 314 313 313 312 312 311 309 307 304 304 302 301 300 300 300 299
327 319 313 313 314 311 316 320 318 316 317 320 320 322 321 321 319 316 317 318 318 318 317 318 318 317 316 315 314 313 312 311 311 310 308 305 304 304 302 301 300 299 299
325 323 313 318 319 313 317 321 322 318 319 319 320 321 321 321 321 319 316 318 317 317 317 317 317 317 317 317 316 314 314 312 312 311 310 310 309 306 304 302 301 300 300
322 318 315 322 323 316 318 321 321 320 319 318 319 320 321 322 321 320 318 316 316 317 317 317 317 317 317 317 318 316 316 315 314 313 312 311 310 310 309 306 304 302 301
321 317 322 322 324 321 322 322 321 320 319 318 318 319 319 320 321 320 320 320 318 316 317 317 318 318 318 317 318 318 318 317 315 315 314 313 313 312 311 310 309 307 305
320 321 323 322 324 323 323 322 321 320 319 319 318 317 317 317 318 318 318 320 320 319 319 318 316 316 317 318 318 318 320 320 319 317 316 315 314 313 312 311 311 310 309
322 323 324 322 324 324 323 321 321 321 320 319 317 316 317 316 316 316 316 316 317 319 319 319 319 318 316 315 315 317 318 320 320 319 319 317 315 314 312 312 312 312 311
322 322 320 322 323 321 322 321 320 321 321 320 318 318 319 318 317 316 315 314 313 313 314 315 316 315 317 316 314 313 313 314 317 318 318 319 318 316 315 314 313 313 312
321 323 323 324 323 322 322 320 321 321 321 321 320 318 321 321 319 319 319 317 316 314 313 313 313 313 313 314 314 313 313 314 312 311 313 317 318 317 316 314 312 312 313
322 322 322 322 322 321 320 320 321 320 321 321 321 321 321 322 321 319 319 320 319 317 317 315 314 314 314 313 314 313 313 314 314 312 311 311 313 316 315 313 311 310 312
322 322 321 321 321 321 320 319 320 322 323 322 321 320 320 320 320 320 318 319 319 320 319 318 316 315 315 315 314 313 313 313 313 313 313 313 312 313 314 313 311 312 312
322 322 321 321 320 319 321 319 322 323 322 321 320 321 320 320 319 321 321 321 320 321 321 320 319 319 319 317 316 315 314 313 312 312 311 309 312 312 311 310 310 309 308
321 321 321 322 323 322 320 322 321 322 321 319 318 321 320 320 319 319 321 321 317 318 320 321 320 320 319 318 318 318 316 316 315 312 313 313 311 312 311 309 306 304 304
320 321 322 322 322 323 322 320 322 322 321 319 320 320 320 319 318 317 319 320 320 319 318 319 320 321 320 319 318 319 319 318 317 313 315 312 311 310 309 306 305 303 303
319 320 321 321 321 321 321 322 321 320 320 320 319 319 319 319 318 317 318 319 320 320 320 320 319 319 319 319 319 319 318 317 317 317 314 311 310 309 308 306 303 303 302
318 319 319 321 321 321 320 320 319 319 319 319 318 319 318 318 318 319 319 319 320 321 320 320 320 320 320 320 320 319 319 317 317 316 313 312 309 309 306 303 303 302 300
320 320 320 320 321 321 320 319 318 318 318 318 319 319 319 318 319 320 320 321 321 321 320 320 320 320 320 320 320 319 319 317 316 315 312 311 311 305 302 302 301 300 299
323 322 321 320 320 320 320 319 318 318 319 319 319 319 319 320 321 321 321 321 322 322 321 321 321 320 319 319 318 318 319 317 314 313 312 311 305 304 302 301 298 298 296
321 322 323 321 321 320 319 319 318 318 319 319 319 319 319 319 319 320 320 321 322 322 322 321 320 319 317 316 316 314 310 311 308 307 306 305 304 304 302 299 297 292 290
322 322 322 322 321 320 320 319 319 319 319 319 319 319 319 319 319 320 320 320 321 322 321 320 318 318 312 308 310 311 310 309 303 302 302 303 301 299 298 293 290 291 291
323 323 323 322 322 322 321 320 320 320 319 319 319 319 319 319 320 320 321 321 321 321 320 319 318 317 316 311 309 308 303 298 296 296 298 294 293 291 291 292 291 290 290
324 323 323 323 322 322 322 322 322 321 321 321 320 320 320 321 321 321 322 321 321 321 320 318 316 316 313 309 306 299 297 295 292 292 294 292 293 292 292 291 290 290 289
325 325 324 324 324 323 323 323 323 323 321 321 321 321 321 321 321 321 321 319 316 314 311 309 308 305 302 300 300 299 296 294 291 290 291 289 290 291 291 290 288 288 289
325 325 325 325 325 324 324 324 324 324 322 321 320 320 320 320 321 321 321 312 300 294 294 297 297 295 295 294 294 294 290 290 287 287 288 288 287 288 288 288 288 287 287
325 325 324 324 324 324 324 324 324 324 321 320 318 315 314 316 316 317 317 301 290 287 289 289 290 290 289 288 289 289 288 287 287 286 284 284 285 285 285 286 286 286 285

GFSMA_925_thetae_078.txt.gz
Theta_e
329 329 327 325 319 321 321 317 319 320 320 321 321 320 320 318 317 318 319 319 319 319 319 318 318 317 316 315 315 314 313 313 312 311 310 310 309 308 307 306 305 306 307
328 327 326 321 316 315 315 316 319 319 320 321 321 320 320 318 317 318 318 318 318 318 318 318 317 317 316 315 314 313 313 312 311 311 310 309 308 304 302 302 301 302 302
327 325 322 316 313 312 313 314 318 320 320 321 322 320 320 318 316 317 318 317 317 318 318 318 318 317 316 316 314 314 314 312 311 310 309 308 305 303 301 300 300 300 300
326 321 316 313 311 311 311 313 319 318 320 320 321 320 320 319 317 317 317 317 317 317 317 317 317 317 317 316 315 314 313 313 312 312 311 307 305 303 302 301 301 300 300
324 315 313 311 310 310 314 316 316 316 318 320 321 321 320 318 317 316 316 316 316 317 317 317 317 316 317 317 317 316 315 314 313 313 312 312 309 307 306 304 303 302 301
319 312 312 314 310 312 318 319 317 317 319 319 320 321 321 320 319 318 317 316 316 317 317 317 317 317 317 317 317 318 317 317 315 315 314 313 312 312 311 308 306 304 303
322 314 313 318 314 314 319 320 321 318 319 318 319 317 320 321 321 320 319 318 317 317 316 317 317 317 317 317 317 318 320 320 319 317 316 316 315 313 312 312 311 309 307
323 319 315 322 320 316 318 319 321 319 318 318 318 317 314 316 320 320 320 320 319 319 317 317 317 317 317 317 317 317 318 320 321 320 318 317 316 315 314 313 312 312 312
322 321 321 322 323 319 321 321 321 320 319 318 318 317 317 316 315 316 317 317 318 319 319 319 319 319 318 318 317 316 316 316 317 319 320 320 319 317 316 315 314 312 313
321 321 323 322 324 324 322 322 321 320 320 318 317 317 317 317 316 318 316 315 314 315 316 316 317 318 318 317 316 316 315 314 314 314 314 317 319 319 318 317 315 315 314
321 322 322 323 323 323 323 322 321 321 321 319 317 320 321 321 320 317 316 318 316 315 314 313 313 313 313 313 313 313 314 314 313 313 313 313 312 315 317 317 318 317 315
321 322 323 321 322 321 321 319 321 321 321 320 319 318 321 321 320 319 316 317 318 319 319 318 316 315 314 314 314 314 315 314 314 314 313 313 314 312 312 314 314 315 314
321 322 322 323 323 323 321 319 320 321 321 321 321 320 319 320 320 320 319 318 318 320 320 321 320 319 318 318 317 316 316 316 315 314 313 313 313 313 312 312 314 315 314
320 320 322 322 322 322 321 320 321 320 320 321 321 321 320 319 320 319 320 320 318 318 320 319 320 319 319 320 319 319 319 319 317 316 315 314 313 313 313 312 312 314 314
320 321 322 322 321 320 320 321 321 320 320 321 321 321 320 318 318 317 320 320 319 319 319 319 319 318 318 319 319 319 319 319 319 318 318 316 314 312 312 310 310 312 313
319 320 321 322 321 320 320 320 320 320 320 320 321 321 318 317 317 318 319 319 319 319 319 318 318 318 318 318 319 319 319 319 318 319 319 318 318 317 314 310 311 312 313
317 319 320 321 321 322 322 322 321 321 321 321 320 320 318 317 318 319 319 318 318 318 318 318 318 318 319 319 319 319 319 319 319 320 319 318 318 318 317 314 311 310 308
316 317 318 320 321 321 321 321 322 321 321 321 321 320 320 320 319 319 318 318 318 318 318 318 318 318 318 319 319 320 320 319 319 320 319 318 318 317 316 312 310 308 304
318 316 317 318 319 320 321 320 320 319 319 319 319 318 318 318 318 318 318 318 318 318 318 318 319 319 319 319 319 319 319 319 319 319 318 317 317 316 314 312 309 303 300
321 320 318 318 318 318 319 319 319 319 318 318 317 317 317 317 318 318 318 318 318 319 319 319 319 319 320 320 319 318 316 316 316 315 316 315 314 311 309 308 303 299 297
320 321 321 321 320 319 319 319 319 319 318 318 317 317 317 318 318 318 318 318 318 318 318 319 320 320 320 315 316 317 314 315 312 311 308 306 305 304 304 300 298 297 294
322 321 320 320 321 321 320 320 319 319 318 318 317 317 317 318 318 318 318 318 318 318 318 319 319 320 320 320 316 314 315 305 302 301 302 299 299 298 298 297 294 293 293
322 322 321 321 321 321 321 321 320 320 319 318 318 318 317 317 317 317 318 318 318 318 318 319 319 320 320 320 318 310 308 302 298 296 297 292 293 293 292 292 292 292 290
322 322 322 321 321 321 321 321 321 321 319 319 319 319 318 318 318 318 318 317 318 317 315 315 314 312 311 308 308 306 301 296 292 292 293 290 290 291 291 291 291 290 289
323 322 322 322 321 322 322 322 322 321 319 319 320 319 319 319 319 319 318 317 311 304 299 299 298 296 295 295 296 298 293 292 288 287 288 288 288 288 288 289 289 288 288
317 323 320 316 312 314 312 318 320 318 317 318 317 318 317 316 317 317 318 313 298 290 289 288 290 291 292 291 292 292 291 288 287 286 284 285 285 285 285 284 286 285 284

GFSMA_925_thetae_081.txt.gz
Theta_e
327 330 330 329 328 328 325 320 321 322 322 321 320 319 317 317 318 319 319 319 319 320 320 319 319 318 317 317 316 315 315 314 314 313 312 311 310 309 309 308 308 309 309
328 329 328 328 326 327 325 321 320 319 320 320 320 320 319 318 318 318 319 319 319 319 320 319 319 318 317 316 315 315 314 314 313 312 311 310 309 307 305 303 304 303 306
329 328 326 327 325 326 324 320 319 319 321 320 320 320 319 318 318 318 318 318 318 318 319 318 318 318 317 316 315 314 314 313 313 312 311 310 306 302 302 301 301 301 301
328 327 326 325 322 324 323 318 318 319 320 320 320 319 319 318 317 318 318 318 318 318 318 318 317 317 317 317 316 315 314 313 312 312 311 310 304 303 302 301 301 301 301
327 326 325 323 318 320 319 317 318 318 321 320 320 319 319 318 317 318 317 318 317 317 318 317 317 317 317 317 316 316 315 315 314 313 312 310 305 305 304 303 302 301 301
326 324 323 319 316 315 315 316 318 316 320 321 320 319 319 318 317 317 317 317 317 317 317 317 317 317 316 316 317 317 317 316 315 314 314 313 313 311 309 307 305 304 303
324 322 319 315 313 312 313 314 318 316 319 320 319 318 318 318 317 317 316 316 317 316 316 316 316 316 316 316 316 318 319 319 319 317 316 315 314 313 313 312 311 309 307
321 318 316 313 312 312 313 316 317 316 318 319 319 317 314 317 318 317 317 317 317 316 316 316 316 316 316 317 317 317 318 320 320 320 319 317 316 315 314 313 313 312 312
322 316 316 314 314 314 317 317 317 317 318 317 318 317 314 316 316 318 318 318 318 318 318 317 317 317 317 317 317 317 317 317 317 319 320 320 319 318 317 316 316 315 314
322 317 315 318 314 316 318 319 320 319 318 317 317 317 317 315 315 316 316 318 319 319 319 318 319 318 318 318 318 318 318 317 316 316 316 317 319 320 320 319 318 316 316
323 321 317 319 320 317 319 320 320 321 319 318 317 317 317 317 317 317 318 317 315 317 316 316 317 317 317 317 317 316 315 315 315 315 315 315 314 314 316 317 319 318 317
323 322 322 322 321 322 317 318 320 321 319 319 318 317 317 319 319 318 316 315 316 316 315 314 314 314 314 313 313 314 314 314 314 314 314 314 314 313 313 314 315 315 316
321 321 320 321 322 321 323 322 322 321 320 320 319 317 318 318 319 320 319 317 316 318 319 319 318 318 318 317 317 316 316 317 317 316 316 315 314 314 314 313 313 315 315
321 321 322 322 322 322 322 322 322 321 321 321 320 318 318 319 320 320 320 318 316 316 318 319 319 319 319 320 319 319 319 319 319 318 318 318 318 316 315 314 314 313 313
320 320 321 322 322 321 322 321 321 320 318 318 319 320 319 318 318 319 320 319 319 318 317 318 319 318 317 318 319 318 318 317 318 319 319 319 319 318 318 317 315 313 313
320 320 321 322 321 322 322 322 322 321 319 319 320 321 320 320 320 320 319 317 317 318 319 318 317 317 317 317 317 317 317 317 317 318 318 319 319 318 318 319 318 316 314
319 319 320 320 321 322 321 321 321 321 320 320 320 320 320 320 320 320 319 318 317 317 318 318 318 317 317 317 317 317 317 317 318 318 318 319 319 319 319 319 319 317 317
318 318 319 320 321 321 321 321 320 320 320 320 320 320 319 319 320 320 319 318 317 318 318 318 318 317 317 317 317 317 318 318 318 318 319 319 319 319 318 319 318 317 316
318 317 318 319 319 320 321 321 321 321 321 321 320 320 320 319 319 319 318 318 317 317 318 317 318 318 317 317 317 317 318 318 318 319 319 319 319 319 318 318 317 315 313
320 318 316 316 317 318 319 320 321 321 321 320 320 320 320 320 319 319 318 318 318 318 317 317 317 317 317 317 318 318 317 317 317 318 318 318 318 317 317 315 314 311 308
321 321 320 318 317 317 317 318 319 319 319 319 319 318 318 318 318 318 317 317 316 316 316 317 317 317 317 317 316 317 317 317 317 316 315 315 314 313 313 310 307 303 302
321 321 321 320 320 318 318 318 318 318 318 318 317 317 317 317 317 317 317 317 316 316 315 316 316 316 316 317 317 318 317 317 313 313 311 308 305 303 302 301 300 299 297
321 321 320 320 320 320 320 320 320 319 318 318 318 318 317 317 317 317 317 317 317 317 317 317 316 316 316 317 317 318 317 317 317 307 302 293 294 295 295 294 294 293 293
320 320 321 321 320 320 320 320 320 320 319 318 318 318 318 318 317 317 317 315 315 316 315 316 311 311 312 313 313 314 313 306 295 293 294 291 291 290 291 291 291 291 290
318 320 320 321 320 317 316 319 320 319 317 318 319 319 317 316 317 317 317 315 314 311 304 302 300 297 297 294 298 300 300 295 291 287 289 288 287 288 288 288 288 288 288
304 308 306 302 300 301 300 303 306 310 311 315 316 310 307 309 310 312 312 312 305 290 290 288 288 290 290 291 292 291 291 289 287 285 284 285 284 285 285 284 285 285 284

GFSMA_925_thetae_084.txt.gz
Theta_e
326 327 327 327 327 329 329 321 321 323 324 323 321 320 319 319 318 319 319 320 320 321 321 321 320 319 318 317 317 316 315 315 315 314 314 313 313 312 311 311 311 311 310
327 327 329 328 327 328 327 321 321 322 323 321 320 319 318 318 318 319 319 319 319 320 320 320 319 318 318 317 316 316 315 315 314 314 313 311 310 309 307 307 309 310 309
329 328 329 328 328 328 325 320 321 322 322 320 319 318 317 318 318 319 319 319 319 319 319 319 319 318 318 317 316 315 315 315 314 313 312 310 308 308 302 303 305 305 307
328 328 328 328 328 328 323 319 321 321 321 320 319 318 318 318 318 319 319 319 319 319 319 318 318 318 318 317 316 316 315 314 314 313 312 310 308 306 302 302 302 302 303
327 327 327 325 327 327 324 319 319 320 319 319 319 319 318 318 318 318 318 318 318 318 318 318 317 317 317 317 316 316 316 315 314 313 312 311 310 304 305 303 302 302 302
327 327 326 324 326 325 323 319 318 319 320 319 318 318 318 318 318 318 318 318 318 318 317 317 317 317 317 316 317 317 317 316 315 314 313 312 311 311 308 304 303 303 303
326 326 324 325 324 323 321 318 318 318 319 319 318 317 317 318 318 318 318 317 317 317 317 317 317 317 316 316 316 317 318 318 317 316 315 315 314 313 309 308 308 306 305
326 324 323 323 322 319 319 317 317 317 318 319 318 317 315 316 317 317 317 317 317 317 317 316 316 316 316 316 316 316 318 319 320 320 318 317 316 315 314 312 312 311 310
324 321 323 322 318 317 318 316 317 317 318 319 319 318 315 318 316 317 317 317 317 317 316 316 316 316 316 316 316 316 316 316 318 320 320 320 319 318 317 316 316 316 314
322 320 321 319 316 314 315 316 317 316 319 317 318 317 319 317 317 315 317 318 317 317 317 317 317 317 317 317 317 316 316 316 317 316 316 317 318 320 320 319 318 317 317
321 317 317 315 314 313 314 315 317 316 318 318 318 317 316 315 316 315 316 315 317 318 319 318 318 318 318 318 318 317 317 317 317 317 317 317 316 316 317 317 319 319 319
321 319 316 313 313 314 316 314 316 318 316 318 318 318 317 317 317 317 315 315 315 315 316 317 318 317 316 315 315 315 314 314 315 315 315 315 314 314 314 315 316 316 317
322 321 317 315 315 316 315 315 317 318 319 318 318 317 318 318 317 316 318 317 316 317 318 317 316 315 315 315 315 316 315 316 316 315 315 316 316 315 314 314 314 314 315
322 322 321 319 316 318 317 318 319 320 320 320 319 318 317 317 317 317 318 318 316 316 317 319 319 318 319 319 319 319 319 319 318 318 318 318 318 318 318 317 317 316 315
323 323 322 321 321 319 315 320 320 318 319 320 320 319 320 318 317 317 318 319 319 318 318 318 318 317 318 319 318 318 317 318 318 317 317 317 317 317 318 318 318 318 317
322 322 322 322 320 320 320 316 320 321 320 321 321 320 321 320 319 318 319 319 319 319 319 317 317 317 317 318 318 318 317 317 317 316 317 317 317 317 317 318 318 318 318
321 321 321 321 321 321 321 321 321 320 321 321 320 320 319 318 318 319 319 318 319 319 317 317 317 317 316 317 317 318 317 317 317 317 317 317 317 317 318 318 318 318 319
320 320 320 320 321 321 321 321 321 321 321 320 320 319 319 318 318 319 319 319 318 318 318 317 317 316 317 317 317 317 317 317 317 317 317 317 317 318 318 318 318 319 319
319 319 319 319 320 320 321 321 321 321 321 321 321 320 320 319 319 318 319 318 318 318 318 317 317 317 317 317 317 317 317 317 317 317 317 317 317 317 318 318 319 319 318
319 317 317 318 318 319 319 320 320 320 320 320 320 320 320 319 319 319 318 318 318 317 317 317 317 317 317 317 317 316 316 316 316 316 317 317 317 317 317 318 318 318 317
320 320 318 317 317 317 318 318 319 319 320 320 320 320 320 320 320 320 319 318 317 317 317 317 317 317 317 316 316 316 316 316 316 316 316 316 317 316 316 316 316 316 315
321 320 320 320 319 318 318 317 317 317 318 318 318 318 318 318 318 318 318 318 318 317 316 316 316 316 316 316 316 316 316 315 315 315 315 314 312 311 308 307 308 308 308
322 321 321 321 321 320 319 319 319 319 317 317 318 318 317 317 317 317 317 317 317 317 317 316 316 315 315 316 315 315 315 315 315 312 306 300 295 295 294 294 294 294 292
319 320 321 321 320 317 318 319 320 319 317 318 317 317 317 317 317 317 316 315 315 315 311 311 309 307 306 304 309 306 306 306 298 294 294 292 291 289 290 289 290 289 289
309 310 308 311 311 305 303 310 313 314 315 316 316 314 313 313 313 313 314 312 312 300 292 296 297 292 291 293 296 297 296 297 292 286 287 288 287 286 286 286 286 287 287
296 295 294 294 293 294 298 301 304 306 307 306 303 299 296 296 297 300 303 304 300 291 291 291 291 290 290 291 291 292 292 289 287 284 283 284 284 285 284 282 283 283 283

GFSMA_925_thetae_087.txt.gz
Theta_e
327 326 327 328 328 328 328 328 327 326 326 325 324 323 322 322 321 321 320 321 321 321 320 321 321 320 319 318 318 317 317 316 316 316 315 315 315 314 314 313 313 312 311
327 327 328 327 328 327 326 327 326 326 325 324 323 322 321 321 320 321 321 321 320 320 320 321 321 320 319 318 317 317 316 316 316 315 314 314 314 313 312 313 312 311 310
328 327 327 328 327 327 325 325 325 324 323 322 322 321 320 320 320 321 321 321 320 319 320 320 320 319 319 318 317 316 316 316 315 315 314 313 312 309 308 309 310 309 309
328 327 328 327 327 326 323 322 322 322 322 321 320 320 320 319 320 320 321 321 321 320 319 319 319 318 318 318 317 316 316 316 315 315 313 312 310 309 305 308 305 304 306
327 328 327 327 326 326 321 322 321 322 322 321 320 320 319 319 320 320 320 320 320 320 319 318 318 317 317 317 317 317 317 316 315 314 313 312 311 306 307 304 303 303 303
327 328 326 326 326 325 320 321 320 321 321 321 320 320 320 320 320 319 320 320 320 320 319 319 318 317 317 317 317 317 317 317 316 315 314 313 312 309 307 304 303 303 303
327 328 327 327 325 323 321 319 320 320 321 320 320 319 319 319 319 319 319 319 319 319 319 319 318 318 317 316 316 318 318 318 318 316 315 315 314 313 310 309 307 306 304
327 327 326 325 323 323 320 318 319 320 320 320 321 320 320 319 319 319 319 319 319 319 319 318 318 318 318 318 317 316 318 319 320 319 318 316 316 315 314 313 311 310 309
326 326 326 324 322 321 320 318 318 320 319 319 320 322 323 324 320 319 319 318 318 318 318 318 317 316 317 318 317 315 315 317 319 320 320 319 319 318 318 317 316 316 316
325 325 324 323 321 320 320 319 317 319 320 320 320 318 321 322 324 323 318 318 318 318 318 317 317 316 316 317 316 316 316 316 316 316 317 319 320 320 320 320 319 319 318
320 320 322 321 320 319 319 319 317 318 319 320 320 319 319 319 320 321 323 319 318 318 317 317 318 318 317 317 317 317 317 317 317 317 317 317 317 317 317 318 319 319 319
320 321 322 321 318 317 318 318 317 317 318 320 320 319 320 319 319 320 321 320 321 319 319 318 318 318 318 317 317 316 316 316 317 317 316 316 316 317 316 317 317 318 318
320 319 318 317 316 316 315 316 317 316 317 319 319 319 319 319 318 319 320 320 320 318 317 317 318 318 317 318 316 315 315 315 315 315 315 315 315 315 315 315 315 314 314
319 319 317 315 314 313 312 314 314 316 317 317 318 318 319 318 318 317 317 320 322 321 319 320 317 317 318 317 317 318 318 318 318 318 318 318 317 316 317 317 317 317 317
322 322 319 317 316 314 310 309 317 316 315 316 317 317 317 317 317 318 318 319 319 323 321 320 318 318 318 318 318 317 317 317 318 317 317 317 317 317 317 317 317 317 317
322 321 321 321 319 317 313 311 315 316 315 313 318 319 319 318 317 317 318 319 319 319 321 319 319 318 318 318 317 317 317 316 317 317 318 318 318 317 317 317 317 317 317
322 321 321 321 320 319 316 315 314 317 320 319 318 319 320 320 320 320 320 320 319 319 320 318 319 318 318 317 318 317 316 316 316 316 317 318 318 317 317 317 317 317 317
321 322 322 322 321 321 320 319 316 316 318 320 320 319 319 318 318 320 319 319 318 318 318 319 319 320 319 318 317 317 317 317 316 316 317 317 317 317 317 317 317 317 317
320 320 320 321 320 320 320 321 321 319 318 318 320 320 320 320 319 319 319 319 318 318 319 319 319 319 319 318 318 318 317 318 318 317 317 317 317 317 316 316 316 317 317
320 319 320 321 321 321 321 320 321 320 320 321 321 321 321 320 320 320 319 318 318 318 319 318 318 318 318 319 319 319 319 319 318 317 316 315 315 315 316 316 316 316 317
318 319 319 319 320 320 320 321 320 320 320 320 320 320 321 321 320 320 320 320 320 319 319 319 319 319 318 318 319 319 318 317 318 318 317 317 316 316 316 315 314 314 313
319 318 318 318 318 318 318 318 318 319 319 319 320 320 320 319 319 319 320 320 320 320 318 318 318 317 317 317 317 317 317 317 316 316 317 316 312 306 301 300 300 302 302
321 320 320 319 318 316 316 316 317 317 318 318 318 318 318 318 318 318 318 318 317 317 318 316 316 317 316 316 315 315 316 316 315 306 304 298 293 293 291 292 292 293 293
316 316 314 316 313 306 308 314 317 317 316 315 316 315 316 316 315 315 315 314 313 311 309 307 302 298 296 298 301 301 302 301 300 299 298 293 290 287 288 287 288 288 288
302 301 299 299 298 298 301 304 308 311 310 308 305 304 304 305 305 304 307 306 305 298 294 296 296 294 293 293 296 296 295 296 295 288 288 288 286 284 284 284 283 285 286
293 293 291 292 291 292 295 300 304 305 302 295 292 290 290 293 297 300 302 301 294 290 289 288 287 288 288 287 289 289 289 289 288 285 283 284 285 286 286 282 282 282 282

GFSMA_925_thetae_090.txt.gz
Theta_e
331 328 327 327 329 328 330 330 329 329 330 329 329 328 327 326 324 322 322 321 322 323 322 321 322 320 319 318 318 317 317 317 317 317 316 316 316 316 316 315 314 313 313
328 329 326 329 329 329 329 327 328 329 329 328 328 327 326 324 323 321 321 322 321 321 320 323 323 322 320 318 317 317 317 317 317 317 316 316 315 315 315 314 314 312 311
328 328 327 329 329 327 327 327 329 328 328 327 327 326 325 322 321 321 321 321 321 320 321 321 321 321 319 318 317 317 317 317 317 316 316 315 315 313 313 313 312 311 311
328 330 329 328 329 327 327 327 327 327 327 327 326 325 323 321 321 321 321 321 321 321 321 320 320 319 319 318 317 317 317 317 317 316 316 314 314 311 308 308 310 311 311
327 328 328 328 328 327 326 325 326 326 326 326 325 324 322 322 321 320 320 321 321 321 321 319 319 318 318 318 317 318 317 316 316 316 315 314 313 312 310 308 304 304 309
327 328 328 328 327 325 325 325 326 326 326 325 324 323 323 322 321 320 320 320 320 320 320 320 319 318 317 317 317 317 318 318 317 316 316 315 314 313 311 306 305 304 305
328 328 328 327 326 325 324 325 325 325 325 324 323 323 323 322 322 320 319 320 320 320 320 320 319 318 318 317 316 318 318 319 318 317 317 316 315 314 311 308 306 305 304
327 327 327 326 325 324 324 325 325 325 325 324 323 323 323 322 322 321 320 320 320 320 320 320 319 319 319 318 317 317 318 319 320 320 318 317 315 315 314 312 310 309 309
327 328 326 326 324 323 324 324 325 325 324 323 323 323 325 325 323 322 321 320 320 320 319 319 319 319 319 319 319 317 316 317 319 320 320 319 318 318 317 317 317 317 316
326 327 326 325 324 324 323 324 325 325 324 324 324 323 322 321 325 325 322 321 320 320 320 319 319 320 320 320 319 319 318 315 315 317 318 320 321 321 320 320 320 319 319
325 326 325 325 324 324 324 323 324 324 324 324 324 324 324 325 323 323 324 322 322 321 321 321 320 320 320 320 320 321 319 318 316 316 316 316 317 318 319 320 320 319 319
325 325 325 325 324 323 323 323 323 324 324 323 323 323 323 323 324 323 322 322 323 322 322 321 321 321 321 321 320 319 320 318 317 317 317 317 317 317 317 317 317 318 319
321 322 322 322 322 322 323 323 321 323 323 324 323 324 323 323 322 322 321 319 321 321 322 322 322 321 321 321 320 319 318 317 316 316 315 315 315 316 316 316 316 316 316
319 319 319 320 319 320 321 321 321 321 321 322 322 322 323 323 322 322 321 319 321 320 321 320 320 321 321 321 320 318 318 317 317 317 317 318 318 317 317 316 316 315 315
319 318 318 318 318 319 320 320 320 319 319 320 321 321 322 322 321 322 321 319 319 322 320 320 322 320 319 318 317 318 318 317 317 317 317 316 318 317 317 317 317 317 317
319 319 319 317 317 315 314 315 314 315 317 318 319 320 316 320 321 322 321 321 321 321 322 320 320 321 320 318 318 318 318 318 317 317 317 317 317 317 317 317 317 317 318
320 320 320 319 314 313 314 315 312 314 317 318 317 319 319 319 319 319 319 317 319 320 320 320 321 321 321 321 320 318 317 318 318 317 317 316 316 317 317 316 316 317 317
322 322 322 319 318 318 319 317 314 313 315 318 318 318 317 316 316 319 320 320 319 319 319 319 319 319 319 318 318 319 320 319 319 319 318 317 316 316 316 316 317 317 317
322 321 321 321 320 319 319 319 316 314 312 315 318 320 319 319 319 319 319 318 318 319 319 320 320 319 320 320 321 321 321 321 321 320 319 319 318 318 318 317 317 316 316
323 323 322 321 321 320 320 319 318 317 316 316 316 317 318 319 319 319 319 320 320 320 321 320 319 319 319 320 321 321 321 321 321 320 321 320 319 319 317 317 316 315 315
322 323 323 323 323 322 321 320 320 320 319 321 321 319 319 319 320 320 321 321 321 322 322 322 322 321 321 321 321 321 320 320 319 320 320 319 318 316 314 311 310 311 312
320 320 321 323 323 323 322 322 323 323 322 322 322 322 321 321 320 321 322 321 321 321 321 321 321 320 319 319 319 318 318 318 318 316 310 312 306 304 300 298 294 296 299
322 321 320 320 317 316 318 319 319 321 321 321 320 320 320 320 320 320 319 319 319 319 318 315 312 313 309 308 307 308 308 306 303 304 302 302 298 294 290 289 290 290 291
315 313 312 311 308 305 308 314 316 316 315 313 312 313 313 313 314 316 315 312 310 308 307 304 301 298 298 299 299 299 299 298 297 294 294 295 290 286 285 285 286 287 287
297 296 296 298 298 299 303 306 310 310 307 302 300 300 301 301 302 303 305 304 299 293 290 291 290 290 291 292 295 295 293 293 294 286 288 288 286 284 284 284 284 284 284
289 290 289 289 289 292 297 302 303 302 296 292 291 291 291 292 296 299 300 298 290 287 288 287 289 288 288 287 288 289 288 289 289 288 284 286 287 287 288 285 284 283 284

GFSMA_925_thetae_093.txt.gz
Theta_e
337 336 333 332 331 328 329 327 325 327 328 330 329 330 329 329 327 327 325 323 323 322 323 321 321 320 319 318 318 318 318 318 318 318 317 317 317 317 316 315 315 314 314
336 334 332 331 330 328 328 327 328 327 328 327 329 329 328 326 325 323 324 322 322 322 321 322 322 321 319 318 318 317 318 317 317 317 317 317 316 316 315 315 314 312 312
334 333 331 330 330 328 327 328 328 328 328 327 329 328 326 324 323 322 323 323 323 322 320 321 323 321 321 318 318 317 317 317 317 317 317 316 316 315 315 314 313 312 312
333 332 330 330 330 329 330 329 327 328 327 327 328 326 324 324 322 322 322 322 322 321 320 321 321 320 319 318 318 318 318 318 318 317 317 316 315 314 313 313 313 312 311
332 330 331 329 329 328 329 328 326 326 326 327 326 325 323 321 321 321 323 322 322 321 322 321 320 319 319 318 319 318 318 318 318 317 317 316 315 314 310 307 308 309 309
330 331 330 329 329 328 328 327 327 326 326 326 326 324 323 321 320 320 321 323 322 321 321 322 321 320 318 318 318 318 318 318 318 317 317 316 315 313 311 308 307 305 304
329 329 329 329 328 328 327 327 326 326 326 327 325 324 324 323 322 320 321 321 321 323 321 322 321 320 319 317 318 318 319 319 318 318 317 317 316 313 311 309 306 305 305
329 329 328 328 328 327 326 325 326 326 325 326 325 324 325 323 323 322 320 320 321 321 321 322 321 320 320 319 318 317 318 320 320 319 319 317 316 315 313 311 310 308 308
328 328 327 328 327 326 326 325 326 325 325 325 324 323 326 325 324 322 322 320 321 321 320 320 321 320 320 320 319 317 316 317 319 320 320 319 319 318 317 317 317 316 316
327 327 328 328 325 325 325 325 325 325 325 325 324 324 322 321 326 325 322 321 321 321 321 320 320 320 320 320 320 320 318 316 315 319 320 321 320 320 320 319 319 319 319
327 327 328 326 326 325 325 325 325 325 325 325 325 324 324 323 323 325 325 323 321 321 321 321 321 320 320 321 321 320 320 319 318 315 316 318 319 319 320 321 320 320 320
327 327 327 325 325 324 324 325 324 324 325 325 325 324 324 324 324 324 324 324 324 322 321 321 322 321 321 321 321 321 321 320 319 319 317 316 316 316 316 316 317 317 317
326 326 325 325 325 324 324 324 325 325 326 326 326 325 324 324 323 322 321 323 324 322 323 322 323 323 322 321 321 321 320 320 320 318 317 317 317 316 316 316 317 317 317
323 325 325 324 324 324 324 324 324 325 325 325 325 324 324 324 324 322 321 321 322 320 319 323 323 323 323 323 322 322 321 320 318 317 317 317 317 317 317 317 317 316 316
321 322 324 324 324 324 323 324 324 324 324 324 324 324 324 323 323 324 323 321 322 322 321 322 322 322 323 323 322 321 321 319 318 317 317 316 316 316 317 317 316 317 317
319 320 320 320 322 323 323 323 322 323 323 324 324 324 322 323 322 323 323 322 322 322 321 319 321 322 322 321 321 321 319 318 317 318 318 317 316 316 316 317 316 316 317
319 319 319 319 321 322 322 322 322 322 322 321 321 321 322 322 322 322 321 321 321 321 321 321 320 320 320 321 321 320 319 318 318 319 318 317 317 317 317 317 317 317 316
319 319 319 319 318 319 319 319 319 319 318 316 317 319 320 320 319 318 322 320 320 321 320 320 319 318 319 319 319 321 322 321 320 320 320 319 319 318 318 318 318 318 317
319 319 320 318 316 315 315 314 314 315 315 314 315 317 316 319 320 320 320 317 316 319 319 318 318 319 320 321 321 320 320 321 322 322 321 321 321 320 320 318 317 317 317
322 321 320 320 318 317 316 317 317 317 316 315 316 316 317 320 319 319 319 316 317 319 318 319 318 319 320 321 321 321 322 322 322 322 322 321 320 319 319 318 317 317 316
323 322 322 321 321 320 320 319 319 318 317 315 314 317 317 320 320 320 319 319 319 319 320 320 320 321 322 322 323 322 322 321 321 320 320 318 317 313 308 305 304 305 303
323 324 324 324 323 318 320 320 320 319 319 320 319 319 319 318 317 317 317 318 320 321 322 322 322 321 321 321 320 318 315 316 316 313 309 307 306 304 299 298 293 293 294
321 321 320 316 314 313 317 320 321 321 322 321 320 321 322 322 322 321 320 320 319 317 316 313 311 310 306 306 305 306 304 303 303 302 300 300 297 295 292 289 288 290 290
310 309 308 308 308 309 316 319 320 317 316 315 314 313 314 314 314 316 313 310 305 303 303 304 301 296 295 296 299 298 298 297 296 294 295 294 290 288 287 287 287 288 288
299 296 296 297 299 301 305 309 313 312 307 302 300 300 302 302 303 304 304 301 295 292 291 292 292 291 291 294 294 294 292 293 294 288 288 288 287 286 286 286 285 285 285
290 290 290 290 290 292 296 301 303 301 296 292 291 291 291 295 298 300 298 295 289 287 288 287 287 287 288 287 288 288 289 291 291 291 285 287 289 289 290 287 286 285 285

GFSMA_925_thetae_096.txt.gz
Theta_e
339 337 336 334 332 331 328 328 326 326 326 327 328 328 330 329 328 328 326 326 324 322 323 323 322 321 321 319 319 318 318 318 318 317 316 316 317 317 316 316 315 314 315
338 337 335 334 332 329 329 327 327 325 325 327 328 328 329 328 328 328 325 325 323 322 321 321 322 320 320 319 318 318 318 318 317 317 317 316 316 316 316 314 313 312 311
337 335 334 333 333 331 329 329 329 326 326 327 326 327 329 328 327 326 323 323 322 321 320 321 321 322 320 320 318 318 318 317 317 316 317 315 315 314 314 314 313 311 310
336 335 334 333 332 331 329 329 328 328 327 327 325 327 328 325 323 323 323 320 322 321 320 320 322 319 319 320 319 318 318 317 317 317 317 316 315 314 313 313 312 311 310
336 334 332 332 331 329 328 328 328 328 328 326 323 326 326 324 323 323 322 322 322 322 320 320 321 320 319 319 319 318 318 318 318 318 317 316 315 313 312 311 310 310 310
335 333 332 331 330 329 329 329 328 328 327 326 326 326 324 323 322 322 322 323 322 321 320 321 321 320 319 318 319 319 319 318 318 318 318 317 316 314 310 306 305 305 305
332 331 331 330 330 329 329 328 327 327 327 325 326 324 323 321 321 322 323 322 322 321 322 322 320 320 319 318 318 319 320 320 319 319 318 318 317 314 310 309 307 305 305
331 330 331 330 329 329 328 328 327 326 326 326 325 323 323 323 322 320 323 323 321 321 321 322 320 319 320 318 317 318 319 320 320 320 319 318 317 315 312 309 308 307 307
329 328 330 330 329 328 327 327 327 325 326 325 325 323 323 323 322 323 321 320 322 323 321 321 322 320 320 320 319 316 317 318 319 320 319 318 317 317 316 315 315 315 315
328 328 329 329 329 328 327 327 327 325 325 325 325 323 321 322 321 322 323 321 321 321 321 321 323 321 320 321 320 319 317 313 316 319 320 320 320 319 319 318 318 318 319
329 329 328 328 328 327 327 326 326 325 325 325 325 324 321 323 322 321 321 322 322 321 320 321 321 320 320 320 320 321 320 319 315 314 317 319 321 321 321 321 320 320 320
327 326 327 328 327 327 326 326 326 325 324 324 324 324 322 324 323 322 321 320 322 322 321 321 320 322 320 320 320 320 321 320 320 319 318 316 316 316 318 319 319 320 318
327 327 326 327 326 326 325 326 325 325 325 324 325 324 324 323 324 324 324 322 322 322 322 321 321 320 322 321 321 321 321 321 320 320 320 319 318 317 316 316 316 316 316
326 326 327 326 326 325 325 325 325 325 324 324 324 324 325 323 324 324 323 322 321 321 323 323 322 322 322 321 321 321 321 320 320 320 319 318 317 316 317 317 317 317 316
325 326 326 326 325 325 325 325 325 324 323 324 324 324 324 324 324 323 323 322 322 321 319 323 323 323 323 323 323 322 322 322 321 321 318 318 317 317 317 316 316 316 316
323 322 323 324 325 325 324 324 325 324 323 324 323 324 324 324 323 323 324 324 323 322 320 321 322 322 322 322 323 323 323 322 321 321 320 317 317 317 318 317 317 317 316
321 320 321 323 324 324 324 324 325 324 324 324 324 324 324 323 322 320 316 321 322 321 320 321 320 320 321 322 322 321 320 319 320 319 318 318 317 318 318 318 318 317 317
320 319 320 321 322 324 324 324 324 324 324 324 323 323 324 323 322 322 322 321 321 321 319 320 320 319 319 318 318 318 319 320 320 319 319 318 319 320 320 319 319 319 319
319 319 319 320 321 321 321 322 323 323 323 323 323 322 322 321 321 320 321 320 321 320 319 318 319 319 318 318 318 319 320 320 320 321 321 321 320 321 320 319 319 319 319
319 319 319 319 320 321 320 320 320 322 322 321 319 318 318 317 319 320 321 320 320 319 318 318 318 318 318 317 318 319 320 321 322 322 321 320 318 317 317 315 317 317 313
320 319 319 319 319 318 317 316 316 316 315 316 317 317 316 318 318 318 320 320 320 319 318 318 318 318 318 319 319 321 322 321 319 318 313 313 312 308 306 304 301 301 299
322 322 320 320 319 316 317 316 317 316 317 318 317 315 316 317 316 319 319 320 320 319 320 320 320 320 320 318 315 313 310 309 310 309 308 305 303 301 299 297 295 293 293
318 315 314 314 309 309 314 318 318 318 318 317 317 317 317 318 318 318 318 319 318 317 317 316 315 310 306 306 306 306 303 302 303 302 300 298 296 295 293 290 290 290 289
308 306 304 304 305 304 310 314 317 317 313 310 310 311 310 309 309 311 313 309 304 302 303 304 304 299 297 297 299 299 298 296 295 294 293 293 290 289 289 288 287 286 286
296 293 294 295 297 298 304 308 312 310 304 298 297 299 300 302 302 303 304 300 294 292 292 293 292 291 291 294 296 294 293 294 292 288 288 289 288 287 287 286 286 285 285
289 289 289 289 290 292 295 299 301 298 294 291 291 292 294 297 299 299 299 296 290 288 290 290 289 288 288 288 290 290 291 291 291 288 285 288 288 288 289 287 287 287 286

GFSMA_925_thetae_099.txt.gz
Theta_e
338 337 338 336 335 333 333 330 327 326 326 325 327 327 329 330 330 329 327 326 325 325 324 323 323 323 322 320 320 319 319 318 319 318 316 317 316 316 316 315 314 314 314
338 338 337 336 334 333 332 331 327 327 327 325 327 327 328 329 329 328 326 326 325 323 323 322 324 322 321 320 319 318 318 318 318 318 317 316 316 316 315 314 313 312 313
338 338 336 335 334 333 331 329 328 326 326 325 326 326 326 328 328 327 326 326 324 321 321 322 321 321 320 320 319 318 318 317 317 318 317 315 315 315 314 312 311 310 309
338 337 336 335 333 332 330 328 327 326 325 326 327 327 326 327 328 327 326 324 323 321 321 321 320 320 320 320 320 318 318 318 317 318 317 315 314 313 313 313 311 309 308
338 337 335 334 333 332 330 328 328 328 326 326 326 327 325 326 327 326 324 323 322 321 320 321 320 320 319 319 320 319 319 318 318 317 317 316 314 313 312 312 311 310 309
337 336 335 334 333 332 330 329 328 328 328 328 327 325 325 324 324 324 322 321 322 320 319 320 320 319 318 319 319 319 319 318 318 318 318 317 316 315 312 311 311 310 309
337 336 334 333 332 331 330 329 328 328 328 327 326 326 325 324 322 322 322 321 321 321 320 319 321 320 319 319 319 319 320 319 319 319 319 318 317 315 314 309 306 305 305
334 333 332 331 331 330 329 328 327 327 327 326 324 324 324 322 321 322 323 322 321 321 320 319 320 320 319 319 318 319 319 320 320 320 319 318 317 316 313 310 309 307 306
332 331 331 330 330 330 329 328 328 327 327 326 325 323 322 323 321 322 322 322 321 321 321 321 321 320 319 319 317 317 318 319 320 320 319 318 318 317 316 314 311 309 309
332 331 330 330 330 330 329 328 327 327 326 325 325 324 322 321 321 322 322 322 322 321 320 321 321 320 319 318 319 318 317 317 317 320 320 320 319 318 317 317 317 316 317
331 330 330 329 328 329 328 327 327 326 326 325 325 324 323 321 320 320 320 321 321 321 322 321 321 321 321 319 320 320 319 317 314 316 318 320 321 321 320 320 320 320 319
328 328 327 327 328 328 328 327 326 326 326 325 325 324 322 321 320 320 319 320 320 321 322 322 321 321 321 320 320 320 320 320 319 316 313 315 318 320 321 320 320 320 319
328 328 327 328 328 327 327 327 326 326 325 325 324 324 322 321 321 320 320 320 319 321 321 320 320 321 321 320 320 320 320 320 320 320 319 318 317 316 315 316 315 316 316
327 328 327 325 326 327 327 327 326 326 325 325 324 324 323 323 321 321 321 320 320 320 321 321 320 319 320 321 321 319 320 320 320 320 320 319 320 319 318 317 317 316 316
328 327 326 326 326 327 326 326 326 326 325 324 324 324 324 321 324 322 322 322 321 321 321 322 322 321 321 320 321 321 321 321 320 320 320 320 319 319 319 318 316 316 317
326 324 324 325 325 326 325 325 325 325 325 324 324 324 323 323 323 324 323 323 322 320 320 321 322 322 321 322 321 321 321 321 322 322 321 320 320 320 319 317 317 317 317
323 323 323 324 325 325 325 325 325 325 325 324 324 323 323 323 323 323 323 323 323 321 319 320 321 321 322 323 322 322 322 321 321 321 320 319 319 319 318 318 318 317 318
321 321 320 320 322 324 324 324 325 324 324 323 324 324 323 323 323 322 321 317 320 321 321 319 320 320 319 320 320 320 320 319 318 319 319 319 319 319 319 319 318 318 319
320 320 320 320 321 324 324 324 324 324 323 323 323 323 323 322 322 322 321 321 320 319 319 320 319 318 318 318 318 318 318 317 318 319 319 320 320 319 319 319 319 316 314
320 319 319 319 320 321 323 323 323 323 323 323 323 323 322 323 323 322 322 321 321 318 319 320 319 318 317 317 318 317 316 317 319 319 318 317 315 312 313 310 310 309 308
320 319 319 319 319 319 319 321 321 322 321 322 323 323 322 321 321 321 320 320 319 320 320 319 318 317 317 317 317 317 319 319 316 313 311 308 308 307 302 301 300 299 299
319 319 319 319 317 318 318 319 320 321 322 321 320 318 317 319 318 317 316 318 320 319 319 318 316 316 317 317 316 315 316 313 309 307 306 302 300 299 297 295 294 292 291
315 314 313 314 314 313 316 316 317 318 318 317 316 316 316 316 317 316 317 318 319 319 319 318 317 314 310 311 311 307 306 307 305 300 299 295 293 293 291 290 290 289 289
303 302 301 302 305 307 311 315 315 315 313 310 311 312 313 312 313 314 313 312 308 307 308 309 309 304 301 301 301 301 300 299 295 293 294 292 289 288 287 287 286 286 286
294 293 294 296 298 299 302 307 313 307 302 299 299 301 303 304 304 306 306 300 295 292 292 295 294 293 294 296 296 296 294 294 290 287 288 289 288 288 288 287 287 286 286
287 288 288 289 290 293 296 299 303 298 294 292 292 294 298 299 298 299 300 295 289 287 288 289 290 290 291 291 291 292 292 292 289 286 285 288 288 288 289 288 288 287 286

GFSMA_925_thetae_102.txt.gz
Theta_e
339 338 338 337 337 336 335 333 331 329 327 327 325 325 325 327 329 330 329 329 328 327 327 326 325 322 321 320 320 319 319 319 319 318 318 317 317 316 316 315 315 315 314
338 338 337 337 336 335 334 333 331 326 327 328 328 329 328 329 328 329 328 328 327 325 325 325 322 322 322 320 320 319 319 319 319 319 318 316 315 315 315 313 313 313 313
338 337 336 337 336 335 333 332 329 326 325 326 327 326 326 328 328 329 327 327 326 324 324 323 323 322 322 321 319 319 318 318 318 318 318 317 315 315 314 313 311 311 312
338 337 337 337 336 334 333 331 329 326 326 326 326 327 328 328 328 328 327 326 325 324 322 321 323 321 321 320 320 319 318 318 318 318 317 316 316 315 314 312 311 310 309
339 338 337 336 335 334 332 331 329 327 327 326 325 326 326 327 327 328 327 326 324 323 321 322 320 320 319 320 320 319 319 319 318 318 318 317 316 315 315 313 312 310 309
339 338 337 336 335 332 331 330 329 328 326 326 326 327 327 326 327 327 326 326 324 322 321 320 320 319 319 319 319 320 320 319 318 318 318 318 317 315 315 313 312 311 310
339 338 337 335 334 331 331 330 329 328 327 327 327 326 326 326 326 325 326 325 323 321 320 320 320 320 319 318 319 319 320 319 319 318 318 318 317 316 315 312 311 310 309
338 337 336 334 334 332 331 330 329 328 328 328 327 325 325 323 324 323 324 324 323 321 320 319 319 320 319 318 319 319 320 320 320 319 318 318 317 316 315 313 310 307 306
336 335 335 334 332 331 330 329 329 328 327 327 327 324 324 324 321 322 322 322 322 321 320 319 319 320 320 319 319 319 318 319 320 319 319 317 317 317 316 314 311 308 307
333 334 335 333 331 330 330 329 329 327 327 326 325 324 322 321 323 322 321 321 321 321 321 320 319 319 320 320 319 318 318 318 319 320 320 319 318 317 317 316 315 314 313
335 334 333 332 331 330 330 329 328 327 327 326 325 324 323 321 322 322 323 320 320 320 321 320 319 320 320 320 319 318 317 317 317 317 319 320 320 319 319 318 318 318 318
334 333 332 331 330 330 329 328 328 328 327 326 325 324 323 321 320 321 320 321 321 320 320 320 320 320 320 320 319 318 319 319 318 316 316 318 320 321 321 321 320 320 320
331 331 332 331 330 329 329 328 327 327 326 326 325 325 323 321 320 320 320 320 320 319 321 320 320 321 320 320 320 319 319 320 320 319 318 315 314 316 317 319 319 319 319
330 329 328 328 328 327 327 327 327 326 326 325 325 325 323 322 320 320 320 320 318 318 319 321 321 321 320 320 321 320 320 320 320 320 320 320 319 318 318 317 316 316 316
329 327 327 327 327 327 327 327 326 326 326 325 325 325 324 322 320 320 320 320 319 320 320 319 321 321 321 321 321 320 320 319 319 320 320 320 320 319 318 319 319 319 318
329 327 326 327 327 326 326 326 326 326 326 325 325 324 324 322 321 320 320 320 319 319 319 320 321 321 320 320 320 320 321 320 320 320 320 320 320 320 320 320 319 319 317
328 327 325 325 325 326 326 326 326 326 326 325 325 324 324 323 322 322 322 321 320 320 319 319 321 321 321 321 320 320 321 321 321 319 320 320 320 321 321 320 320 319 318
323 322 323 323 323 324 325 325 325 325 325 325 324 324 324 323 321 322 323 323 322 321 320 318 320 322 322 322 321 321 321 321 319 318 320 319 317 319 320 319 319 319 319
321 321 321 320 320 320 321 322 324 325 325 325 324 324 324 323 322 322 322 322 322 320 320 320 319 320 320 321 321 321 321 320 320 319 317 317 318 319 319 319 318 315 313
321 320 319 318 320 320 321 323 324 324 324 324 324 324 323 323 322 322 322 319 319 320 319 318 319 319 319 318 319 319 318 318 318 317 316 316 316 313 309 307 309 307 306
320 319 319 319 318 318 319 320 324 324 324 323 323 323 323 322 322 322 321 321 321 320 319 318 317 317 317 317 317 317 317 316 314 313 308 304 302 303 301 300 298 299 297
319 319 319 318 318 318 318 318 320 322 323 322 321 322 322 322 321 321 321 320 319 318 319 319 318 317 316 317 317 316 316 315 306 306 302 298 298 297 296 296 295 294 292
313 313 311 311 312 314 317 318 319 318 316 318 319 318 318 319 319 318 318 319 318 319 319 318 317 316 316 316 315 313 312 310 303 299 299 293 292 292 291 291 291 290 289
300 299 300 301 303 304 310 314 316 315 314 314 314 316 316 315 316 317 314 311 308 310 313 316 316 313 313 311 309 308 306 303 296 294 295 290 289 289 288 288 288 288 287
293 291 292 294 295 295 299 304 312 310 306 304 305 307 309 312 310 311 309 304 297 294 295 299 299 298 298 300 299 300 298 296 290 288 291 290 288 287 287 287 287 287 286
288 288 288 288 290 291 293 296 299 297 296 294 295 296 298 300 298 299 303 300 293 290 292 292 292 293 293 293 294 294 295 295 289 286 287 288 288 288 287 287 287 286 285

GFSMA_925_thetae_105.txt.gz
Theta_e
341 339 339 339 338 337 336 335 332 330 330 329 328 329 328 327 326 325 329 330 328 329 331 329 327 325 322 320 320 319 319 319 318 318 318 318 317 317 316 317 317 316 316
341 340 339 339 338 337 336 335 332 330 331 329 328 327 328 326 325 325 328 329 328 329 329 326 327 324 323 321 320 318 319 318 318 318 318 318 317 317 316 316 316 316 315
340 340 339 338 337 336 336 334 331 329 327 327 328 325 325 325 325 327 328 328 328 329 327 326 325 323 322 321 320 319 319 318 318 317 318 316 316 315 315 315 315 315 314
339 339 338 337 336 335 335 333 332 330 329 327 327 328 329 328 328 328 327 329 328 327 325 324 323 321 321 321 320 319 319 318 318 318 318 317 316 315 315 314 312 312 313
339 338 337 336 335 334 334 332 331 330 327 327 327 327 327 326 326 328 327 328 327 326 324 323 322 321 320 320 320 320 319 318 318 318 318 317 316 316 315 313 312 310 309
339 339 336 335 335 335 331 330 330 328 326 326 326 327 326 327 328 328 327 328 327 325 324 322 322 321 320 319 319 319 319 319 318 318 318 318 317 316 315 314 312 310 309
339 339 337 335 334 335 332 330 330 329 327 327 327 327 326 326 326 327 327 327 327 325 324 322 319 320 319 319 319 319 320 320 319 319 318 317 317 317 315 315 314 312 311
338 339 337 334 333 332 331 330 330 328 328 327 327 325 325 323 325 326 326 326 326 325 324 321 321 319 318 319 319 319 319 321 320 319 318 317 317 317 316 315 313 311 311
339 339 337 336 334 332 331 331 329 329 328 328 327 326 325 325 322 323 325 325 325 324 322 321 320 319 319 318 318 318 318 319 320 319 318 318 317 317 316 315 313 311 308
339 338 337 335 334 333 332 330 329 328 328 327 327 326 324 322 324 323 322 322 323 323 322 321 320 320 319 319 319 318 319 318 318 319 318 318 317 317 317 316 315 313 310
337 337 337 335 333 332 332 331 329 328 328 327 327 326 325 322 322 322 323 321 321 321 321 321 320 319 319 319 319 318 318 318 318 318 319 319 318 318 318 317 317 316 315
336 336 335 333 334 333 331 330 329 329 328 327 327 326 325 323 321 322 322 322 321 320 320 321 320 319 319 319 320 319 319 318 318 318 318 319 319 319 319 319 318 318 318
333 333 333 332 333 332 331 330 329 328 328 327 326 326 325 323 322 322 322 322 321 319 320 320 320 320 319 318 319 319 319 319 318 317 317 317 318 319 319 320 320 320 320
331 332 331 332 332 331 331 330 329 328 328 327 326 326 324 323 321 321 321 321 318 317 318 320 320 320 319 319 319 319 319 318 318 319 318 318 316 315 314 316 317 317 317
332 332 330 330 330 330 330 329 328 328 327 327 326 325 325 324 322 320 320 320 320 320 319 318 321 320 319 320 320 320 320 320 319 319 319 319 319 319 318 318 317 317 317
330 329 329 329 328 327 327 327 327 326 325 326 326 325 325 324 322 320 320 319 319 319 319 320 320 320 320 320 321 320 320 321 320 320 320 319 319 320 320 319 319 319 319
329 329 328 327 326 325 327 327 326 326 326 326 325 325 325 324 322 320 320 320 319 319 318 318 320 320 320 320 321 321 321 321 320 320 319 319 320 320 320 320 320 320 320
328 328 327 326 325 325 325 325 326 325 325 325 325 325 324 324 322 321 320 320 319 319 319 318 319 320 320 320 320 320 319 320 319 320 319 319 319 319 320 319 319 320 320
324 323 322 321 322 322 321 322 322 324 325 325 325 325 324 324 323 322 321 320 320 320 319 320 319 320 320 321 320 320 320 320 320 320 320 319 319 319 317 317 317 318 317
321 321 321 320 319 318 319 319 320 321 322 323 325 325 325 324 323 322 321 320 320 320 319 319 320 320 320 320 321 320 320 319 319 317 317 316 316 316 316 316 314 313 311
320 320 319 318 318 318 317 317 317 320 323 324 324 324 324 324 323 322 321 320 321 320 318 318 318 318 318 318 318 318 318 317 315 314 310 309 308 306 304 302 302 302 300
319 319 318 317 316 315 316 317 317 319 322 323 323 323 324 324 323 322 321 321 321 320 318 317 317 316 317 317 317 317 316 313 306 308 308 302 299 298 297 296 295 294 294
312 312 310 309 309 310 314 316 316 317 318 317 318 320 322 322 323 320 320 321 319 320 319 318 317 317 316 316 316 315 315 314 309 304 302 294 294 294 292 292 291 291 290
296 299 301 300 301 301 305 309 312 315 313 312 310 310 314 314 317 316 316 317 316 315 316 318 318 317 317 316 316 316 315 309 300 297 298 290 290 289 289 289 289 288 286
289 289 290 294 295 295 297 302 306 307 305 303 304 305 305 309 307 317 317 310 303 300 299 306 309 308 309 310 307 309 307 301 290 291 292 291 288 287 287 287 287 286 285
286 286 287 287 289 290 292 296 299 299 295 293 295 296 298 299 302 307 310 304 293 290 292 294 294 294 295 295 297 298 299 297 289 288 289 289 288 288 287 287 286 286 285

GFSMA_925_thetae_111.txt.gz
Theta_e
340 340 339 339 340 339 337 336 335 335 335 334 334 334 334 333 332 332 332 331 332 331 332 331 330 328 326 322 321 321 319 319 319 318 318 318 317 317 317 317 317 317 317
341 342 340 338 338 337 337 336 335 334 335 334 334 334 334 334 333 331 330 329 328 330 330 331 330 328 326 324 320 320 319 320 320 318 318 318 317 317 317 317 317 317 317
340 340 339 339 338 338 338 336 335 334 334 333 334 333 333 333 332 331 328 328 326 326 329 332 329 328 327 324 320 320 319 320 319 318 317 317 317 317 316 316 316 316 316
339 337 337 338 338 338 338 336 333 333 334 333 333 332 332 332 331 329 327 324 322 322 323 326 328 327 326 324 322 320 319 319 318 317 317 317 316 316 316 316 316 315 315
336 335 336 336 337 337 337 337 333 334 333 332 332 332 331 330 329 328 327 326 326 325 324 327 328 326 325 323 322 322 320 320 318 318 317 317 316 316 316 316 315 315 315
335 335 335 336 335 336 336 336 334 332 333 333 331 331 330 328 329 327 326 325 325 326 326 327 327 326 325 323 321 322 321 321 319 318 317 316 316 316 315 315 314 314 314
335 334 335 335 334 335 335 334 333 332 329 329 328 328 328 327 328 327 326 327 327 326 327 326 327 327 325 323 321 320 322 322 321 321 318 317 316 316 316 316 315 314 314
336 336 334 333 333 333 334 333 332 330 330 329 329 329 330 329 328 327 327 327 326 326 326 326 327 325 325 323 321 319 321 322 321 322 318 317 317 316 316 316 315 314 314
336 335 334 332 333 333 332 332 332 331 330 327 329 329 330 330 327 327 327 327 326 326 326 326 326 325 324 323 322 320 320 320 321 320 318 317 317 316 316 316 316 315 315
335 334 335 332 332 332 332 331 331 330 330 328 327 328 329 327 329 328 324 326 326 326 326 325 326 325 323 323 322 320 319 319 319 319 318 318 317 317 316 316 316 316 315
334 335 335 334 331 332 332 332 331 330 330 330 328 327 327 327 325 325 328 324 324 326 326 325 325 324 323 322 321 320 319 319 318 319 319 318 318 317 316 316 316 316 316
333 334 333 334 332 331 332 332 332 331 330 330 328 328 327 327 325 325 325 324 325 323 324 324 324 324 323 321 320 320 319 317 318 318 318 319 318 318 316 316 316 316 317
333 333 334 333 332 332 332 333 332 331 330 330 329 328 327 327 326 325 325 325 324 322 322 323 324 324 323 322 321 320 319 317 318 317 317 318 319 318 317 317 317 317 318
333 333 333 333 333 333 332 332 332 331 330 330 329 328 328 327 326 325 325 325 323 321 320 321 321 323 324 323 322 320 320 318 318 317 317 318 318 318 318 318 318 318 318
334 333 333 332 332 332 331 335 331 330 330 329 329 328 328 327 327 326 325 325 325 324 322 320 321 321 322 322 322 320 320 319 319 318 318 318 318 318 317 317 318 319 319
332 332 331 333 331 332 330 330 330 330 329 329 329 328 328 328 327 326 326 324 324 323 324 322 320 321 321 322 321 320 320 319 318 318 319 318 318 318 318 317 317 316 317
331 330 330 331 332 330 330 331 330 329 329 329 328 328 327 327 326 326 325 324 323 323 323 323 320 320 320 321 321 320 321 320 319 318 318 319 319 318 318 317 317 317 317
329 329 329 330 330 329 328 329 329 328 328 327 327 326 326 326 326 325 324 323 322 322 322 322 319 319 320 320 320 320 320 319 319 319 318 319 319 318 318 318 318 318 318
327 327 328 327 328 328 327 326 325 325 325 324 325 325 325 325 325 324 324 324 322 321 321 321 318 318 318 319 319 319 320 319 318 319 319 319 319 319 319 319 318 318 318
324 324 325 325 323 322 321 321 321 321 320 320 319 320 321 322 323 324 324 324 323 321 320 320 318 318 318 318 318 318 315 314 314 315 317 318 318 318 318 318 318 318 317
316 317 315 315 315 315 311 315 316 317 317 317 317 317 318 320 321 321 323 323 323 321 320 320 319 318 318 318 317 318 315 310 308 310 310 309 311 311 310 311 311 311 311
303 306 302 302 301 298 303 309 313 314 315 313 312 311 311 317 319 321 321 322 323 321 320 320 320 318 318 318 318 318 312 307 306 304 305 301 304 304 303 303 302 304 302
293 294 293 293 291 290 294 301 307 306 306 305 304 306 307 307 313 317 320 321 322 322 321 320 319 319 319 318 318 317 313 312 311 306 306 293 296 296 296 294 294 294 292
289 287 287 287 287 287 290 295 297 299 297 295 295 296 299 301 302 307 311 310 309 309 312 319 319 319 319 318 318 317 315 311 306 301 305 290 291 290 290 290 289 289 288
286 285 285 286 286 285 287 290 293 292 292 290 289 290 293 296 297 300 302 298 295 297 297 304 311 312 317 316 317 317 310 306 293 295 299 292 289 287 288 287 287 286 285
285 285 284 284 284 284 285 287 288 286 286 286 286 286 286 289 295 296 296 296 294 293 295 296 297 298 304 306 310 311 308 309 294 292 294 292 288 288 285 285 285 285 284

GFSMA_925_thetae_114.txt.gz
Theta_e
343 343 341 342 342 341 341 340 339 338 338 338 337 337 336 335 335 335 335 333 333 332 331 334 331 330 327 324 322 321 321 321 321 320 319 318 318 318 317 317 317 318 317
341 342 341 341 341 342 341 341 340 339 339 337 337 336 335 335 334 334 334 334 332 331 331 331 332 330 328 326 322 321 321 320 320 319 318 318 318 318 317 317 317 317 317
341 341 341 340 340 341 341 340 339 339 338 337 337 336 336 335 334 333 334 333 332 329 329 329 332 328 329 326 323 321 319 319 319 318 318 318 318 317 317 317 316 316 316
341 340 339 340 341 341 340 340 339 339 338 337 337 336 335 334 334 333 333 332 330 330 327 327 327 328 328 326 324 321 320 320 319 318 318 318 318 317 317 316 316 316 316
341 341 340 338 338 340 339 340 339 338 338 337 336 336 335 334 333 333 332 331 330 327 327 325 323 323 327 326 324 323 322 320 319 319 318 317 317 316 316 316 316 315 315
340 340 339 339 336 337 337 338 338 338 338 337 336 335 335 334 333 332 332 331 330 327 326 325 325 324 326 326 324 323 323 322 321 320 318 317 317 316 316 316 316 315 315
340 339 338 338 335 336 337 337 338 337 337 337 336 335 335 334 333 332 331 331 331 329 326 324 326 326 326 327 324 322 323 322 322 322 319 317 317 316 316 316 316 315 315
339 339 337 337 336 336 336 335 335 335 335 334 333 333 335 333 332 332 331 331 331 329 327 326 326 326 327 326 325 322 323 323 323 322 320 318 317 317 316 316 315 315 314
338 338 337 336 336 335 335 334 334 334 333 332 334 333 335 334 331 331 331 331 330 328 327 326 326 326 326 326 325 324 321 322 322 321 320 318 318 316 316 316 317 316 314
338 338 337 335 335 335 334 334 333 334 333 331 332 334 331 331 332 332 329 330 330 329 327 326 326 326 326 326 325 324 322 320 322 321 319 319 318 318 317 316 316 317 316
337 336 335 336 334 334 334 334 333 333 333 332 331 331 333 332 330 330 333 330 327 329 329 327 326 325 325 326 324 325 323 320 321 321 320 319 318 318 317 316 316 316 316
335 335 335 335 334 334 333 333 333 333 332 333 331 333 332 332 332 330 331 329 329 328 327 326 326 325 325 325 325 324 323 321 320 319 320 319 318 318 317 317 316 316 316
334 335 334 334 333 333 333 333 333 332 331 332 333 333 332 330 329 329 329 330 330 328 328 326 327 325 324 323 325 323 322 321 319 319 318 319 319 319 318 318 316 316 316
334 333 334 334 334 333 333 333 332 332 332 332 334 333 332 331 330 330 329 330 329 327 327 326 323 324 324 323 322 323 321 321 319 318 318 318 319 319 318 318 317 317 316
334 334 334 333 333 332 333 333 332 332 332 333 332 333 332 332 331 330 330 328 328 330 326 324 326 322 323 323 324 323 321 321 319 319 317 318 318 318 319 319 318 317 317
335 334 334 333 332 332 332 332 332 332 332 332 332 331 331 331 330 330 329 328 327 328 329 324 325 325 322 322 323 323 323 322 321 319 318 317 318 317 318 318 318 318 318
334 335 335 333 332 332 331 331 332 331 331 331 331 330 330 330 329 328 328 328 328 327 326 325 324 324 322 321 322 323 322 323 322 321 319 318 318 317 318 318 318 318 317
335 333 333 332 331 331 330 330 331 330 330 330 330 329 329 329 327 328 328 327 327 326 325 325 324 322 321 321 321 321 321 322 322 322 320 319 318 318 318 318 318 318 318
331 330 330 331 330 328 328 330 330 329 329 329 328 328 328 328 327 326 326 326 326 325 325 324 324 323 322 321 320 321 320 321 322 322 320 319 318 318 319 319 319 319 318
322 320 321 321 321 321 321 322 324 325 324 324 323 325 325 324 324 324 324 324 324 324 324 323 324 321 321 320 320 320 320 321 321 318 320 319 318 318 318 319 318 318 318
303 304 307 305 305 308 307 313 317 317 317 318 320 320 320 317 317 318 319 321 324 324 324 323 322 322 319 319 319 320 320 315 311 316 316 316 316 317 317 317 317 318 318
293 295 296 295 295 296 298 306 311 311 311 310 308 309 309 309 311 311 314 317 319 320 323 323 322 321 319 319 318 319 318 308 306 307 312 305 306 308 308 308 311 313 313
289 288 289 290 290 291 296 300 305 305 303 299 297 297 298 299 301 301 304 306 311 316 317 317 321 321 320 319 319 318 317 312 314 304 305 295 298 298 299 299 299 301 303
286 286 286 286 286 287 292 293 295 296 293 291 290 290 291 291 294 299 299 299 302 304 306 307 311 316 319 319 319 318 317 312 307 302 305 292 292 291 292 292 292 292 293
285 285 284 284 285 284 285 289 292 289 287 286 286 285 285 287 290 295 295 294 294 293 293 296 299 303 311 318 318 318 307 304 294 296 298 293 290 288 288 288 287 287 287
285 285 284 284 283 283 283 283 286 287 286 284 283 283 283 284 287 292 292 291 290 288 290 293 295 299 301 302 309 312 309 309 295 293 294 291 288 288 286 286 285 285 284

GFSMA_925_thetae_117.txt.gz
Theta_e
343 344 341 343 342 341 341 342 340 339 338 338 338 337 336 336 335 334 335 334 333 332 332 333 333 333 330 329 328 326 324 323 322 321 320 318 318 319 319 318 318 318 318
343 343 341 340 341 340 341 342 341 339 338 338 338 338 337 336 336 335 335 334 331 332 332 331 334 333 331 327 326 324 323 322 322 321 320 319 318 318 318 318 317 318 317
343 342 343 340 338 339 340 341 342 340 338 339 338 338 337 337 336 334 334 335 333 331 332 331 329 331 332 328 325 323 322 322 321 320 320 318 318 318 317 318 318 317 317
343 343 341 342 339 339 341 342 341 341 339 339 338 338 337 337 336 335 334 334 333 332 330 330 330 328 325 327 326 323 323 321 320 320 319 318 318 317 317 317 317 317 317
342 342 341 341 341 340 342 341 341 340 340 339 339 338 337 336 336 335 335 333 332 331 331 329 329 327 324 324 326 325 324 321 320 320 319 319 318 317 317 317 316 317 317
342 341 340 340 340 342 342 342 341 340 340 339 337 337 336 336 335 335 334 333 332 331 330 330 324 325 324 325 326 326 325 323 322 319 318 318 318 317 317 316 316 316 316
343 342 341 341 340 340 341 340 341 340 339 339 337 338 337 335 335 335 334 332 332 331 331 329 328 325 325 325 322 325 326 325 324 323 320 318 318 317 317 316 316 316 315
342 343 342 341 342 340 339 338 339 340 340 339 338 337 336 335 335 335 333 332 332 332 331 331 330 328 326 325 324 324 325 325 324 323 321 318 318 317 317 316 316 316 316
343 343 343 342 341 340 338 338 337 338 339 339 338 335 336 335 333 334 333 333 332 331 332 331 328 328 327 326 325 326 325 324 324 322 322 319 318 317 317 316 316 316 316
342 343 343 342 341 340 338 336 336 337 336 335 337 336 334 331 333 334 333 332 332 332 332 331 329 328 327 326 326 326 325 323 323 322 322 321 319 317 317 317 316 316 315
340 343 342 343 341 339 337 336 335 336 336 335 334 336 337 336 334 334 336 332 331 331 331 330 330 327 326 326 326 325 325 325 322 323 322 321 320 318 317 316 316 316 316
338 341 341 341 341 339 337 337 335 334 336 335 334 334 334 336 335 334 334 334 332 331 330 330 330 328 326 325 326 325 325 325 323 322 322 321 320 319 318 317 317 316 316
337 338 339 339 339 338 336 336 335 334 334 334 334 333 334 334 334 333 333 334 333 329 330 330 330 328 326 326 325 324 325 325 324 320 322 322 320 319 319 318 317 316 316
337 338 337 336 336 337 336 335 334 334 333 334 334 333 334 335 334 333 331 332 334 333 330 330 329 328 326 325 327 324 324 325 324 322 320 321 321 320 319 318 318 317 316
336 337 336 335 334 335 335 334 334 333 333 334 334 333 334 335 333 332 332 331 332 335 333 329 329 329 327 325 325 323 324 324 324 323 321 320 320 320 319 319 318 317 317
336 335 336 334 334 334 334 333 333 333 333 332 333 333 334 335 334 333 332 331 331 331 334 330 327 327 327 325 324 323 323 323 323 323 321 320 319 319 319 320 319 318 317
332 334 335 334 334 334 334 334 333 333 332 332 333 333 333 334 333 332 331 331 331 330 330 329 329 327 326 327 324 323 323 323 323 323 322 321 319 318 318 318 319 319 319
332 333 333 333 334 333 333 332 332 332 332 331 332 332 332 332 332 331 330 330 329 329 328 328 327 326 326 326 326 323 322 323 323 323 323 321 320 319 317 318 318 317 319
329 330 330 330 332 332 332 332 332 331 330 330 331 330 330 330 330 329 329 328 329 328 327 327 327 326 326 325 325 322 322 322 322 323 323 322 321 319 318 317 318 317 317
304 305 310 309 312 317 322 328 330 329 329 330 329 328 328 326 325 323 323 325 326 327 326 326 326 325 325 324 324 323 322 321 321 322 322 323 322 321 319 318 318 317 317
293 294 297 299 301 303 305 314 319 321 320 320 320 319 316 315 316 314 313 312 314 315 320 324 324 323 323 322 323 322 322 321 320 320 321 320 321 320 320 319 318 318 318
288 289 289 290 292 293 299 306 309 309 311 311 309 309 310 309 311 309 309 305 305 305 308 315 320 322 322 322 321 321 321 313 308 313 316 313 313 316 318 318 318 318 318
286 287 287 287 287 289 291 296 299 296 292 293 293 295 297 296 299 302 302 302 299 300 300 301 302 309 313 320 321 320 320 317 317 314 310 301 302 305 308 310 313 316 316
285 285 285 285 285 285 288 290 292 292 292 287 287 289 289 290 293 296 298 298 296 295 294 294 294 295 296 302 309 316 320 319 312 310 307 293 295 294 296 298 299 302 304
286 285 285 284 284 284 286 286 289 286 286 285 285 285 285 286 289 294 294 294 293 292 292 293 293 294 294 296 301 307 315 306 294 298 301 296 292 290 291 291 291 293 293
287 286 285 285 284 284 283 283 285 284 283 283 283 282 283 284 284 288 289 289 288 287 289 292 293 293 292 292 294 300 303 308 297 293 297 294 290 290 286 287 287 286 287

GFSMA_925_thetae_120.txt.gz
Theta_e
344 344 341 342 341 342 341 341 340 337 337 336 338 336 335 335 336 336 333 334 332 331 331 333 332 332 332 331 329 327 325 324 322 322 321 320 320 319 319 318 318 318 317
344 344 341 344 341 341 341 340 341 340 338 339 338 336 336 336 336 336 335 334 333 331 331 332 334 332 331 331 329 327 326 325 322 321 321 319 319 319 319 318 318 317 317
343 345 341 343 344 339 343 340 341 340 338 338 337 337 337 337 336 336 336 334 334 331 331 331 331 332 331 332 329 327 325 324 323 322 320 318 318 318 318 317 317 317 317
345 344 344 344 342 343 343 339 339 341 339 338 338 337 338 337 337 337 335 335 334 333 331 331 331 330 329 329 329 324 324 323 323 322 321 319 318 318 317 317 317 317 317
342 346 343 342 343 343 342 339 340 341 341 339 338 338 337 338 337 336 335 333 334 333 332 331 330 330 329 327 326 325 326 324 322 321 320 319 318 318 317 317 317 317 317
339 342 345 343 338 342 343 342 341 341 341 339 338 338 338 337 336 336 335 334 334 333 332 331 330 330 329 325 324 326 326 325 324 322 320 319 318 317 317 317 317 316 317
343 339 342 344 340 338 342 343 342 340 340 339 339 338 337 337 336 335 335 333 333 332 330 331 329 327 324 324 325 324 326 326 326 323 321 319 318 318 317 317 317 316 317
342 343 342 342 342 339 340 344 343 341 340 339 339 337 338 337 337 336 334 333 335 332 332 331 330 329 326 325 325 324 323 327 327 324 321 319 318 318 317 317 316 316 316
341 342 343 341 342 341 340 341 342 342 340 340 338 336 335 334 333 335 335 334 334 332 332 331 331 330 328 328 325 325 323 323 325 325 323 321 319 318 317 317 316 316 316
340 342 343 343 342 343 341 340 339 338 340 340 339 337 333 333 330 334 335 335 333 332 331 331 332 331 329 328 327 326 325 323 324 325 324 323 321 319 318 317 317 316 316
338 339 339 341 343 342 342 340 339 337 338 337 339 337 337 335 335 333 332 333 334 333 332 331 331 331 330 328 327 326 325 325 325 324 324 323 322 320 317 317 317 316 316
329 337 336 339 340 343 339 340 338 337 337 336 336 336 336 336 335 334 331 330 331 333 332 332 332 331 330 328 326 326 325 325 325 325 324 324 322 321 319 318 317 317 316
325 332 335 338 339 342 340 340 338 336 336 335 335 334 334 335 336 335 334 330 330 331 331 331 331 330 330 329 326 326 325 325 325 324 324 323 323 322 321 319 317 317 316
322 327 332 333 337 339 340 339 338 337 335 334 334 334 333 334 334 333 333 332 329 329 330 330 331 331 329 328 327 325 324 325 325 325 325 323 323 323 322 320 319 317 317
319 324 330 333 333 338 338 339 338 337 334 333 333 333 333 333 334 334 334 332 330 329 328 330 330 330 330 328 327 326 326 325 324 325 325 325 322 323 322 321 319 319 318
317 324 327 330 331 334 336 336 336 335 334 332 333 334 333 334 333 334 334 333 331 330 330 330 330 329 329 329 328 326 324 324 325 324 324 325 324 321 322 322 320 319 318
315 323 329 327 318 329 332 333 335 334 334 333 333 333 333 333 335 335 333 333 331 331 329 329 329 329 328 328 327 326 325 323 323 323 323 324 324 321 321 321 321 320 319
318 327 329 326 316 330 333 334 333 333 333 333 332 332 332 333 333 333 333 332 331 330 329 328 329 328 328 327 327 326 325 324 322 322 322 322 323 322 321 320 321 320 320
302 306 316 317 321 325 332 333 333 333 332 332 332 331 332 332 332 333 332 330 330 329 329 328 327 327 327 326 326 326 326 324 323 323 322 322 323 323 321 320 319 319 319
293 295 297 299 300 307 316 326 331 332 332 332 331 330 329 328 329 328 328 324 323 323 324 326 326 325 326 326 325 325 325 324 322 322 322 322 322 323 323 323 321 319 318
291 290 290 292 294 295 301 307 316 315 312 311 310 310 310 307 311 314 315 321 318 314 313 316 318 320 323 324 323 323 324 323 322 321 322 322 322 322 322 323 322 320 319
288 288 288 288 289 290 292 297 298 298 299 296 296 298 300 303 303 303 305 307 308 306 305 307 310 314 316 319 321 322 322 322 314 320 320 318 320 320 320 321 322 322 319
286 286 286 286 286 286 289 289 291 289 289 291 291 291 290 292 296 300 300 301 301 299 298 298 298 298 298 301 299 301 309 320 319 320 318 314 312 311 312 315 317 320 321
285 285 284 285 285 285 285 286 288 290 285 285 286 288 288 289 291 294 297 296 294 294 293 293 292 292 292 291 292 294 298 300 307 314 313 301 300 299 300 302 305 308 313
285 284 284 283 284 285 284 285 285 285 284 283 283 284 285 285 287 290 291 291 290 289 289 290 290 290 291 291 291 295 295 296 300 305 305 304 294 292 293 293 294 295 300
285 284 283 282 282 282 284 284 284 284 284 284 283 283 283 283 283 285 286 285 285 285 287 288 288 289 288 288 289 288 287 289 298 295 300 298 291 293 287 287 290 291 291

GFSMA_925_thetae_123.txt.gz
Theta_e
345 346 343 343 341 340 339 338 338 338 335 333 338 338 334 330 334 336 334 334 334 333 331 333 332 332 331 331 328 327 326 325 324 322 322 321 318 320 319 319 318 318 319
342 344 342 342 342 341 339 338 338 338 336 332 334 337 336 333 335 335 335 333 333 331 330 332 332 332 331 331 331 328 327 325 324 323 322 321 319 319 318 318 318 318 317
341 343 344 340 342 341 340 340 338 339 338 335 335 337 336 336 335 336 335 334 334 333 330 330 331 332 332 331 331 330 328 326 324 322 321 321 319 318 318 318 317 317 317
343 342 345 342 344 341 341 341 340 341 340 337 337 338 336 336 336 336 336 335 334 333 331 331 331 331 332 331 331 330 328 327 326 323 322 320 319 318 318 318 317 316 317
341 344 343 344 341 343 342 342 341 341 340 339 338 336 336 336 336 336 336 335 335 334 333 331 331 331 330 330 330 330 327 326 324 324 323 321 319 318 318 317 317 316 317
339 339 343 344 342 343 343 341 341 341 340 339 338 337 336 336 337 336 336 335 334 334 333 332 331 331 331 329 327 327 327 326 326 325 324 321 320 318 317 317 317 316 316
336 341 340 341 342 341 343 342 340 340 340 340 338 338 336 337 337 337 336 335 334 333 334 332 331 330 330 329 328 326 326 328 328 325 324 322 320 318 317 316 316 316 316
338 338 337 337 340 340 340 342 341 340 340 340 338 337 335 337 337 337 336 335 335 332 333 332 331 330 329 328 328 325 324 327 329 326 324 322 321 319 317 317 316 316 316
327 337 336 335 338 341 339 339 342 340 339 339 338 336 332 333 332 336 336 335 335 333 333 333 331 330 329 329 326 324 325 325 326 326 325 323 321 319 318 317 316 316 316
318 325 335 336 333 337 341 338 340 341 339 338 337 336 334 332 330 331 335 335 335 333 334 334 331 331 331 330 328 327 327 325 324 325 326 324 321 320 318 317 317 316 316
313 318 325 335 337 337 339 339 338 341 339 338 337 337 335 332 332 328 330 331 334 334 333 332 331 331 331 330 330 329 328 325 325 324 324 325 324 321 319 318 317 317 316
308 313 318 324 334 336 337 338 339 338 338 337 337 337 337 334 332 330 327 329 332 333 334 332 332 331 331 331 330 329 328 327 326 325 324 324 325 324 321 319 318 317 317
305 310 316 319 324 334 336 337 338 337 335 333 336 338 337 336 335 333 332 328 327 331 333 333 332 331 331 331 330 328 327 326 326 326 325 325 325 325 324 321 320 318 317
303 305 309 316 323 326 334 334 335 335 331 326 331 334 335 335 335 334 333 330 326 327 330 331 332 332 331 330 329 329 328 325 325 325 325 325 325 325 325 323 321 319 317
301 303 307 312 318 324 329 332 334 334 332 326 326 329 333 333 333 333 334 333 329 327 329 328 330 330 331 331 330 329 328 326 325 324 325 325 325 324 324 324 323 321 319
302 304 305 308 314 322 327 330 331 331 332 333 333 333 333 332 331 332 333 333 332 328 326 327 328 329 330 330 330 329 328 327 326 325 324 325 325 325 325 324 324 323 321
304 307 307 309 313 321 328 331 330 329 330 333 334 333 332 332 331 331 332 333 332 331 327 328 329 329 329 330 329 329 328 327 326 325 323 324 324 323 325 325 323 323 323
304 308 310 313 318 321 322 326 326 323 317 326 333 333 332 332 331 331 332 332 331 331 329 327 328 329 328 327 328 328 328 327 326 325 325 323 321 322 322 323 324 323 323
293 296 299 301 302 306 311 319 318 316 329 331 333 332 332 332 332 331 333 331 330 329 329 329 327 327 327 327 327 327 327 327 326 325 325 324 322 321 322 321 323 322 322
289 289 291 292 293 295 300 308 320 325 327 329 325 329 326 329 330 331 332 331 329 328 328 328 327 326 326 326 326 326 326 325 325 325 324 323 323 322 322 322 322 323 321
287 288 288 288 289 291 291 294 297 299 303 301 299 302 302 304 311 319 320 322 325 324 319 320 319 320 322 324 324 324 323 323 323 324 323 323 323 322 321 322 322 322 322
285 286 286 287 287 288 290 291 291 290 290 292 292 292 294 299 299 302 305 306 308 310 310 310 311 312 313 312 311 312 311 319 320 322 322 321 320 320 320 321 321 321 322
284 284 285 285 286 286 287 289 289 290 288 287 287 288 289 292 296 295 296 295 295 296 298 299 302 299 297 297 297 299 300 301 306 315 312 319 318 319 318 317 317 318 319
282 282 282 283 284 285 285 286 286 286 285 285 285 285 286 288 291 293 294 293 290 290 290 291 291 289 290 290 292 292 293 294 298 305 308 307 313 311 309 308 310 313 313
281 280 280 281 281 283 284 285 285 285 285 285 285 285 284 284 285 290 290 287 287 286 286 287 285 285 286 285 290 293 291 290 296 302 305 306 303 298 296 296 298 301 305
279 278 278 278 280 280 282 283 284 284 284 284 285 284 284 284 284 284 285 284 283 283 284 285 286 285 285 284 284 285 285 286 289 296 294 297 293 294 290 289 290 292 295